[[{"header":{"parameterUnit":"m.s-1","parameterCategory":1,"la1":30.6,"la2":28.766,"lo1":-90.7593,"lo2":-88.6598,"dy":0.0162,"dx":0.0183,"nx":116,"ny":114,"refTime":"2024-08-03T12:00:00:Z","depth":0,"parameterNumber":2,"parameterNumberName":"U-component_of_WINDS"},"data":[0.0,0.0,0.0,0.0,0.0,0.0,0.0,0.0,0.0,0.0,0.0,0.0,0.0,0.0,0.0,0.0,0.0,0.0,0.0,0.0,0.0,0.0,0.0,0.0,0.0,0.0,0.0,0.0,0.0,0.0,0.0,0.0,0.0,0.0,0.0,0.0,0.0,0.0,0.0,0.0,0.0,0.0,0.0,0.0,0.0,0.0,0.0,0.0,0.0,0.0,0.0,0.0,0.0,0.0,0.0,0.0,0.0,0.0,0.0,0.0,0.0,0.0,0.0,0.0,0.0,0.0,0.0,0.0,0.0,0.0,0.0,0.0,0.0,0.0,0.0,0.0,0.0,0.0,0.0,0.0,0.0,0.0,0.0,0.0,0.0,0.0,0.0,0.0,0.0,0.0,0.0,0.0,0.0,0.0,0.0,0.0,0.0,0.0,0.0,0.0,0.0,0.0,0.0,0.0,0.0,0.0,0.0,0.0,0.0,0.0,0.0,0.0,0.0,0.0,0.0,0.0,0.0,0.0,0.0,0.0,0.0,0.0,0.0,0.0,0.0,0.0,0.0,0.0,0.0,0.0,0.0,0.0,0.0,0.0,0.0,0.0,0.0,0.0,0.0,0.0,0.0,0.0,0.0,0.0,0.0,0.0,0.0,0.0,0.0,0.0,0.0,0.0,0.0,0.0,0.0,0.0,0.0,0.0,0.0,0.0,0.0,0.0,0.0,0.0,0.0,0.0,0.0,0.0,0.0,0.0,0.0,0.0,0.0,0.0,0.0,0.0,0.0,0.0,0.0,0.0,0.0,0.0,0.0,0.0,0.0,0.0,0.0,0.0,0.0,0.0,0.0,0.0,0.0,0.0,0.0,0.0,0.0,0.0,0.0,0.0,0.0,0.0,0.0,0.0,0.0,0.0,0.0,0.0,0.0,0.0,0.0,0.0,0.0,0.0,0.0,0.0,0.0,0.0,0.0,0.0,0.0,0.0,0.0,0.0,0.0,0.0,0.0,0.0,0.0,0.0,0.0,0.0,0.0,0.0,0.0,0.0,0.0,0.0,0.0,0.0,0.0,0.0,0.0,0.0,0.0,0.0,0.0,0.0,0.0,0.0,0.0,0.0,0.0,0.0,0.0,0.0,0.0,0.0,0.0,0.0,0.0,0.0,0.0,0.0,0.0,0.0,0.0,0.0,0.0,0.0,0.0,0.0,0.0,0.0,0.0,0.0,0.0,0.0,0.0,0.0,0.0,0.0,0.0,0.0,0.0,0.0,0.0,0.0,0.0,0.0,0.0,0.0,0.0,0.0,0.0,0.0,0.0,0.0,0.0,0.0,0.0,0.0,0.0,0.0,0.0,0.0,0.0,0.0,0.0,0.0,0.0,0.0,0.0,0.0,0.0,0.0,0.0,0.0,0.0,0.0,0.0,0.0,0.0,0.0,0.0,0.0,0.0,0.0,0.0,0.0,0.0,0.0,0.0,0.0,0.0,0.0,0.0,0.0,0.0,0.0,0.0,0.0,0.0,0.0,0.0,0.0,0.0,0.0,0.0,0.0,0.0,0.0,0.0,0.0,0.0,0.0,0.0,0.0,0.0,0.0,0.0,0.0,0.0,0.0,0.0,0.0,0.0,0.0,0.0,0.0,0.0,0.0,0.0,0.0,0.0,0.0,0.0,0.0,0.0,0.0,0.0,0.0,0.0,0.0,0.0,0.0,0.0,0.0,0.0,0.0,0.0,0.0,0.0,0.0,0.0,0.0,0.0,0.0,0.0,0.0,0.0,0.0,0.0,0.0,0.0,0.0,0.0,0.0,0.0,0.0,0.0,0.0,0.0,0.0,0.0,0.0,0.0,0.0,0.0,0.0,0.0,0.0,0.0,0.0,0.0,0.0,0.0,0.0,0.0,0.0,0.0,0.0,0.0,0.0,0.0,0.0,0.0,0.0,0.0,0.0,0.0,0.0,0.0,0.0,0.0,0.0,0.0,0.0,0.0,0.0,0.0,0.0,0.0,0.0,0.0,0.0,0.0,0.0,0.0,0.0,0.0,0.0,0.0,0.0,0.0,0.0,0.0,0.0,0.0,0.0,0.0,0.0,0.0,0.0,0.0,0.0,0.0,0.0,0.0,0.0,0.0,0.0,0.0,0.0,0.0,0.0,0.0,0.0,0.0,0.0,0.0,0.0,0.0,0.0,0.0,0.0,0.0,0.0,0.0,0.0,0.0,0.0,0.0,0.0,0.0,0.0,0.0,0.0,0.0,0.0,0.0,0.0,0.0,0.0,0.0,0.0,0.0,0.0,0.0,0.0,0.0,0.0,0.0,0.0,0.0,0.0,0.0,0.0,0.0,0.0,0.0,0.0,0.0,0.0,0.0,0.0,0.0,0.0,0.0,0.0,0.0,0.0,0.0,0.0,0.0,0.0,0.0,0.0,0.0,0.0,0.0,0.0,0.0,0.0,0.0,0.0,0.0,0.0,0.0,0.0,0.0,0.0,0.0,0.0,0.0,0.0,0.0,0.0,0.0,0.0,0.0,0.0,0.0,0.0,0.0,0.0,0.0,0.0,0.0,0.0,0.0,0.0,0.0,0.0,0.0,0.0,0.0,0.0,0.0,0.0,0.0,0.0,0.0,0.0,0.0,0.0,0.0,0.0,0.0,0.0,0.0,0.0,0.0,0.0,0.0,0.0,0.0,0.0,0.0,0.0,0.0,0.0,0.0,0.0,0.0,0.0,0.0,0.0,0.0,0.0,0.0,0.0,0.0,0.0,0.0,0.0,0.0,0.0,0.0,0.0,0.0,0.0,0.0,0.0,0.0,0.0,0.0,0.0,0.0,0.0,0.0,0.0,0.0,0.0,0.0,0.0,0.0,0.0,0.0,0.0,0.0,0.0,0.0,0.0,0.0,0.0,0.0,0.0,0.0,0.0,0.0,0.0,0.0,0.0,0.0,0.0,0.0,0.0,0.0,0.0,0.0,0.0,0.0,0.0,0.0,0.0,0.0,0.0,0.0,0.0,0.0,0.0,0.0,0.0,0.0,0.0,0.0,0.0,0.0,0.0,0.0,0.0,0.0,0.0,0.0,0.0,0.0,0.0,0.0,0.0,0.0,0.0,0.0,0.0,0.0,0.0,0.0,0.0,0.0,0.0,0.0,0.0,0.0,0.0,0.0,0.0,0.0,0.0,0.0,0.0,0.0,0.0,0.0,0.0,0.0,0.0,0.0,0.0,0.0,0.0,0.0,0.0,0.0,0.0,0.0,0.0,0.0,0.0,0.0,0.0,0.0,0.0,0.0,0.0,0.0,0.0,0.0,0.0,0.0,0.0,0.0,0.0,0.0,0.0,0.0,0.0,0.0,0.0,0.0,0.0,0.0,0.0,0.0,0.0,0.0,0.0,0.0,0.0,0.0,0.0,0.0,0.0,0.0,0.0,0.0,0.0,0.0,0.0,0.0,0.0,0.0,0.0,0.0,0.0,0.0,0.0,0.0,0.0,0.0,0.0,0.0,0.0,0.0,0.0,0.0,0.0,0.0,0.0,0.0,0.0,0.0,0.0,0.0,0.0,0.0,0.0,0.0,0.0,0.0,0.0,0.0,0.0,0.0,0.0,0.0,0.0,0.0,0.0,0.0,0.0,0.0,0.0,0.0,0.0,0.0,0.0,0.0,0.0,0.0,0.0,0.0,0.0,0.0,0.0,0.0,0.0,0.0,0.0,0.0,0.0,0.0,0.0,0.0,0.0,0.0,0.0,0.0,0.0,0.0,0.0,0.0,0.0,0.0,0.0,0.0,0.0,0.0,0.0,0.0,0.0,0.0,0.0,0.0,0.0,0.0,0.0,0.0,0.0,0.0,0.0,0.0,0.0,0.0,0.0,0.0,0.0,0.0,0.0,0.0,0.0,0.0,0.0,0.0,0.0,0.0,0.0,0.0,0.0,0.0,0.0,0.0,0.0,0.0,0.0,0.0,0.0,0.0,0.0,0.0,0.0,0.0,0.0,0.0,0.0,0.0,0.0,0.0,0.0,0.0,0.0,0.0,0.0,0.0,0.0,0.0,0.0,0.0,0.0,0.0,0.0,0.0,0.0,0.0,0.0,0.0,0.0,0.0,0.0,0.0,0.0,0.0,0.0,0.0,0.0,0.0,0.0,0.0,0.0,0.0,0.0,0.0,0.0,0.0,0.0,0.0,0.0,0.0,0.0,0.0,0.0,0.0,0.0,0.0,0.0,0.0,0.0,0.0,0.0,0.0,0.0,0.0,0.0,0.0,0.0,0.0,0.0,0.0,0.0,0.0,0.0,0.0,0.0,0.0,0.0,0.0,0.0,0.0,0.0,0.0,0.0,0.0,0.0,0.0,0.0,0.0,0.0,0.0,0.0,0.0,0.0,0.0,0.0,0.0,0.0,0.0,0.0,0.0,0.0,0.0,0.0,0.0,0.0,0.0,0.0,0.0,0.0,0.0,0.0,0.0,0.0,0.0,0.0,0.0,0.0,0.0,0.0,0.0,0.0,0.0,0.0,0.0,0.0,0.0,0.0,0.0,0.0,0.0,0.0,0.0,0.0,0.0,0.0,0.0,0.0,0.0,0.0,0.0,0.0,0.0,0.0,0.0,0.0,0.0,0.0,0.0,0.0,0.0,0.0,0.0,0.0,0.0,0.0,0.0,0.0,0.0,0.0,0.0,0.0,0.0,0.0,0.0,0.0,0.0,0.0,0.0,0.0,0.0,0.0,0.0,0.0,0.0,0.0,0.0,0.0,0.0,0.0,0.0,0.0,0.0,0.0,0.0,0.0,0.0,0.0,0.0,0.0,0.0,0.0,0.0,0.0,0.0,0.0,0.0,0.0,0.0,0.0,0.0,0.0,0.0,0.0,0.0,0.0,0.0,0.0,0.0,0.0,0.0,0.0,0.0,0.0,0.0,0.0,0.0,0.0,0.0,0.0,0.0,0.0,0.0,0.0,0.0,0.0,0.0,0.0,0.0,0.0,0.0,0.0,0.0,0.0,0.0,0.0,0.0,0.0,0.0,0.0,0.0,0.0,0.0,0.0,0.0,0.0,0.0,0.0,0.0,0.0,0.0,0.0,0.0,0.0,0.0,0.0,0.0,0.0,0.0,0.0,0.0,0.0,0.0,0.0,0.0,0.0,0.0,0.0,0.0,0.0,0.0,0.0,0.0,0.0,0.0,0.0,0.0,0.0,0.0,0.0,0.0,0.0,0.0,0.0,0.0,0.0,0.0,0.0,0.0,0.0,0.0,0.0,0.0,0.0,0.0,0.0,0.0,0.0,0.0,0.0,0.0,0.0,0.0,0.0,0.0,0.0,0.0,0.0,0.0,0.0,0.0,0.0,0.0,0.0,0.0,0.0,0.0,0.0,0.0,0.0,0.0,0.0,0.0,0.0,0.0,0.0,0.0,0.0,0.0,0.0,0.0,0.0,0.0,0.0,0.0,0.0,0.0,0.0,0.0,0.0,0.0,0.0,0.0,0.0,0.0,0.0,0.0,0.0,0.0,0.0,0.0,0.0,0.0,0.0,0.0,0.0,0.0,0.0,0.0,0.0,0.0,0.0,0.0,0.0,0.0,0.0,0.0,0.0,0.0,0.0,0.0,0.0,0.0,0.0,0.0,0.0,0.0,0.0,0.0,0.0,0.0,0.0,0.0,0.0,0.0,0.0,0.0,0.0,0.0,0.0,0.0,0.0,0.0,0.0,0.0,0.0,0.0,0.0,0.0,0.0,0.0,0.0,0.0,0.0,0.0,0.0,0.0,0.0,0.0,0.0,0.0,0.0,0.0,0.0,0.0,0.0,0.0,0.0,0.0,0.0,0.0,0.0,0.0,0.0,0.0,0.0,0.0,0.0,0.0,0.0,0.0,0.0,0.0,0.0,0.0,0.0,0.0,0.0,0.0,0.0,0.0,0.0,0.0,0.0,0.0,0.0,0.0,0.0,0.0,0.0,0.0,0.0,0.0,0.0,0.0,0.0,0.0,0.0,0.0,0.0,0.0,0.0,0.0,0.0,0.0,0.0,0.0,0.0,0.0,0.0,0.0,0.0,0.0,0.0,0.0,0.0,0.0,0.0,0.0,0.0,0.0,0.0,0.0,0.0,3.2338,0.0,0.0,0.0,0.0,0.0,0.0,0.0,0.0,0.0,0.0,0.0,0.0,0.0,0.0,0.0,0.0,0.0,0.0,0.0,0.0,0.0,0.0,0.0,0.0,1.2351,1.2512,1.2563,1.2902,1.3119,1.317,0.0,0.0,0.0,0.0,0.0,1.3882,1.4133,1.4999,1.6564,1.682,1.7903,1.972,1.9167,1.835,1.7364,0.0,0.0,0.0,0.0,0.0,0.0,0.0,0.0,0.0,0.0,0.0,0.0,0.0,0.0,0.0,0.0,0.0,0.0,0.0,0.0,0.0,0.0,0.0,0.0,0.0,0.0,0.0,0.0,0.0,0.0,0.0,0.0,0.0,0.0,0.0,0.0,0.0,0.0,0.0,0.0,0.0,0.0,0.0,0.0,0.0,0.0,0.0,0.0,0.0,0.0,0.0,0.0,0.0,0.0,0.0,0.0,0.0,0.0,0.0,0.0,0.0,0.0,0.0,0.0,0.0,0.0,0.0,0.0,0.0,0.0,0.0,3.4922,0.0,0.0,0.0,0.0,0.0,0.0,0.0,0.0,0.0,0.0,0.0,0.0,0.0,0.0,0.0,0.0,0.0,0.0,0.0,0.0,0.0,1.1325,1.2135,1.2573,1.2987,1.3294,1.3541,1.3784,1.4022,0.0,0.0,0.0,0.0,1.4281,1.4756,1.5049,1.617,1.8121,1.8779,2.0076,2.1957,2.2486,0.0,0.0,1.972,0.0,0.0,0.0,0.0,0.0,0.0,0.0,0.0,0.0,0.0,0.0,0.0,0.0,0.0,0.0,0.0,0.0,0.0,0.0,0.0,0.0,0.0,0.0,0.0,0.0,0.0,0.0,0.0,0.0,0.0,0.0,0.0,0.0,0.0,0.0,0.0,0.0,0.0,0.0,0.0,0.0,0.0,0.0,0.0,0.0,0.0,0.0,0.0,0.0,0.0,0.0,0.0,0.0,0.0,0.0,0.0,0.0,0.0,0.0,0.0,0.0,0.0,0.0,4.1279,4.2005,4.3079,4.3079,4.3369,4.3689,4.1018,3.9799,3.9538,0.0,0.0,0.0,0.0,0.0,0.0,0.0,0.0,0.0,0.0,0.0,0.0,0.0,0.0,0.0,0.0,0.0,0.0,0.0,0.0,1.17,1.2558,1.2687,1.3072,1.3961,1.3827,1.3898,1.4446,0.0,0.0,0.0,1.3961,1.4014,1.4194,1.5605,1.6994,1.8191,2.1424,2.3406,2.4121,0.0,0.0,0.0,2.2582,2.174,0.0,0.0,0.0,0.0,0.0,0.0,0.0,0.0,0.0,0.0,0.0,0.0,0.0,0.0,0.0,0.0,0.0,0.0,0.0,0.0,0.0,0.0,0.0,0.0,0.0,0.0,0.0,0.0,0.0,0.0,0.0,0.0,0.0,0.0,0.0,0.0,0.0,0.0,0.0,0.0,0.0,0.0,2.4843,2.5588,0.0,0.0,0.0,0.0,0.0,0.0,0.0,0.0,0.0,0.0,0.0,0.0,0.0,0.0,4.057,4.2539,4.3689,4.3949,4.5892,4.6853,4.7027,4.7027,4.7085,4.7114,4.6708,0.0,4.1657,4.0728,0.0,0.0,0.0,0.0,0.0,0.0,0.0,0.0,0.0,0.0,0.0,0.0,0.0,0.0,0.0,0.0,0.0,0.0,0.0,0.0,0.0,1.3386,1.4166,1.494,1.5632,1.5927,0.0,0.0,0.0,1.4714,1.4751,1.4904,1.5215,1.6618,1.8649,2.127,2.4471,2.6117,0.0,0.0,0.0,0.0,0.0,0.0,0.0,0.0,0.0,0.0,0.0,0.0,0.0,0.0,0.0,0.0,0.0,0.0,0.0,0.0,0.0,0.0,0.0,0.0,0.0,0.0,0.0,0.0,0.0,0.0,0.0,0.0,0.0,0.0,0.0,0.0,0.0,0.0,0.0,0.0,0.0,0.0,0.0,0.0,0.0,0.0,0.0,2.4819,2.72,2.7416,2.7705,2.7464,0.0,0.0,0.0,0.0,0.0,0.0,0.0,0.0,0.0,4.1564,4.2162,4.3275,4.5081,4.6252,4.7215,4.7683,4.8488,4.9092,4.9437,4.9635,4.9733,4.9733,4.9832,4.8798,4.6708,4.3892,4.1686,3.9857,0.0,0.0,0.0,0.0,3.7535,3.8231,0.0,0.0,0.0,0.0,0.0,0.0,0.0,0.0,0.0,0.0,0.0,0.0,1.2998,1.4203,1.5317,1.6065,0.0,0.0,0.0,0.0,0.0,1.5448,1.5371,1.5566,1.6115,1.7905,2.0643,0.0,0.0,0.0,0.0,0.0,0.0,0.0,0.0,0.0,0.0,0.0,0.0,0.0,0.0,0.0,0.0,0.0,0.0,0.0,0.0,0.0,0.0,0.0,0.0,0.0,0.0,0.0,0.0,0.0,0.0,0.0,0.0,0.0,0.0,0.0,0.0,0.0,0.0,0.0,0.0,0.0,0.0,0.0,0.0,0.0,0.0,0.0,0.0,0.0,0.0,2.7224,2.9268,2.9124,2.9941,2.9845,0.0,0.0,0.0,0.0,0.0,0.0,3.691,3.8083,4.0414,4.4316,4.5352,4.6724,4.8482,4.8966,4.9522,5.0284,5.008,5.0338,5.0898,5.1104,5.1206,5.1308,5.1512,5.1352,5.0627,4.6795,4.4705,4.3747,4.1541,4.0844,4.1105,4.1279,4.1424,4.1889,0.0,0.0,0.0,0.0,0.0,0.0,0.0,0.0,0.0,0.0,0.0,1.314,0.0,0.0,0.0,0.0,0.0,0.0,0.0,0.0,0.0,1.6035,1.5545,1.5467,1.6115,1.9724,0.0,0.0,0.0,0.0,0.0,0.0,0.0,0.0,0.0,0.0,0.0,0.0,0.0,0.0,0.0,0.0,0.0,0.0,0.0,0.0,0.0,0.0,0.0,0.0,0.0,0.0,0.0,0.0,0.0,0.0,0.0,0.0,0.0,0.0,0.0,0.0,0.0,0.0,0.0,0.0,0.0,0.0,0.0,0.0,0.0,0.0,0.0,0.0,0.0,0.0,0.0,0.0,0.0,3.0807,3.2563,0.0,0.0,0.0,0.0,3.3044,3.5322,3.7515,3.9372,4.1881,4.4401,4.6916,4.8132,4.9145,4.9925,5.0162,5.0294,5.0427,5.0663,5.0869,5.1177,5.1177,5.1308,5.1614,5.1614,5.1585,5.141,4.9349,4.7753,4.6505,4.514,4.4269,4.3863,4.4443,4.5053,4.5692,0.0,0.0,0.0,0.9243,0.983,1.0441,1.0846,1.1269,1.1627,1.208,1.2809,0.0,0.0,0.0,0.0,0.0,0.0,0.0,0.0,0.0,0.0,1.7494,1.6941,1.7599,1.9687,2.2616,0.0,0.0,0.0,0.0,0.0,0.0,0.0,0.0,0.0,0.0,0.0,0.0,0.0,0.0,0.0,0.0,0.0,0.0,0.0,0.0,0.0,0.0,0.0,0.0,0.0,0.0,0.0,0.0,0.0,0.0,0.0,0.0,0.0,0.0,0.0,0.0,0.0,0.0,0.0,0.0,0.0,0.0,0.0,0.0,0.0,0.0,0.0,0.0,0.0,0.0,0.0,0.0,0.0,3.3428,3.4992,0.0,0.0,3.4871,3.5954,3.629,3.8097,4.05,4.3269,4.4387,4.6302,4.9491,5.0001,5.0629,5.1463,5.1355,5.1355,5.1569,5.1463,5.1463,5.1569,5.1783,5.1995,5.2311,5.2549,5.2625,5.2746,5.1643,5.0452,4.9175,4.7869,4.723,4.6998,4.6824,4.6911,4.7143,0.0,0.8561,0.0,0.8984,0.9813,1.0606,1.0864,1.138,1.1932,1.2517,1.3455,0.0,0.0,0.0,0.0,0.0,0.0,0.0,0.0,0.0,1.793,1.8402,1.8173,1.9373,2.2268,0.0,0.0,0.0,0.0,0.0,0.0,0.0,0.0,0.0,0.0,0.0,0.0,0.0,0.0,0.0,0.0,0.0,2.3087,0.0,0.0,0.0,0.0,0.0,0.0,0.0,0.0,0.0,0.0,0.0,0.0,0.0,0.0,0.0,0.0,0.0,0.0,0.0,0.0,0.0,0.0,0.0,0.0,0.0,0.0,0.0,0.0,0.0,0.0,0.0,0.0,0.0,0.0,0.0,3.5352,3.5352,3.7084,3.7637,3.605,3.7661,3.896,3.9296,4.0475,4.2225,4.4814,4.55,4.7152,5.0188,5.0685,5.1347,5.2315,5.2008,5.1896,5.2004,5.1896,5.1896,5.1896,5.2113,5.2358,5.268,5.2894,5.3107,5.329,5.2961,5.2294,5.1497,5.0191,4.9698,4.964,4.9001,4.8769,4.8682,0.8193,0.8275,0.8439,0.8886,1.0027,1.0857,1.0857,1.1553,1.2411,1.3437,0.0,0.0,0.0,0.0,0.0,0.0,0.0,0.0,0.0,1.8904,1.846,1.8621,1.916,2.0651,2.3346,0.0,0.0,0.0,0.0,0.0,0.0,0.0,0.0,0.0,0.0,0.0,0.0,0.0,0.0,0.0,0.0,0.0,2.6671,0.0,0.0,0.0,0.0,0.0,0.0,0.0,0.0,0.0,0.0,0.0,0.0,0.0,0.0,0.0,0.0,0.0,0.0,0.0,0.0,0.0,0.0,0.0,0.0,0.0,0.0,0.0,0.0,0.0,0.0,0.0,0.0,0.0,3.338,3.5208,3.6531,3.6555,3.8864,3.985,3.8286,4.0499,4.2014,4.2038,4.2543,4.3048,4.3553,4.5253,4.7103,4.9075,5.0131,5.1422,5.2742,5.2152,5.1843,5.1843,5.1843,5.1952,5.2306,5.2306,5.2414,5.2737,5.2737,5.2844,5.3164,5.3164,5.3242,5.3384,5.2136,5.1643,5.1585,5.0917,5.0656,5.0481,0.7391,0.7641,0.7972,0.8439,0.9234,0.9893,1.0211,1.0963,1.185,0.0,0.0,0.0,0.0,0.0,0.0,0.0,0.0,0.0,2.014,0.0,1.899,2.0,2.1477,0.0,0.0,0.0,0.0,0.0,0.0,0.0,0.0,0.0,0.0,0.0,0.0,0.0,0.0,0.0,0.0,0.0,0.0,0.0,2.7344,0.0,0.0,0.0,0.0,0.0,0.0,0.0,0.0,0.0,0.0,0.0,0.0,0.0,0.0,0.0,0.0,0.0,0.0,0.0,0.0,0.0,0.0,0.0,0.0,0.0,0.0,0.0,0.0,0.0,0.0,0.0,0.0,3.5545,3.5545,3.7709,3.9441,3.9826,4.1196,4.1942,4.1485,4.2447,4.3265,4.3673,4.4178,4.5057,4.6539,4.7084,4.8435,5.0891,5.1242,5.2081,5.3388,5.3248,5.3164,5.3164,5.3164,5.3275,5.3275,5.3275,5.3498,5.372,5.372,5.3575,5.3474,5.3474,5.3296,5.3126,5.2526,5.231,5.2165,5.1091,5.0365,4.9959,0.707,0.7391,0.7893,0.8506,0.9024,0.9576,1.0187,1.0874,1.1748,0.0,0.0,0.0,0.0,0.0,0.0,0.0,0.0,0.0,1.9735,1.9445,1.9946,0.0,0.0,0.0,0.0,0.0,0.0,0.0,0.0,0.0,0.0,0.0,0.0,0.0,0.0,0.0,0.0,0.0,0.0,0.0,0.0,0.0,2.8931,2.7849,2.6791,2.5805,2.5276,2.4458,2.3616,2.3616,0.0,0.0,0.0,0.0,0.0,0.0,0.0,0.0,0.0,0.0,0.0,0.0,0.0,0.0,0.0,0.0,0.0,0.0,0.0,0.0,0.0,0.0,0.0,0.0,3.6507,3.8238,3.8671,3.9874,4.1004,4.1749,4.2567,4.3168,4.3409,4.389,4.4419,4.4972,4.5285,4.5827,4.7006,4.7227,4.8334,5.0401,5.0401,5.1362,5.3204,5.2955,5.3187,5.3669,5.3669,5.3669,5.3669,5.3669,5.3782,0.0,5.3895,5.3921,5.3774,5.3518,5.3394,0.0,0.0,0.0,0.0,0.0,5.1062,5.0511,0.7068,0.7433,0.7972,0.8794,0.914,0.9565,1.0395,1.0863,1.1661,0.0,0.0,0.0,0.0,0.0,0.0,0.0,0.0,0.0,0.0,0.0,0.0,0.0,0.0,0.0,0.0,0.0,0.0,0.0,0.0,0.0,0.0,0.0,0.0,0.0,0.0,0.0,0.0,0.0,0.0,0.0,0.0,0.0,3.0855,2.9869,2.8859,2.7921,2.7392,2.6286,2.5059,2.4987,0.0,0.0,0.0,0.0,0.0,0.0,0.0,0.0,0.0,0.0,0.0,0.0,0.0,0.0,0.0,0.0,0.0,0.0,0.0,0.0,0.0,0.0,0.0,0.0,3.9224,4.0932,4.199,4.1749,4.1798,4.2735,4.3337,4.389,4.4395,4.4924,4.5453,4.5982,4.6006,4.6054,4.6102,0.0,0.0,0.0,0.0,5.0017,5.2723,5.2181,5.2547,5.3866,5.3866,5.3866,5.3866,5.3866,5.3866,5.3866,5.3866,5.3951,5.4092,5.3527,5.3518,5.3863,5.3366,5.3184,5.325,5.2758,5.2121,5.1454,0.7419,0.7666,0.8041,0.8575,0.8613,0.8743,0.923,0.9663,1.0592,1.2488,0.0,0.0,0.0,0.0,0.0,0.0,0.0,0.0,0.0,0.0,0.0,0.0,0.0,0.0,0.0,0.0,0.0,0.0,0.0,0.0,0.0,0.0,0.0,0.0,0.0,0.0,0.0,0.0,0.0,0.0,0.0,0.0,3.1456,3.0807,3.0182,2.9556,2.9027,2.8643,2.8306,2.7873,2.7103,2.6238,2.5661,0.0,0.0,0.0,0.0,0.0,0.0,0.0,0.0,0.0,0.0,0.0,0.0,0.0,0.0,0.0,0.0,0.0,0.0,0.0,0.0,3.8912,4.0571,4.2038,4.3072,4.312,4.3144,4.3337,4.4227,4.4876,4.4972,4.5453,4.5982,4.6511,4.6559,4.6752,4.7161,4.7305,0.0,4.9339,4.9339,5.0584,5.332,5.3212,5.3782,5.5159,0.0,0.0,5.5159,5.5159,5.5159,5.5159,5.5159,5.4878,5.4514,5.4402,5.3979,5.3347,5.3152,5.2684,5.2072,5.2579,5.1976,5.0984,0.7943,0.7923,0.8119,0.8786,0.8616,0.8618,0.9199,0.946,1.0105,1.15,1.2974,0.0,0.0,0.0,0.0,0.0,0.0,0.0,0.0,0.0,0.0,0.0,0.0,0.0,0.0,0.0,0.0,0.0,0.0,0.0,0.0,0.0,0.0,0.0,0.0,0.0,0.0,0.0,0.0,0.0,0.0,0.0,3.314,3.2082,3.136,3.0807,3.0278,2.9917,2.9653,2.9388,2.8763,2.8065,2.7801,2.6622,2.5131,0.0,0.0,0.0,0.0,0.0,0.0,0.0,0.0,0.0,0.0,0.0,0.0,0.0,0.0,3.5184,0.0,0.0,3.9922,4.1004,4.2062,4.3024,4.3818,4.3938,4.3938,4.3938,4.4635,4.5237,4.5501,4.6006,4.6535,4.7064,4.7112,4.7233,4.7497,4.7497,4.7738,4.8502,4.8502,4.9515,5.1492,5.1492,5.2139,5.351,5.4139,5.4497,5.4497,5.5261,5.5496,5.5496,5.5496,5.5327,5.5018,5.4824,5.429,5.3415,5.3547,5.3052,5.2252,5.2566,5.228,5.1737,0.831,0.823,0.8323,0.8991,0.8747,0.869,0.9325,0.9458,0.9766,1.0669,1.1849,1.2772,1.3157,1.4056,0.0,0.0,0.0,0.0,0.0,0.0,0.0,0.0,0.0,0.0,0.0,0.0,0.0,0.0,0.0,0.0,0.0,0.0,0.0,0.0,0.0,0.0,0.0,0.0,0.0,0.0,0.0,0.0,3.4823,3.3477,3.2491,3.1745,3.1216,3.0615,3.0062,2.9965,2.9581,2.9148,2.9148,2.8186,2.6887,2.5925,2.5252,0.0,0.0,0.0,0.0,0.0,0.0,0.0,0.0,0.0,3.338,3.5088,3.6867,3.8431,3.9417,4.0787,4.211,4.3072,4.3649,4.4106,4.4443,4.4491,4.4467,4.4371,4.49,4.5453,4.5886,4.6487,4.704,4.7473,4.7497,4.7545,4.7642,4.7666,4.769,4.781,4.781,4.8377,4.9665,4.9665,5.0359,5.1865,5.2998,5.3631,5.3872,5.4998,5.5496,5.5496,5.5496,5.5496,5.5468,5.5193,5.4629,5.3838,5.4093,5.361,5.2915,5.2801,5.2744,5.2658,0.831,0.855,0.8724,0.8803,0.8817,0.8764,0.8857,0.891,0.9231,1.0151,1.0699,1.1226,1.1744,1.2636,0.0,0.0,0.0,0.0,0.0,0.0,0.0,0.0,0.0,0.0,0.0,0.0,0.0,0.0,0.0,0.0,0.0,0.0,0.0,0.0,0.0,0.0,0.0,0.0,0.0,0.0,0.0,0.0,3.5449,3.4823,3.3669,3.2322,3.1769,3.0927,3.0013,2.9532,2.9027,2.8595,2.8595,2.8162,2.7512,2.6935,0.0,2.6117,2.7031,2.8787,0.0,3.1072,3.2034,3.3837,0.0,0.0,3.7853,3.9946,4.0932,4.1629,4.2206,4.3241,4.4178,4.478,4.5309,4.5501,4.5116,4.5044,4.4876,4.4395,4.5237,4.5862,4.591,4.6824,4.7449,4.7497,4.7497,4.7714,4.8171,4.8195,4.8411,4.8892,4.8892,4.9328,5.0243,5.0243,5.1254,5.3241,5.3362,5.4112,5.5261,5.5379,5.5496,5.5496,5.5496,5.5496,5.5496,5.544,5.5046,5.4484,5.4484,5.4177,5.3501,5.2938,5.2712,5.2628,0.8537,0.8724,0.8804,0.8804,0.8804,0.8804,0.8804,0.8804,0.9018,0.9562,1.0103,1.0472,1.0508,1.1285,1.2693,0.0,0.0,0.0,0.0,0.0,0.0,0.0,0.0,0.0,0.0,0.0,0.0,0.0,0.0,0.0,0.0,0.0,0.0,0.0,0.0,0.0,0.0,0.0,0.0,0.0,0.0,0.0,3.5954,3.4507,3.3196,3.2213,3.1687,3.1017,0.0,0.0,2.9248,2.8793,2.8979,2.8402,2.7603,2.7287,2.7639,0.0,3.0954,0.0,0.0,0.0,3.593,3.7421,3.92,3.9729,4.0282,4.1798,4.2519,4.3024,4.3577,4.4299,4.4876,0.0,4.5573,4.5838,4.5621,4.5333,4.4948,4.4419,4.502,4.5597,4.5886,4.6607,4.7161,4.7473,4.7786,4.805,4.8291,4.8579,4.8844,4.906,4.9084,4.9237,4.9646,4.9646,5.0057,5.0966,5.1743,5.2892,5.4144,5.491,5.5622,5.603,5.603,5.5833,5.5496,5.5496,5.5355,5.5102,5.5102,5.4962,5.4625,5.3641,5.3023,5.2658,0.8684,0.8804,0.8804,0.8804,0.8804,0.8804,0.8804,0.8804,0.8884,0.9044,0.9533,0.9769,0.9583,1.0477,1.1753,1.3424,1.5615,1.7623,0.0,0.0,0.0,0.0,0.0,0.0,0.0,0.0,0.0,0.0,0.0,0.0,0.0,0.0,0.0,0.0,0.0,0.0,0.0,0.0,0.0,0.0,0.0,0.0,3.5633,3.3929,3.2629,3.1513,3.1134,3.0494,0.0,0.0,2.8668,2.8488,2.845,2.8148,2.7806,2.8051,2.9403,3.1158,3.3244,0.0,0.0,3.7132,3.8839,4.0306,4.0451,4.1172,4.2086,4.3,4.3481,4.3914,4.4467,4.4876,0.0,4.5525,4.5886,4.6102,4.5958,4.5477,4.4948,4.4419,4.4539,4.4948,4.5645,4.6319,4.6944,4.7473,4.8002,4.8363,4.8507,4.9012,4.9373,4.9517,4.9517,4.9445,4.9301,4.9301,4.9479,4.9718,5.0638,5.1783,5.3217,5.462,5.5676,5.6676,5.6676,5.6339,5.5749,5.5749,5.5664,5.5496,5.5496,5.5496,5.5383,5.4512,5.3754,5.3192,0.8684,0.8804,0.8804,0.8804,0.8804,0.8804,0.8804,0.8804,0.8804,0.8818,0.8818,0.8925,0.9163,1.0349,1.1387,1.2084,1.4821,1.7041,1.8169,2.0422,0.0,0.0,0.0,0.0,0.0,0.0,0.0,0.0,0.0,0.0,0.0,0.0,0.0,0.0,0.0,0.0,0.0,0.0,0.0,0.0,0.0,0.0,3.4162,3.3476,3.1995,3.0296,3.0272,0.0,0.0,0.0,2.6806,2.7113,2.6541,2.7058,0.0,2.9558,3.1639,0.0,0.0,0.0,3.7902,3.795,3.9946,4.2038,4.2543,4.3072,4.3601,4.4178,4.4323,4.4491,4.502,4.5116,4.5477,4.6487,4.668,4.6511,4.6006,4.5477,4.4948,4.4419,4.389,4.3986,0.0,4.6102,4.6944,4.7473,4.8002,4.8507,4.9036,4.9565,5.0095,5.0648,5.0648,5.0383,4.9854,4.9854,5.0255,5.1014,5.1014,5.1783,5.3217,5.4493,5.6046,5.735,5.735,5.6985,5.6395,5.6395,5.603,5.5496,5.5496,5.5496,5.5496,5.5468,5.5046,5.4456,0.8738,0.8804,0.8804,0.8804,0.8804,0.8804,0.8804,0.8804,0.8871,0.9017,0.9272,0.0,0.0,0.0,0.0,0.0,1.3708,1.5511,1.7346,1.9428,0.0,0.0,0.0,0.0,0.0,0.0,0.0,0.0,0.0,0.0,0.0,0.0,0.0,0.0,0.0,0.0,0.0,0.0,0.0,0.0,0.0,0.0,3.3164,3.0998,2.984,2.9253,0.0,0.0,0.0,0.0,0.0,0.0,2.6752,0.0,0.0,2.9666,0.0,0.0,0.0,0.0,3.9148,4.0787,4.2086,4.3144,4.3697,4.3938,4.401,4.3842,4.3529,4.3241,4.3072,4.3313,4.3914,4.4972,4.5742,4.6367,4.6896,4.6511,4.5862,4.4972,4.502,0.0,0.0,0.0,0.0,4.692,4.7786,4.8507,4.9036,4.9926,5.0503,5.0696,5.0696,5.06,5.0431,5.0431,5.0591,5.0815,5.1731,5.2497,5.2902,5.4341,5.5043,5.5082,5.5082,5.4761,5.4298,5.4815,5.4907,5.4809,5.5283,5.5496,5.5496,5.5496,5.5383,5.5102,0.8751,0.8804,0.8804,0.8804,0.8804,0.0,0.0,0.0,0.0,0.0,0.0,0.0,0.0,0.0,0.0,0.0,0.0,1.4279,1.5938,0.0,0.0,0.0,0.0,0.0,0.0,0.0,0.0,0.0,0.0,0.0,0.0,0.0,0.0,0.0,0.0,0.0,0.0,0.0,0.0,0.0,0.0,0.0,3.0721,2.8515,2.7457,0.0,0.0,0.0,0.0,0.0,0.0,0.0,0.0,0.0,0.0,0.0,0.0,3.3738,0.0,3.909,4.031,4.2592,4.3477,4.4007,4.4175,4.4202,4.389,4.3361,4.2687,4.2086,4.1749,4.1822,4.2447,4.4082,4.4924,4.5862,4.7305,4.6896,4.6319,4.6006,4.5958,4.5934,0.0,0.0,0.0,4.6944,4.8147,4.8916,4.906,5.0119,5.0696,5.0696,5.0696,5.0696,5.0696,5.0696,5.0696,5.0696,5.1632,5.2253,5.2779,5.3708,5.4174,5.4367,5.4367,5.4053,5.3478,5.4007,5.4396,5.465,5.4929,5.5333,5.5805,5.558,5.5496,5.544,0.8751,0.8804,0.8804,0.0,0.0,0.0,0.0,0.0,0.0,0.0,0.0,0.0,0.0,0.0,0.0,0.0,0.0,0.0,0.0,0.0,0.0,0.0,0.0,0.0,0.0,2.1915,0.0,0.0,0.0,0.0,0.0,0.0,0.0,0.0,0.0,0.0,0.0,0.0,0.0,0.0,0.0,0.0,2.7034,2.6185,0.0,0.0,0.0,0.0,0.0,0.0,0.0,0.0,0.0,0.0,0.0,0.0,0.0,3.6503,3.8547,4.0012,4.1539,4.3393,4.4278,4.4492,4.4319,4.3866,4.3313,4.2711,4.1749,4.098,0.0,0.0,4.1124,4.3721,4.4251,4.5092,4.7233,4.668,4.6415,0.0,0.0,0.0,0.0,0.0,0.0,4.7569,0.0,4.9614,4.9133,5.0119,5.0696,5.0696,5.0696,5.0696,5.0696,5.0696,5.0696,5.0696,5.0696,5.1352,5.2666,5.2666,5.3462,5.4649,5.4649,5.4337,5.3843,5.3817,5.4387,5.4997,5.4526,5.5166,5.622,5.5631,5.5524,5.5496,0.0,0.0,0.0,0.0,0.0,0.0,0.0,0.0,0.0,0.0,0.0,0.0,0.0,0.0,0.0,0.0,0.0,0.0,0.0,0.0,0.0,0.0,0.0,0.0,0.0,0.0,0.0,0.0,0.0,0.0,0.0,0.0,0.0,0.0,0.0,0.0,0.0,0.0,0.0,0.0,0.0,0.0,2.5535,0.0,0.0,0.0,0.0,0.0,0.0,0.0,0.0,0.0,0.0,0.0,3.2604,0.0,0.0,3.7768,4.015,4.173,4.3042,4.3843,4.4286,4.4397,4.3569,4.3216,4.2471,4.0763,3.9537,3.831,3.6747,0.0,0.0,4.11,4.3072,0.0,4.7738,4.7858,0.0,0.0,0.0,4.8219,4.8098,4.8796,0.0,0.0,4.906,4.9397,4.9662,5.0335,5.0696,5.0696,5.0696,5.0696,5.0696,5.0696,5.0696,5.0696,5.0696,5.0837,5.1236,5.1236,5.1492,5.1771,5.1771,5.1673,5.1664,5.2151,5.2546,5.2873,5.4367,5.4909,5.4868,5.4731,5.5003,5.5379,0.0,0.0,0.0,0.0,0.0,0.0,0.0,0.0,0.0,0.0,0.0,0.0,0.0,0.0,0.0,0.0,0.0,0.0,0.0,0.0,0.0,0.0,0.0,0.0,0.0,0.0,0.0,0.0,0.0,0.0,0.0,0.0,0.0,0.0,0.0,0.0,0.0,0.0,0.0,0.0,0.0,0.0,0.0,0.0,0.0,0.0,0.0,0.0,0.0,0.0,0.0,3.1042,3.203,3.3155,3.4555,3.6576,0.0,3.9561,4.183,4.317,4.4086,4.4137,4.429,4.386,4.2018,4.1375,4.0506,3.7833,3.6637,0.0,0.0,0.0,0.0,0.0,0.0,0.0,4.7858,4.8291,4.8555,0.0,4.9397,0.0,4.9349,4.9878,5.0119,0.0,4.9782,4.9806,4.9878,5.0407,5.0696,5.0696,5.0696,5.0696,5.0696,5.0696,5.0696,5.0696,5.0696,5.0696,5.0696,5.0696,5.0696,5.0696,0.0,5.0696,5.0672,5.115,5.1693,5.2412,5.3425,5.3915,5.4107,5.3966,5.3885,5.4012,0.0,0.0,0.0,0.0,0.0,0.0,0.0,0.0,0.0,0.0,0.0,0.0,0.0,0.0,0.0,0.0,0.0,0.0,0.0,0.0,0.0,0.0,0.0,0.0,0.0,0.0,0.0,0.0,0.0,0.0,0.0,0.0,0.0,0.0,0.0,0.0,0.0,0.0,0.0,0.0,0.0,0.0,0.0,0.0,0.0,0.0,0.0,0.0,0.0,0.0,3.0251,3.2604,3.4119,3.5566,3.7081,3.9101,4.0387,4.1535,4.3418,4.4313,4.4566,4.4364,4.4067,4.3107,4.0176,3.9131,3.7929,3.4686,0.0,0.0,3.2459,0.0,3.5641,3.8767,0.0,4.389,4.7762,4.8291,4.8892,5.0503,5.0287,5.0167,5.0648,5.0696,5.0696,5.0696,5.0696,5.0503,4.9998,5.0431,5.0696,5.0696,5.0696,5.0696,5.0696,5.0696,5.0696,5.0696,5.0696,5.0696,5.0696,5.0696,5.0696,5.0696,0.0,0.0,5.0696,5.0696,5.1492,5.2479,5.2141,5.2699,5.3607,5.3114,5.2698,5.2331,0.0,0.0,0.0,0.0,0.0,0.0,0.0,0.0,0.0,0.0,0.0,0.0,0.0,0.0,0.0,0.0,0.0,0.0,0.0,0.0,0.0,0.0,0.0,0.0,0.0,0.0,0.0,0.0,0.0,0.0,0.0,0.0,0.0,0.0,0.0,0.0,0.0,0.0,0.0,0.0,0.0,0.0,0.0,0.0,0.0,0.0,0.0,0.0,0.0,0.0,3.251,3.5749,3.7311,3.8252,3.917,4.1214,4.2224,4.2959,4.4153,4.4841,4.5002,4.4193,4.3378,4.2389,3.9709,3.7973,0.0,0.0,0.0,3.1294,2.9891,0.0,0.0,3.7156,0.0,0.0,0.0,0.0,4.8892,0.0,0.0,0.0,0.0,0.0,0.0,0.0,0.0,0.0,5.0576,5.0648,5.0696,5.0696,5.0696,5.0696,5.0696,5.0696,5.0696,5.0696,5.0696,5.0696,5.0696,5.0696,5.0696,5.0696,5.0696,0.0,5.0696,5.0696,5.0837,5.1211,5.2153,5.2488,5.222,5.2253,5.251,5.275,0.0,0.0,0.0,0.0,0.0,0.0,0.0,0.0,0.0,0.0,0.0,0.0,0.0,0.0,0.0,0.0,0.0,0.0,0.0,0.0,0.0,0.0,0.0,0.0,0.0,0.0,0.0,0.0,0.0,0.0,0.0,0.0,0.0,0.0,0.0,0.0,0.0,0.0,0.0,0.0,0.0,0.0,0.0,0.0,0.0,0.0,0.0,0.0,0.0,0.0,3.1673,3.5451,3.7517,3.8688,3.9652,4.142,4.2477,4.3303,4.4336,4.4773,4.4727,4.3693,4.2731,4.108,3.7211,0.0,0.0,0.0,0.0,2.9456,2.8586,0.0,0.0,0.0,0.0,0.0,0.0,0.0,0.0,0.0,0.0,0.0,0.0,0.0,0.0,0.0,0.0,0.0,5.0696,5.0696,5.0696,5.0696,5.0696,5.0696,5.0696,5.0696,5.0696,5.0696,5.0696,5.0696,5.0696,5.0696,5.0696,5.0696,5.0696,0.0,5.0696,5.0696,5.0696,5.0696,5.1492,5.1599,5.1239,5.1353,5.1396,5.128,0.0,0.0,0.0,0.0,0.0,0.0,0.0,0.0,0.0,0.0,0.0,0.0,0.0,0.0,0.0,0.0,0.0,0.0,0.0,0.0,0.0,0.0,0.0,0.0,0.0,0.0,0.0,0.0,0.0,0.0,0.0,0.0,0.0,0.0,0.0,0.0,0.0,0.0,0.0,0.0,0.0,0.0,0.0,0.0,0.0,0.0,0.0,0.0,0.0,0.0,2.9601,3.2904,3.5426,3.7519,3.9285,4.08,4.1971,4.3005,4.413,4.4428,4.4222,4.3303,4.2108,3.987,3.5258,3.3723,0.0,0.0,0.0,0.0,2.787,0.0,0.0,0.0,0.0,0.0,0.0,0.0,0.0,0.0,0.0,0.0,0.0,0.0,0.0,0.0,0.0,0.0,5.0696,5.0696,5.0696,5.0696,5.0696,5.0696,5.0696,5.0696,5.0696,5.0696,5.0696,5.0696,5.0696,5.0696,5.0696,5.0696,5.0696,0.0,0.0,5.0696,5.0696,5.0696,5.0696,5.0696,5.0696,5.0696,5.0431,5.0022,0.0,0.0,0.0,0.0,0.0,0.0,0.0,0.0,0.0,0.0,0.0,0.0,0.0,0.0,0.0,0.0,0.0,0.0,0.0,0.0,0.0,0.0,0.0,0.0,0.0,0.0,0.0,0.0,0.0,0.0,0.0,0.0,0.0,0.0,0.0,0.0,0.0,0.0,0.0,0.0,0.0,0.0,0.0,0.0,0.0,0.0,0.0,0.0,0.0,0.0,0.0,2.7798,3.0307,3.4245,3.8229,3.9744,0.0,0.0,4.3487,4.3877,4.3762,4.3211,4.1604,3.9288,3.5543,0.0,0.0,0.0,2.7741,2.758,2.7534,0.0,0.0,0.0,0.0,0.0,0.0,0.0,0.0,0.0,0.0,0.0,0.0,0.0,0.0,0.0,0.0,0.0,0.0,5.0696,5.0696,5.0696,5.0696,5.0696,5.0696,5.0696,5.0696,5.0696,5.0696,5.0696,5.0696,5.0696,5.0696,5.0696,5.0696,0.0,0.0,5.0696,5.0696,5.0696,5.0696,5.0696,5.0696,5.0696,5.0672,5.0551,0.0,0.0,0.0,0.0,0.0,0.0,0.0,0.0,0.0,0.0,0.0,0.0,0.0,0.0,0.0,0.0,0.0,0.0,0.0,0.0,0.0,0.0,0.0,0.0,0.0,0.0,0.0,0.0,0.0,0.0,0.0,0.0,0.0,0.0,0.0,0.0,0.0,0.0,0.0,0.0,0.0,0.0,0.0,0.0,0.0,0.0,0.0,0.0,0.0,0.0,0.0,0.0,2.8061,3.0585,0.0,0.0,3.8918,4.0915,4.2132,4.2913,4.3188,4.2385,4.0663,3.8252,3.4693,0.0,0.0,2.8057,2.7451,2.7371,2.751,2.7859,2.9046,0.0,3.2602,0.0,0.0,0.0,0.0,0.0,0.0,0.0,0.0,0.0,0.0,0.0,0.0,0.0,0.0,5.0888,5.0696,5.0696,5.0696,5.0696,5.0696,5.0696,5.0696,5.0696,5.0696,5.0696,5.0696,5.0696,5.0696,5.0696,5.0696,0.0,0.0,5.0696,5.0696,5.0696,5.0696,5.0696,5.0696,5.0696,5.0696,5.0672,0.0,0.0,0.0,0.0,0.0,0.0,0.0,0.0,0.0,0.0,0.0,0.0,0.0,0.0,0.0,0.0,0.0,0.0,0.0,0.0,0.0,0.0,0.0,0.0,0.0,0.0,0.0,0.0,0.0,0.0,0.0,0.0,0.0,0.0,0.0,0.0,0.0,0.0,0.0,0.0,0.0,0.0,0.0,0.0,0.0,0.0,0.0,0.0,0.0,0.0,0.0,0.0,0.0,0.0,0.0,0.0,3.6691,3.9033,4.0502,4.1535,4.2017,4.1306,3.9721,3.7425,0.0,0.0,3.0285,2.7759,2.7231,2.7231,2.7371,2.7429,2.8221,0.0,3.1074,3.296,0.0,0.0,0.0,0.0,0.0,0.0,0.0,0.0,0.0,0.0,0.0,0.0,0.0,5.1225,5.0864,5.072,5.0696,5.0696,5.0696,5.0696,5.0696,5.0696,5.0696,5.0696,5.0696,5.0696,5.0696,5.0696,0.0,0.0,0.0,5.0696,5.0696,5.0696,5.0696,5.0696,5.0696,5.0696,5.0696,5.0696,0.0,0.0,0.0,0.0,0.0,0.0,0.0,0.0,0.0,0.0,0.0,0.0,0.0,0.0,0.0,0.0,0.0,0.0,0.0,0.0,0.0,0.0,0.0,0.0,0.0,0.0,0.0,0.0,0.0,0.0,0.0,0.0,0.0,0.0,0.0,0.0,0.0,0.0,0.0,0.0,0.0,0.0,0.0,0.0,0.0,0.0,0.0,0.0,0.0,0.0,0.0,0.0,0.0,0.0,0.0,0.0,3.4372,3.6117,3.8642,3.9698,4.0089,4.0066,3.8918,3.6874,0.0,3.1731,3.0285,2.7759,2.7231,2.7231,2.7231,2.7371,2.8104,2.9926,3.1031,3.3362,0.0,0.0,0.0,0.0,0.0,0.0,0.0,0.0,0.0,0.0,0.0,0.0,0.0,5.1778,5.1249,5.072,5.0696,5.0696,5.0696,5.0696,5.0696,5.0696,5.0696,5.0696,5.0696,5.0696,5.0696,0.0,0.0,0.0,0.0,5.0696,5.0696,5.0696,5.0696,5.0696,5.0696,5.0696,5.0696,5.0696,0.0,0.0,0.0,0.0,0.0,0.0,0.0,0.0,0.0,0.0,0.0,0.0,0.0,0.0,0.0,0.0,0.0,0.0,0.0,0.0,0.0,0.0,0.0,0.0,0.0,0.0,0.0,0.0,0.0,0.0,0.0,0.0,0.0,0.0,0.0,0.0,0.0,0.0,0.0,0.0,0.0,0.0,0.0,0.0,0.0,0.0,0.0,0.0,0.0,0.0,0.0,0.0,0.0,0.0,0.0,2.7515,0.0,0.0,3.506,3.63,3.7219,3.6185,3.5313,3.405,3.1502,3.0445,2.9458,2.7598,2.7231,2.7231,2.7231,2.7231,2.8425,3.1807,3.2276,0.0,0.0,0.0,0.0,0.0,0.0,0.0,0.0,0.0,0.0,0.0,0.0,0.0,0.0,5.2668,5.2163,5.1273,5.0888,5.0696,5.0696,5.0696,5.0696,5.0696,5.0696,5.0696,5.0696,5.0696,0.0,0.0,0.0,0.0,0.0,5.0696,5.0696,5.0696,5.0696,5.0696,5.0696,5.0696,5.0696,5.0696,0.0,0.0,0.0,0.0,0.0,0.0,0.0,0.0,0.0,0.0,0.0,0.0,0.0,0.0,0.0,0.0,0.0,0.0,0.0,0.0,0.0,0.0,0.0,0.0,0.0,0.0,0.0,0.0,0.0,0.0,0.0,0.0,0.0,0.0,0.0,0.0,0.0,0.0,0.0,0.0,0.0,0.0,2.1291,0.0,0.0,0.0,0.0,0.0,0.0,0.0,0.0,0.0,0.0,0.0,0.0,0.0,2.7834,3.1389,0.0,3.3549,3.4624,3.366,3.3063,3.2213,3.0376,2.955,2.8815,2.7506,2.7231,2.7231,2.7231,2.7392,2.8526,3.1597,0.0,0.0,0.0,0.0,0.0,0.0,0.0,0.0,0.0,0.0,0.0,0.0,0.0,0.0,0.0,0.0,5.2764,5.2115,5.1393,5.0912,5.0696,5.0696,5.0696,5.0696,5.0696,5.0696,5.0696,5.0696,0.0,0.0,0.0,0.0,0.0,5.0696,5.0696,5.0696,5.0696,5.0696,5.0696,5.0696,5.0696,5.0696,0.0,0.0,0.0,0.0,0.0,0.0,0.0,0.0,0.0,0.0,0.0,0.0,0.0,0.0,0.0,0.0,0.0,0.0,0.0,0.0,0.0,0.0,0.0,0.0,0.0,0.0,0.0,0.0,2.0943,2.1346,2.1731,0.0,0.0,0.0,0.0,0.0,0.0,0.0,0.0,0.0,0.0,2.1273,0.0,0.0,0.0,0.0,0.0,0.0,0.0,0.0,0.0,0.0,0.0,0.0,0.0,0.0,0.0,0.0,0.0,3.1105,3.219,3.2121,3.18,3.1111,2.9665,2.8976,0.0,2.7438,2.7231,2.7277,2.7415,2.7759,2.8533,3.009,0.0,0.0,0.0,0.0,0.0,0.0,0.0,0.0,0.0,0.0,0.0,0.0,0.0,0.0,0.0,5.3365,5.3101,5.3077,5.2091,5.1297,5.0768,5.072,5.0696,5.0696,5.0696,5.0696,5.0696,5.0696,0.0,0.0,0.0,0.0,0.0,5.0696,5.0696,5.0696,5.0696,5.0696,5.0696,5.0696,5.0696,5.0696,0.0,0.0,0.0,0.0,0.0,0.0,0.0,0.0,0.0,0.0,0.0,0.0,0.0,0.0,0.0,0.0,0.0,0.0,0.0,0.0,0.0,0.0,0.0,0.0,0.0,0.0,0.0,2.0521,2.1236,2.164,2.175,2.2043,0.0,0.0,0.0,0.0,0.0,0.0,0.0,0.0,2.1695,2.142,0.0,0.0,0.0,0.0,2.0521,2.0576,0.0,0.0,0.0,0.0,0.0,0.0,0.0,0.0,2.2359,2.4198,2.5189,0.0,2.9412,2.8654,2.8677,2.8677,0.0,2.7966,0.0,0.0,0.0,0.0,0.0,0.0,0.0,0.0,0.0,0.0,0.0,0.0,0.0,0.0,0.0,0.0,0.0,0.0,0.0,0.0,0.0,0.0,0.0,5.3702,5.3461,5.3077,5.2427,5.1826,5.1321,5.0912,5.0696,5.0696,5.0696,5.0696,5.0696,5.0696,0.0,0.0,0.0,0.0,5.0696,5.0696,5.0696,5.0696,5.0696,5.0696,5.0696,5.0696,5.0696,5.0696,0.0,0.0,0.0,0.0,0.0,0.0,0.0,0.0,0.0,0.0,0.0,0.0,0.0,0.0,0.0,0.0,0.0,0.0,0.0,0.0,0.0,0.0,0.0,0.0,0.0,0.0,0.0,0.0,0.0,2.1548,0.0,0.0,0.0,0.0,0.0,0.0,0.0,0.0,0.0,0.0,2.1658,0.0,0.0,0.0,0.0,0.0,1.9952,2.0081,0.0,2.0466,2.0778,2.1071,0.0,0.0,0.0,0.0,2.1216,2.2493,2.335,2.6078,2.8632,2.8333,2.8471,2.8609,0.0,0.0,0.0,0.0,0.0,0.0,0.0,0.0,0.0,0.0,0.0,0.0,0.0,0.0,0.0,0.0,0.0,0.0,0.0,0.0,0.0,0.0,0.0,0.0,0.0,5.3822,5.3702,5.3413,5.2908,5.2283,5.1489,5.096,5.0696,5.0696,5.0696,5.0696,5.0696,5.0696,5.0696,0.0,0.0,0.0,5.0696,5.0696,5.0696,5.0696,5.0696,5.0696,5.0696,5.0696,5.0696,5.0696,0.0,0.0,0.0,0.0,0.0,0.0,0.0,0.0,0.0,0.0,0.0,0.0,0.0,0.0,0.0,0.0,0.0,0.0,0.0,0.0,0.0,0.0,0.0,0.0,0.0,0.0,0.0,0.0,0.0,0.0,0.0,0.0,0.0,0.0,0.0,0.0,0.0,0.0,0.0,0.0,0.0,0.0,0.0,0.0,0.0,0.0,0.0,0.0,0.0,2.0228,2.0631,2.0998,2.0869,0.0,0.0,0.0,0.0,0.0,2.3225,2.6165,2.8802,2.9206,2.9435,2.9573,0.0,0.0,0.0,0.0,0.0,0.0,0.0,0.0,0.0,0.0,0.0,0.0,0.0,0.0,0.0,0.0,0.0,0.0,0.0,0.0,0.0,0.0,0.0,0.0,0.0,5.3822,5.3822,5.3822,5.3341,5.2644,5.173,5.1201,5.0912,5.0816,5.0816,5.0792,5.0696,5.0696,5.0696,0.0,0.0,0.0,5.0696,5.0696,5.0696,5.0696,5.0696,5.0696,5.0696,5.0696,5.0696,5.0696,0.0,0.0,0.0,0.0,0.0,0.0,0.0,0.0,0.0,0.0,0.0,0.0,0.0,0.0,0.0,0.0,0.0,0.0,0.0,0.0,0.0,0.0,0.0,0.0,0.0,0.0,0.0,0.0,0.0,0.0,2.175,2.2354,2.2208,0.0,0.0,0.0,0.0,0.0,0.0,0.0,0.0,0.0,0.0,0.0,0.0,0.0,0.0,0.0,0.0,1.9457,1.9989,2.0484,1.9787,0.0,0.0,0.0,0.0,0.0,2.4366,2.706,2.888,2.8345,2.916,2.9871,0.0,0.0,0.0,0.0,0.0,0.0,0.0,0.0,0.0,0.0,0.0,0.0,0.0,0.0,0.0,0.0,0.0,0.0,0.0,0.0,0.0,0.0,0.0,0.0,0.0,0.0,5.3822,5.3822,5.3341,5.298,5.2836,5.2307,5.1826,5.1369,5.1369,5.1129,5.0696,5.0696,5.0696,0.0,0.0,5.0696,5.0696,5.0696,5.0696,5.0696,5.0696,5.0696,5.0696,5.0696,5.0696,5.0696,0.0,0.0,0.0,0.0,0.0,0.0,0.0,0.0,0.0,0.0,0.0,0.0,0.0,0.0,0.0,0.0,0.0,0.0,0.0,0.0,0.0,0.0,0.0,0.0,0.0,0.0,0.0,0.0,0.0,2.1731,2.175,2.2116,2.175,2.0778,0.0,0.0,0.0,0.0,0.0,2.1695,0.0,0.0,0.0,0.0,0.0,0.0,0.0,0.0,0.0,0.0,2.0026,2.0411,1.9824,0.0,0.0,0.0,0.0,0.0,2.3474,2.5847,2.7826,2.8942,3.0744,0.0,0.0,0.0,0.0,0.0,0.0,0.0,0.0,0.0,0.0,0.0,0.0,0.0,0.0,0.0,0.0,0.0,0.0,0.0,0.0,0.0,0.0,0.0,0.0,0.0,0.0,0.0,5.3822,5.3822,5.3606,5.3485,5.3485,5.2956,5.2307,5.1489,5.1201,5.0936,5.0696,5.0696,5.0696,5.0696,0.0,5.0696,5.0696,5.0696,5.0696,5.0696,5.0696,5.0696,5.0696,5.0696,5.0696,5.0696,0.0,0.0,0.0,0.0,0.0,0.0,0.0,0.0,0.0,0.0,0.0,0.0,0.0,0.0,0.0,0.0,0.0,0.0,0.0,0.0,0.0,0.0,0.0,0.0,0.0,0.0,0.0,2.1108,2.153,2.1786,2.1878,2.1786,2.131,0.0,0.0,0.0,0.0,0.0,0.0,2.1548,0.0,0.0,0.0,0.0,0.0,0.0,0.0,0.0,0.0,0.0,0.0,0.0,0.0,0.0,0.0,1.9769,1.9512,2.008,2.3104,2.5123,2.696,0.0,0.0,0.0,0.0,0.0,0.0,0.0,0.0,0.0,0.0,0.0,0.0,0.0,0.0,0.0,0.0,0.0,0.0,0.0,0.0,0.0,0.0,0.0,0.0,0.0,0.0,0.0,0.0,0.0,5.3822,5.3822,5.3822,5.3822,5.3822,5.3197,5.2475,5.1682,5.1129,5.0816,5.0696,5.0696,5.0696,5.0696,5.0696,5.0696,5.0696,5.0696,5.0696,5.0696,5.0696,5.0696,5.0696,5.0696,5.0696,5.0696,0.0,0.0,0.0,0.0,0.0,0.0,0.0,0.0,0.0,0.0,0.0,0.0,0.0,0.0,0.0,0.0,0.0,0.0,0.0,0.0,0.0,0.0,0.0,0.0,0.0,2.0099,2.0319,2.1108,2.153,2.1915,2.2282,2.1915,2.131,2.0503,0.0,0.0,0.0,0.0,0.0,2.1126,2.0723,0.0,0.0,0.0,0.0,0.0,0.0,0.0,0.0,0.0,0.0,0.0,0.0,0.0,2.0503,2.0448,2.0173,2.0697,2.4805,2.6109,2.7286,0.0,0.0,0.0,0.0,0.0,0.0,0.0,0.0,0.0,0.0,0.0,0.0,0.0,0.0,0.0,0.0,0.0,0.0,0.0,0.0,0.0,0.0,0.0,0.0,0.0,0.0,0.0,0.0,0.0,0.0,5.3822,5.3822,5.3822,5.3822,5.2836,5.2307,5.2211,5.1682,5.1177,5.0696,5.0696,5.0696,5.0696,5.0696,5.0696,5.0696,5.0696,5.0696,5.0696,5.0696,5.0696,5.0696,5.0696,5.0696,5.0696,0.0,0.0,0.0,0.0,0.0,0.0,0.0,0.0,0.0,0.0,0.0,0.0,0.0,0.0,0.0,0.0,0.0,0.0,0.0,0.0,0.0,0.0,0.0,1.9292,1.9751,2.0356,2.0943,2.1493,2.1658,2.1805,2.1951,2.1548,0.0,0.0,0.0,0.0,0.0,0.0,0.0,0.0,2.0411,2.0154,0.0,0.0,0.0,0.0,0.0,0.0,0.0,0.0,1.9072,1.9531,0.0,0.0,0.0,0.0,2.0186,2.0893,2.3926,2.6104,2.8247,0.0,0.0,0.0,0.0,0.0,0.0,0.0,0.0,0.0,0.0,0.0,0.0,0.0,0.0,0.0,0.0,0.0,0.0,0.0,0.0,0.0,0.0,0.0,0.0,0.0,0.0,0.0,0.0,0.0,0.0,5.2884,5.3173,5.3197,5.286,5.2139,5.1778,5.1778,5.1249,5.0912,5.0696,5.0696,5.0696,5.0696,5.0696,5.0696,5.0696,5.0696,5.0696,5.0696,5.0696,5.0696,5.0696,5.0696,5.0696,5.0696,0.0,0.0,0.0,0.0,0.0,0.0,0.0,0.0,0.0,0.0,0.0,0.0,0.0,0.0,0.0,0.0,0.0,0.0,0.0,0.0,0.0,0.0,0.0,1.8981,1.9109,2.0301,2.1071,2.1346,2.1603,2.1676,2.153,0.0,0.0,0.0,0.0,0.0,0.0,0.0,0.0,0.0,2.0154,1.9934,0.0,0.0,0.0,0.0,0.0,0.0,0.0,0.0,1.8669,0.0,0.0,0.0,0.0,0.0,2.0881,2.1888,2.4096,2.6606,2.9032,0.0,0.0,0.0,0.0,0.0,0.0,0.0,0.0,0.0,0.0,0.0,0.0,0.0,0.0,0.0,0.0,0.0,0.0,0.0,0.0,0.0,0.0,0.0,0.0,0.0,0.0,0.0,0.0,0.0,0.0,0.0,5.2644,5.2644,5.2283,5.1754,5.1489,5.1489,5.096,5.0696,5.0696,5.0696,5.0696,5.0696,5.0696,5.0696,5.0696,5.0696,5.0696,5.0696,5.0696,5.0696,5.0696,5.0696,5.0696,5.0696,0.0,0.0,0.0,0.0,0.0,0.0,0.0,0.0,0.0,0.0,0.0,0.0,0.0,0.0,0.0,0.0,0.0,0.0,0.0,0.0,0.0,0.0,0.0,1.8302,1.8687,1.9879,2.0503,2.0521,2.1328,2.1511,2.1108,0.0,0.0,0.0,0.0,0.0,0.0,0.0,0.0,0.0,0.0,1.9934,1.9879,0.0,0.0,0.0,0.0,0.0,0.0,0.0,1.8045,1.8779,0.0,0.0,0.0,0.0,2.2487,2.3881,2.6002,2.781,0.0,0.0,0.0,0.0,0.0,0.0,0.0,0.0,0.0,0.0,0.0,0.0,0.0,0.0,0.0,0.0,0.0,0.0,0.0,0.0,0.0,0.0,0.0,0.0,0.0,0.0,0.0,0.0,0.0,0.0,0.0,0.0,5.2283,5.2283,5.2259,5.1754,5.1489,5.1489,5.096,5.0696,5.0696,5.0696,5.0696,5.0696,5.0696,5.0696,5.0696,5.0696,5.0696,5.0696,5.0696,5.0696,5.0696,5.0696,5.0696,5.0696,0.0,0.0,0.0,0.0,0.0,0.0,0.0,0.0,0.0,0.0,0.0,0.0,0.0,0.0,0.0,0.0,0.0,0.0,0.0,0.0,0.0,0.0,0.0,0.0,0.0,0.0,1.9806,2.0924,2.1181,2.1089,0.0,0.0,0.0,2.0099,0.0,0.0,0.0,0.0,0.0,0.0,0.0,1.9751,1.9512,0.0,0.0,0.0,0.0,0.0,0.0,0.0,0.0,0.0,0.0,0.0,0.0,2.1627,2.2844,2.4399,2.6109,0.0,0.0,0.0,0.0,0.0,0.0,0.0,0.0,0.0,0.0,0.0,0.0,0.0,0.0,0.0,0.0,0.0,0.0,0.0,0.0,0.0,0.0,0.0,0.0,0.0,0.0,0.0,0.0,0.0,0.0,0.0,0.0,0.0,5.1537,5.1537,5.1177,5.1008,5.0936,5.0936,5.0792,5.0696,5.0696,5.0696,5.0696,5.0696,5.0696,5.0696,5.0696,5.0696,5.0696,5.0696,5.0696,5.0696,5.0696,5.0696,5.0696,5.0696,0.0,0.0,0.0,0.0,0.0,0.0,0.0,0.0,0.0,0.0,0.0,0.0,0.0,0.0,0.0,0.0,0.0,0.0,0.0,0.0,0.0,0.0,0.0,0.0,0.0,1.8449,1.9256,0.0,0.0,0.0,0.0,0.0,0.0,2.0173,0.0,0.0,0.0,0.0,0.0,0.0,0.0,1.9677,1.9347,0.0,0.0,0.0,0.0,0.0,0.0,0.0,0.0,0.0,0.0,0.0,0.0,2.2324,2.4072,2.6021,0.0,0.0,0.0,0.0,0.0,0.0,0.0,0.0,0.0,0.0,0.0,0.0,0.0,0.0,0.0,0.0,0.0,0.0,0.0,0.0,0.0,0.0,0.0,0.0,0.0,0.0,0.0,0.0,0.0,0.0,0.0,0.0,0.0,0.0,5.1008,5.1032,5.0696,5.0696,5.0696,5.0696,5.0696,5.0696,5.0696,5.0696,5.0696,5.0696,5.0696,5.0696,5.0696,5.0696,5.0696,5.0696,5.0696,5.0696,5.0696,5.0696,5.0696,5.0696,0.0,0.0,1.4011,1.4433,0.0,0.0,0.0,0.0,0.0,0.0,0.0,1.4506,0.0,0.0,0.0,1.4506,0.0,0.0,0.0,0.0,0.0,0.0,0.0,0.0,0.0,0.0,0.0,0.0,0.0,0.0,0.0,0.0,2.0466,2.0484,0.0,2.0576,0.0,0.0,0.0,0.0,1.9512,1.9567,1.9237,1.9659,0.0,0.0,0.0,0.0,0.0,0.0,0.0,0.0,0.0,0.0,0.0,2.337,2.5701,0.0,0.0,0.0,0.0,0.0,0.0,0.0,0.0,0.0,0.0,0.0,0.0,0.0,0.0,0.0,0.0,0.0,0.0,0.0,0.0,0.0,0.0,0.0,0.0,0.0,0.0,0.0,0.0,0.0,0.0,0.0,0.0,0.0,0.0,5.0696,5.0696,5.0696,5.0696,5.0696,5.0696,0.0,5.0696,5.0696,5.0696,5.0696,5.0696,5.0696,5.0696,5.0696,5.0696,5.0696,5.0696,5.0696,5.0696,5.0696,5.0696,5.0696,5.0696,5.0696,0.0,0.0,1.4011,1.4433,0.0,0.0,0.0,0.0,0.0,1.4506,1.4506,1.4506,1.4506,1.4506,0.0,1.4506,1.4506,0.0,0.0,0.0,0.0,0.0,0.0,0.0,0.0,0.0,0.0,0.0,0.0,0.0,0.0,0.0,0.0,2.0063,0.0,1.9916,0.0,0.0,0.0,0.0,1.8779,1.8742,1.843,1.8815,1.8669,0.0,0.0,0.0,0.0,0.0,0.0,0.0,1.9946,2.1012,2.23,2.3913,2.6018,0.0,0.0,0.0,0.0,0.0,0.0,0.0,0.0,0.0,0.0,0.0,0.0,0.0,0.0,0.0,0.0,0.0,0.0,0.0,0.0,0.0,0.0,0.0,0.0,0.0,0.0,0.0,0.0,0.0,0.0,0.0,0.0,0.0,0.0,5.0696,5.0696,5.0696,5.0696,5.0696,5.0696,0.0,5.0696,5.0696,5.0696,5.0696,5.0696,5.0696,5.0696,5.0696,5.0696,5.0696,5.0696,5.0696,5.0696,5.0696,5.0696,5.0696,5.0696,5.0696,0.0,0.0,0.0,0.0,0.0,0.0,0.0,0.0,1.4726,1.4543,1.4506,1.4506,1.4506,1.4506,0.0,0.0,1.4506,1.4506,0.0,0.0,0.0,0.0,0.0,0.0,0.0,0.0,0.0,0.0,0.0,0.0,0.0,0.0,0.0,2.0484,0.0,1.9879,0.0,0.0,0.0,1.788,1.8467,1.8485,1.8174,1.8559,1.8467,1.8155,1.8357,0.0,0.0,0.0,0.0,0.0,0.0,0.0,2.2995,2.4378,2.6152,0.0,0.0,0.0,0.0,0.0,0.0,0.0,0.0,0.0,0.0,0.0,0.0,0.0,0.0,0.0,0.0,0.0,0.0,0.0,0.0,0.0,0.0,0.0,0.0,0.0,0.0,0.0,0.0,0.0,0.0,0.0,0.0,5.0104,5.0104,5.0104,5.0246,5.0246,5.0104,5.0554,5.0554,5.0412,5.0554,5.0696,5.0696,5.0696,5.0696,5.0696,5.0696,5.0696,5.0696,5.0696,5.0696,5.0696,5.0696,5.0696,5.0696,5.0696,5.0696,5.0696,0.0,0.0,0.0,0.0,0.0,0.0,0.0,0.0,0.0,1.4561,1.4506,1.4506,1.4506,1.4506,1.4506,0.0,0.0,0.0,1.4506,0.0,0.0,0.0,0.0,0.0,0.0,0.0,0.0,0.0,0.0,0.0,0.0,0.0,0.0,2.1089,0.0,0.0,0.0,0.0,0.0,1.7348,1.7954,1.799,1.7734,1.8064,1.8064,1.786,1.8008,1.8341,1.8807,1.9013,0.0,0.0,0.0,0.0,2.3241,2.4746,2.6094,2.7897,0.0,0.0,0.0,0.0,0.0,0.0,0.0,0.0,0.0,0.0,0.0,0.0,0.0,0.0,0.0,0.0,0.0,0.0,0.0,0.0,0.0,0.0,0.0,0.0,0.0,0.0,0.0,0.0,0.0,0.0,4.9509,4.9509,4.9509,4.9509,4.9795,4.9795,4.9652,5.0246,5.0412,5.0104,5.0412,5.0554,5.0554,5.0554,5.0696,5.0696,5.0696,5.0696,5.0696,5.0696,5.0696,5.0696,5.0696,5.0696,5.0696,5.0696,5.0696,5.0696,0.0,0.0,0.0,0.0,0.0,0.0,0.0,0.0,0.0,0.0,0.0,1.4506,1.4506,1.4506,1.4506,1.4506,1.4506,1.4506,0.0,0.0,0.0,0.0,0.0,0.0,0.0,0.0,0.0,0.0,0.0,0.0,0.0,0.0,0.0,0.0,0.0,0.0,0.0,0.0,0.0,1.645,1.6193,1.6065,1.6028,1.6065,1.6393,1.6889,1.7736,1.8389,1.9041,2.0244,2.0839,0.0,0.0,0.0,0.0,0.0,0.0,0.0,0.0,0.0,0.0,0.0,0.0,0.0,0.0,0.0,0.0,0.0,0.0,0.0,0.0,0.0,0.0,0.0,0.0,0.0,0.0,0.0,0.0,0.0,0.0,0.0,0.0,0.0,0.0,0.0,0.0,0.0,4.9509,4.9509,4.9509,4.9509,4.9509,4.9652,4.9961,4.9795,4.9795,5.0104,5.0104,5.0104,5.0104,5.0104,5.0412,5.0696,5.0696,5.0696,5.0696,5.0696,5.0696,5.0696,5.0696,5.0696,5.0696,5.0696,5.0696,5.0696,0.0,0.0,0.0,0.0,0.0,0.0,0.0,0.0,0.0,0.0,0.0,1.4506,1.4506,1.4506,1.4506,1.4506,1.4506,0.0,0.0,0.0,0.0,0.0,0.0,0.0,0.0,0.0,0.0,0.0,0.0,0.0,0.0,2.0668,2.1383,0.0,0.0,0.0,0.0,0.0,0.0,1.6615,1.659,1.7437,1.8601,0.0,1.7975,1.9573,0.0,0.0,0.0,2.0256,2.1084,2.1773,2.2353,0.0,0.0,0.0,0.0,0.0,0.0,0.0,0.0,0.0,0.0,0.0,0.0,0.0,0.0,0.0,0.0,0.0,0.0,0.0,0.0,0.0,0.0,0.0,0.0,0.0,0.0,0.0,0.0,0.0,0.0,0.0,0.0,0.0,0.0,4.9101,4.8957,4.8957,4.8957,4.8957,4.9101,4.9245,4.9101,4.9365,4.9652,4.9795,4.9795,4.9795,4.9795,4.9795,4.9961,5.0388,5.0388,5.0554,5.0696,5.0696,5.0696,5.0696,5.0696,5.0696,5.0696,5.0696,5.0696,5.0696,0.0,0.0,0.0,0.0,0.0,0.0,0.0,0.0,0.0,0.0,0.0,1.4506,1.4506,0.0,0.0,0.0,1.4359,0.0,0.0,0.0,0.0,0.0,0.0,0.0,0.0,0.0,0.0,0.0,0.0,0.0,2.03,2.1062,2.2557,0.0,2.3327,0.0,0.0,0.0,0.0,0.0,1.785,1.9231,2.0823,1.9885,2.1039,2.2862,0.0,0.0,0.0,0.0,0.0,0.0,0.0,0.0,0.0,0.0,0.0,0.0,0.0,0.0,0.0,0.0,0.0,0.0,0.0,0.0,0.0,0.0,0.0,0.0,0.0,0.0,0.0,0.0,0.0,0.0,0.0,0.0,0.0,0.0,0.0,0.0,0.0,0.0,0.0,0.0,0.0,4.8691,4.84,4.84,4.84,4.84,4.8691,4.8691,4.8546,4.9101,4.9389,4.9389,4.9389,4.9389,4.9389,4.9389,4.9532,4.9818,4.9961,5.0104,5.0412,5.0412,5.0412,5.0412,5.0412,5.0412,5.0412,5.0412,5.0412,5.0412,0.0,0.0,0.0,0.0,0.0,0.0,0.0,0.0,0.0,0.0,0.0,1.4506,1.4506,1.4506,1.4359,1.3956,1.3919,0.0,0.0,0.0,0.0,0.0,0.0,0.0,0.0,0.0,0.0,0.0,0.0,0.0,1.8668,2.1266,2.368,2.5803,2.4592,2.296,2.1034,0.0,0.0,0.0,1.984,2.042,2.0893,2.3837,2.5474,2.5902,0.0,0.0,0.0,0.0,0.0,0.0,0.0,0.0,0.0,0.0,0.0,0.0,0.0,0.0,0.0,0.0,0.0,0.0,0.0,0.0,0.0,0.0,0.0,0.0,0.0,0.0,0.0,0.0,0.0,0.0,0.0,0.0,0.0,0.0,0.0,0.0,0.0,0.0,0.0,0.0,0.0,4.84,4.84,4.84,4.84,4.84,4.84,4.8546,4.898,4.898,4.898,4.898,4.898,4.898,4.898,4.898,4.898,4.9124,4.9389,4.9509,4.9509,4.9509,4.9509,4.9509,4.9509,4.9509,4.9509,4.9509,4.9509,4.9652,0.0,0.0,0.0,0.0,0.0,0.0,0.0,0.0,0.0,0.0,0.0,0.0,0.0,1.4506,1.4451,1.4304,1.4286,0.0,0.0,0.0,0.0,0.0,0.0,0.0,0.0,0.0,0.0,0.0,0.0,1.6309,1.9039,2.0364,2.1784,2.3272,2.3877,2.3749,2.2923,2.0924,0.0,0.0,0.0,0.0,0.0,0.0,2.7888,2.9556,0.0,0.0,0.0,0.0,0.0,0.0,0.0,2.3098,2.2616,0.0,0.0,0.0,0.0,0.0,0.0,0.0,0.0,0.0,0.0,0.0,0.0,0.0,0.0,0.0,0.0,0.0,0.0,0.0,0.0,0.0,0.0,0.0,0.0,0.0,0.0,0.0,0.0,0.0,0.0,0.0,0.0,0.0,4.84,4.84,4.84,4.84,4.84,4.8546,4.8546,4.8546,4.8546,4.8546,4.8546,4.8546,4.8546,4.8546,4.8546,4.8691,4.8667,4.9078,4.9509,4.9509,4.9509,4.9509,4.9509,4.9509,4.9509,4.9509,4.9509,4.9509,0.0,0.0,0.0,1.4781,0.0,1.4671,1.4524,0.0,0.0,0.0,0.0,0.0,0.0,0.0,1.4598,1.4323,0.0,0.0,0.0,0.0,0.0,0.0,0.0,0.0,0.0,0.0,0.0,0.0,0.0,0.0,0.0,0.0,2.0671,2.2138,2.3233,0.0,0.0,0.0,0.0,2.2379,0.0,0.0,2.9148,0.0,0.0,0.0,0.0,0.0,0.0,0.0,0.0,0.0,0.0,2.3534,2.2317,2.1812,0.0,0.0,0.0,0.0,0.0,0.0,0.0,0.0,0.0,0.0,0.0,0.0,0.0,0.0,0.0,0.0,0.0,0.0,0.0,0.0,0.0,0.0,0.0,0.0,0.0,0.0,0.0,0.0,0.0,0.0,0.0,0.0,4.84,4.84,4.84,4.84,4.84,4.84,4.84,4.84,4.84,4.84,4.84,4.84,4.84,4.84,4.84,4.84,4.84,4.8667,4.9078,4.9078,4.9078,4.9078,4.9078,4.9078,4.9078,4.9078,4.9078,4.9078,1.5817,1.5716,1.5588,1.5184,1.5111,1.4983,1.4598,0.0,0.0,0.0,0.0,0.0,0.0,0.0,0.0,0.0,0.0,0.0,0.0,0.0,0.0,0.0,0.0,0.0,0.0,0.0,0.0,0.0,0.0,0.0,0.0,0.0,2.0419,0.0,2.2816,2.2609,2.2427,0.0,2.5145,2.4306,0.0,2.9875,3.0504,0.0,0.0,0.0,3.4647,3.3798,0.0,0.0,0.0,0.0,0.0,2.4407,2.1904,2.1376,2.2317,0.0,0.0,0.0,0.0,0.0,0.0,0.0,0.0,0.0,0.0,0.0,0.0,0.0,0.0,0.0,0.0,0.0,0.0,0.0,0.0,0.0,0.0,0.0,0.0,0.0,0.0,0.0,0.0,0.0,0.0,4.84,4.84,4.84,4.84,4.84,4.84,4.84,4.84,4.84,4.84,4.84,4.84,4.84,4.84,4.84,4.84,4.84,4.84,4.84,4.84,4.84,4.84,4.84,4.84,4.84,4.84,4.84,4.84,4.84,1.6876,1.6534,1.601,1.5588,1.5533,1.5496,1.5386,0.0,0.0,0.0,0.0,0.0,0.0,0.0,0.0,0.0,0.0,0.0,0.0,0.0,0.0,0.0,0.0,0.0,0.0,0.0,0.0,0.0,0.0,0.0,0.0,0.0,0.0,0.0,2.0675,2.0956,2.0678,2.2265,0.0,0.0,2.6858,2.8712,0.0,0.0,0.0,0.0,0.0,3.5956,0.0,0.0,3.2236,2.955,0.0,0.0,0.0,2.296,2.3902,0.0,2.42,0.0,0.0,0.0,0.0,0.0,0.0,0.0,0.0,0.0,0.0,0.0,0.0,0.0,0.0,0.0,0.0,0.0,0.0,0.0,0.0,0.0,0.0,0.0,0.0,0.0,0.0,0.0,4.84,4.84,4.84,4.84,4.84,4.84,4.84,4.84,4.84,4.84,4.84,4.84,4.84,4.84,4.84,4.84,4.84,4.84,4.84,4.84,4.84,4.84,4.84,4.84,4.84,4.84,4.84,4.84,4.84,4.84,1.7042,1.6968,1.6805,1.6315,1.6655,1.6901,1.6499,0.0,0.0,0.0,0.0,0.0,0.0,0.0,0.0,0.0,0.0,0.0,0.0,0.0,0.0,0.0,0.0,0.0,0.0,0.0,0.0,0.0,0.0,0.0,0.0,0.0,0.0,0.0,0.0,1.888,2.0515,0.0,0.0,0.0,2.7934,0.0,0.0,3.5818,3.7979,0.0,0.0,0.0,3.6828,3.7035,3.4946,0.0,0.0,2.6795,2.5761,2.42,2.5279,0.0,0.0,0.0,0.0,0.0,0.0,0.0,0.0,0.0,0.0,0.0,0.0,0.0,0.0,0.0,0.0,0.0,0.0,0.0,0.0,0.0,0.0,0.0,0.0,0.0,0.0,0.0,0.0,4.8033,4.8263,4.84,4.84,4.84,4.84,4.84,4.84,4.84,4.84,4.84,4.84,4.84,4.84,4.84,4.84,4.84,4.84,4.84,4.84,4.84,4.84,4.84,4.84,4.84,4.84,4.84,4.84,4.84,4.84,4.84,0.0,1.7417,1.793,1.7366,1.8267,1.8769,0.0,0.0,0.0,0.0,0.0,0.0,0.0,0.0,0.0,0.0,0.0,0.0,0.0,0.0,0.0,0.0,0.0,0.0,0.0,0.0,0.0,0.0,0.0,0.0,0.0,0.0,0.0,0.0,1.4502,1.6844,2.0854,2.1303,0.0,2.2469,2.9653,3.155,0.0,0.0,3.8413,0.0,3.9147,3.9193,3.8895,3.9193,3.7127,0.0,0.0,2.9343,2.8723,2.5807,2.6932,0.0,0.0,2.7989,0.0,0.0,0.0,0.0,3.2121,3.2144,0.0,0.0,0.0,0.0,0.0,0.0,0.0,0.0,0.0,0.0,0.0,0.0,0.0,0.0,0.0,0.0,0.0,4.6495,4.7,4.7505,4.8033,4.8331,4.84,4.84,4.84,4.84,4.84,4.84,4.84,4.84,4.84,4.84,4.84,4.84,4.84,4.84,4.84,4.84,4.84,4.84,4.84,4.84,4.84,4.84,4.84,4.84,4.84,4.84,4.84,4.84,1.8374,1.8526,1.8804,1.9616,1.9773,1.9821,0.0,0.0,0.0,0.0,0.0,0.0,0.0,0.0,0.0,0.0,0.0,0.0,0.0,0.0,0.0,0.0,0.0,0.0,0.0,0.0,0.0,0.0,0.0,0.0,0.0,0.0,0.0,0.0,1.4526,1.6095,1.8908,2.2195,0.0,2.3948,2.7123,0.0,3.7321,3.8635,3.915,3.9158,3.9916,4.0456,4.0629,0.0,3.8298,3.6645,0.0,0.0,3.2535,3.0331,0.0,3.1502,3.0422,3.0629,3.1042,3.0514,0.0,0.0,0.0,3.0078,0.0,0.0,0.0,0.0,0.0,0.0,0.0,0.0,0.0,0.0,0.0,0.0,0.0,0.0,0.0,0.0,0.0,4.5967,4.6472,4.6977,4.7505,4.7964,4.8377,4.84,4.84,4.84,4.84,4.84,4.84,4.84,4.84,4.84,4.84,4.84,4.84,4.84,4.84,4.84,4.84,4.84,4.84,4.84,4.84,4.84,4.84,4.84,4.84,4.84,4.84,4.84,1.8536,1.9192,1.9864,2.0091,2.1131,0.0,0.0,0.0,0.0,0.0,0.0,0.0,0.0,0.0,0.0,0.0,0.0,0.0,0.0,0.0,0.0,0.0,0.0,0.0,0.0,0.0,0.0,0.0,0.0,0.0,0.0,0.0,0.0,0.0,0.0,0.0,0.0,0.0,2.5386,2.7288,2.8296,0.0,3.931,3.9282,3.9895,4.0847,4.0747,4.1204,4.1545,3.9836,3.8803,0.0,0.0,3.5313,3.506,0.0,3.3201,3.405,3.2558,3.2512,3.281,3.2558,0.0,0.0,0.0,0.0,0.0,0.0,0.0,0.0,0.0,0.0,0.0,0.0,0.0,0.0,0.0,0.0,0.0,0.0,0.0,0.0,0.0,4.514,4.6058,4.6816,4.7344,4.7757,4.801,4.8263,4.84,4.84,4.84,4.84,4.84,4.84,4.84,4.84,4.84,4.84,4.84,4.84,4.84,4.84,4.84,4.84,4.84,4.84,4.84,4.84,4.84,4.7918,4.7163,4.7163,4.6699,4.5937,1.8375,1.975,2.0935,2.0561,0.0,0.0,0.0,0.0,0.0,0.0,0.0,0.0,0.0,0.0,0.0,0.0,0.0,0.0,0.0,0.0,0.0,0.0,1.6279,1.6048,0.0,0.0,0.0,0.0,0.0,0.0,0.0,0.0,0.0,0.0,0.0,0.0,0.0,0.0,0.0,2.9681,0.0,3.3879,3.9332,3.9268,4.0499,4.2185,4.1646,4.18,4.2063,4.0203,0.0,3.8665,3.6599,3.6714,0.0,0.0,0.0,0.0,0.0,0.0,0.0,0.0,0.0,3.3384,0.0,0.0,0.0,3.2535,0.0,0.0,0.0,0.0,0.0,0.0,0.0,0.0,0.0,0.0,0.0,0.0,0.0,0.0,0.0,4.3831,4.5025,4.6334,4.6541,4.6862,4.7459,4.7964,4.8286,4.84,4.84,4.84,4.84,4.84,4.84,4.84,4.84,4.84,4.84,4.84,4.84,4.84,4.84,4.84,4.84,4.84,4.84,4.84,4.84,4.7626,4.6381,4.6381,4.5319,4.3945,1.8777,2.0275,2.1834,2.2835,0.0,0.0,0.0,0.0,0.0,0.0,0.0,0.0,0.0,0.0,0.0,0.0,0.0,0.0,2.1876,0.0,0.0,0.0,1.7808,1.7426,1.6762,0.0,0.0,0.0,0.0,0.0,0.0,0.0,1.8649,2.0665,2.6324,0.0,0.0,0.0,2.7107,0.0,2.9513,3.3839,0.0,3.9308,4.055,4.2345,4.2195,4.2293,4.2155,0.0,4.0617,4.0203,0.0,3.8527,3.9308,0.0,0.0,0.0,0.0,0.0,0.0,0.0,3.6002,0.0,0.0,0.0,3.2558,3.0905,0.0,0.0,0.0,0.0,0.0,0.0,0.0,0.0,0.0,0.0,0.0,0.0,0.0,0.0,0.0,0.0,4.2316,4.4681,4.3671,4.413,4.6816,4.7459,4.7941,4.8377,4.84,4.84,4.84,4.84,4.84,4.84,4.84,4.84,4.84,4.84,4.84,4.84,4.84,4.84,4.84,4.84,4.84,4.84,4.84,4.8232,4.8086,4.8086,4.7016,4.5617,1.8977,2.0044,2.1105,2.1811,0.0,0.0,0.0,0.0,0.0,0.0,0.0,0.0,0.0,0.0,0.0,0.0,0.0,2.3932,0.0,0.0,0.0,1.9219,1.918,1.8893,1.8233,0.0,0.0,0.0,1.7025,0.0,0.0,0.0,1.9209,2.1381,2.6286,0.0,2.7865,0.0,0.0,0.0,0.0,0.0,0.0,3.5413,3.7517,4.2263,4.2339,4.2339,4.2178,0.0,4.0433,0.0,0.0,0.0,0.0,0.0,0.0,0.0,0.0,0.0,0.0,0.0,0.0,0.0,3.3775,0.0,3.2741,0.0,0.0,0.0,0.0,0.0,0.0,0.0,0.0,0.0,0.0,0.0,0.0,0.0,0.0,0.0,0.0,0.0,0.0,0.0,0.0,4.2959,4.5415,4.6609,4.7436,4.7941,4.824,4.84,4.84,4.84,4.84,4.84,4.84,4.84,4.84,4.84,4.84,4.84,4.84,4.84,4.84,4.84,4.7772,4.6994,4.6994,4.6994,4.6994,4.6994,4.5341,4.3055,1.926,0.0,0.0,0.0,0.0,0.0,2.3413,2.4938,2.5916,0.0,0.0,0.0,2.9176,2.8051,0.0,0.0,0.0,2.6279,0.0,0.0,2.2778,2.1475,2.1448,0.0,0.0,0.0,0.0,0.0,0.0,0.0,0.0,0.0,0.0,2.2136,0.0,2.892,3.2062,0.0,0.0,2.8446,3.3846,3.7648,3.9611,3.5211,3.7181,4.2339,4.2339,4.2431,4.2385,4.1374,4.064,0.0,4.0686,0.0,0.0,0.0,0.0,0.0,3.8596,0.0,0.0,0.0,0.0,0.0,0.0,0.0,0.0,0.0,0.0,0.0,0.0,0.0,0.0,0.0,0.0,0.0,0.0,0.0,0.0,0.0,0.0,0.0,0.0,0.0,0.0,0.0,0.0,0.0,4.4245,4.5714,4.6816,4.762,4.8125,4.84,4.84,4.84,4.84,4.84,4.84,4.84,4.84,4.84,4.84,4.84,4.84,4.84,4.8377,4.7918,4.6994,4.5915,4.5468,4.5319,4.5319,4.5319,4.3815,4.1693,1.9961,2.1585,0.0,0.0,0.0,0.0,2.5482,2.4854,2.5024,0.0,0.0,0.0,0.0,0.0,0.0,0.0,0.0,2.9269,2.881,0.0,2.5906,2.5282,2.5112,2.4535,0.0,0.0,2.1691,2.0719,0.0,0.0,0.0,0.0,0.0,0.0,0.0,3.0555,3.6077,3.6186,3.3877,2.993,2.8295,3.3422,4.2233,0.0,4.2103,4.2339,4.2339,0.0,0.0,4.188,4.1857,0.0,0.0,0.0,0.0,0.0,0.0,0.0,0.0,0.0,0.0,3.7035,0.0,0.0,0.0,0.0,3.5152,0.0,0.0,0.0,0.0,0.0,0.0,0.0,0.0,0.0,0.0,0.0,0.0,0.0,0.0,0.0,0.0,0.0,0.0,0.0,0.0,0.0,4.3556,4.4841,4.6104,4.7597,4.8125,4.84,4.84,4.84,4.84,4.84,4.84,4.84,4.84,4.84,4.84,4.84,4.84,4.84,4.8232,4.6699,4.5915,4.5766,4.4247,4.3642,4.3642,4.3642,4.3491,4.3186,0.0,0.0,0.0,0.0,0.0,0.0,2.4445,2.6192,0.0,0.0,0.0,0.0,0.0,0.0,3.1616,0.0,0.0,3.0791,2.9855,2.8477,0.0,0.0,0.0,2.5813,0.0,0.0,2.4653,2.2892,2.3745,0.0,0.0,0.0,0.0,0.0,0.0,2.9331,0.0,0.0,0.0,0.0,0.0,3.9277,4.2259,0.0,0.0,4.2385,4.2752,4.2982,0.0,4.3464,4.3028,4.2454,4.3119,4.2293,4.1237,4.2086,4.1971,0.0,0.0,0.0,4.1673,3.8964,0.0,0.0,0.0,0.0,0.0,0.0,0.0,0.0,0.0,0.0,0.0,0.0,0.0,0.0,0.0,0.0,0.0,0.0,0.0,0.0,0.0,0.0,0.0,0.0,0.0,0.0,0.0,4.3602,4.5048,4.6586,4.7459,4.8056,4.84,4.84,4.84,4.84,4.84,4.84,4.84,4.84,4.84,4.84,4.84,4.7772,4.6699,4.6085,4.472,4.2616,4.2156,4.1848,4.2002,4.3055,4.2902,4.1693,2.0779,0.0,0.0,0.0,0.0,0.0,0.0,0.0,0.0,0.0,3.0322,0.0,3.3516,0.0,3.2836,0.0,3.3354,3.2276,3.0937,3.0334,0.0,2.9048,2.8661,0.0,0.0,0.0,2.6883,2.4992,0.0,2.5347,0.0,0.0,0.0,0.0,0.0,0.0,0.0,0.0,3.902,0.0,0.0,4.2268,0.0,0.0,4.2454,4.2683,0.0,4.3479,4.3739,4.4382,4.4084,4.3579,4.4566,4.3625,4.2362,4.3349,4.3028,4.2408,4.2568,4.2844,0.0,4.0387,3.9607,0.0,3.6185,0.0,0.0,0.0,0.0,0.0,0.0,0.0,0.0,0.0,0.0,0.0,0.0,0.0,0.0,0.0,0.0,0.0,0.0,0.0,3.2088,3.4296,0.0,0.0,0.0,0.0,4.4336,4.6058,4.7115,4.7872,4.8377,4.84,4.84,4.84,4.84,4.84,4.84,4.84,4.84,4.84,4.7772,4.6847,4.5766,4.472,4.2902,4.1113,4.049,4.0178,4.0353,4.1542,4.1308,4.0249,0.0,0.0,0.0,0.0,2.5701,0.0,0.0,0.0,3.0316,0.0,3.2072,3.3066,3.5607,3.4684,3.4724,3.6887,3.5492,0.0,3.2258,3.2633,0.0,0.0,3.1055,3.0903,2.9834,0.0,0.0,0.0,0.0,0.0,0.0,0.0,0.0,0.0,2.6389,0.0,3.36,3.552,3.864,4.2304,4.231,4.2292,4.2339,4.2362,4.2729,4.3318,4.3318,4.394,4.4612,4.4635,4.4956,4.537,4.537,4.5025,4.4635,4.4635,4.429,4.3785,4.3326,4.3188,4.2844,4.1352,0.0,0.0,0.0,0.0,3.8941,0.0,0.0,0.0,0.0,0.0,0.0,0.0,0.0,0.0,0.0,0.0,0.0,0.0,0.0,0.0,0.0,0.0,3.0646,3.355,3.4381,0.0,0.0,0.0,4.39,4.5944,4.7046,4.7849,4.8354,4.8377,4.84,4.84,4.84,4.84,4.84,4.84,4.84,4.8255,4.6699,4.5915,4.5468,4.2463,4.1113,4.0802,3.9254,3.8658,3.8713,3.9098,3.9226,3.9226,2.1664,2.3104,2.443,0.0,2.5385,2.6031,0.0,0.0,0.0,0.0,3.2721,3.3826,3.503,3.4857,3.4931,3.5563,3.506,0.0,0.0,0.0,0.0,3.29,3.2227,3.1402,3.0538,2.999,0.0,2.8359,0.0,0.0,2.7681,0.0,0.0,0.0,0.0,0.0,3.5596,3.6868,3.9278,4.2272,4.2279,4.2247,0.0,0.0,4.3364,4.3648,4.3648,4.4061,4.4658,4.5048,4.5255,4.537,4.537,4.5278,4.5163,4.5163,4.5071,4.4933,4.4819,4.4773,4.4497,4.3326,4.25,4.1581,0.0,0.0,0.0,0.0,0.0,0.0,0.0,0.0,0.0,0.0,0.0,0.0,0.0,0.0,0.0,0.0,0.0,0.0,0.0,2.8718,3.1105,3.2779,3.4102,0.0,0.0,0.0,0.0,4.4336,4.6127,4.7321,4.7826,4.8194,4.84,4.84,4.84,4.84,4.84,4.84,4.84,4.8255,4.6699,4.517,4.3945,4.2002,4.0334,3.9254,3.8798,3.8823,3.9098,3.919,3.9226,3.9281,2.2795,0.0,0.0,2.6406,0.0,0.0,2.8823,0.0,0.0,3.2805,3.3742,0.0,3.499,3.5504,3.5815,3.5815,3.565,0.0,3.4788,0.0,0.0,3.3835,3.3156,3.2404,3.1598,3.0781,0.0,2.9125,0.0,0.0,2.8096,0.0,0.0,0.0,0.0,3.1508,0.0,3.8155,3.987,4.1527,4.2282,0.0,0.0,4.3234,4.3739,4.4153,4.4153,4.4497,4.4979,4.5255,4.537,4.537,4.537,4.537,4.537,4.537,4.537,4.537,4.537,4.537,4.5209,4.4635,4.4061,4.3326,4.2086,4.165,4.126,0.0,0.0,0.0,0.0,0.0,0.0,0.0,0.0,0.0,0.0,0.0,0.0,0.0,0.0,0.0,0.0,2.887,3.1162,3.1834,3.2975,0.0,0.0,0.0,0.0,4.3441,4.5484,4.6908,4.7643,4.8148,4.84,4.84,4.84,4.84,4.84,4.84,4.7941,4.7163,4.5617,4.3966,4.2289,4.0627,3.9411,3.864,3.864,3.8786,3.8988,3.9171,3.9336,3.9538,0.0,0.0,0.0,0.0,0.0,0.0,0.0,3.1508,0.0,3.4279,0.0,3.5339,3.5339,3.6292,3.6916,3.6916,0.0,3.5907,3.4788,3.5394,3.5265,3.4092,3.4055,3.3651,3.2771,3.158,3.0515,0.0,0.0,0.0,0.0,0.0,0.0,0.0,0.0,0.0,0.0,3.8966,4.0217,0.0,4.2362,4.3119,4.3234,4.3716,4.4199,4.4612,4.4681,4.4979,4.537,4.537,4.537,4.537,4.537,4.537,4.537,4.537,4.537,4.537,4.537,4.537,4.537,4.537,4.537,4.5025,4.3693,4.3005,4.25,4.1971,4.0755,4.0272,0.0,0.0,0.0,0.0,0.0,0.0,0.0,0.0,0.0,0.0,0.0,0.0,0.0,2.9102,3.0886,3.0712,3.1359,0.0,0.0,0.0,0.0,4.2821,4.4864,4.6309,4.7219,0.0,4.8186,4.8086,4.8232,4.84,4.84,4.84,4.7626,4.6085,4.4247,4.2749,4.1249,3.9411,3.864,3.864,3.864,3.864,3.8676,3.9025,3.9447,3.985,0.0,0.0,0.0,0.0,0.0,3.2132,3.3188,3.3605,3.4231,3.5259,3.6349,3.7007,3.7007,3.7191,3.7319,3.7319,3.7246,0.0,0.0,0.0,0.0,3.5339,3.5302,3.477,3.3615,3.2504,3.1501,0.0,2.9027,2.805,0.0,0.0,0.0,0.0,0.0,0.0,3.5818,3.7973,0.0,4.2017,4.2775,4.3326,4.3739,4.4267,4.452,4.4658,4.5071,4.5278,4.537,4.537,4.537,4.537,4.537,4.537,4.537,4.537,4.537,4.537,4.537,4.537,4.537,4.537,4.537,4.5278,4.5025,4.4566,4.4061,4.3533,4.289,4.2155,4.126,0.0,0.0,0.0,0.0,0.0,0.0,0.0,0.0,0.0,0.0,0.0,0.0,0.0,3.0003,0.0,0.0,0.0,0.0,0.0,0.0,0.0,4.3808,0.0,0.0,0.0,4.7218,4.6381,4.7772,4.84,4.84,4.84,4.8232,4.7772,4.487,4.3339,4.2902,3.9864,3.864,3.864,3.864,3.864,3.8658,3.8731,3.9208,3.9887,0.0,0.0,0.0,0.0,0.0,0.0,0.0,3.5925,0.0,3.5705,3.6311,3.6787,3.6787,3.7356,3.7723,3.7723,3.7539,3.7338,3.7154,3.7136,3.6879,3.6274,3.6036,0.0,3.4458,3.3177,3.22,3.1767,2.9601,2.8481,0.0,0.0,0.0,0.0,0.0,3.3343,0.0,0.0,0.0,4.204,4.3051,4.3762,4.4267,4.4796,4.5002,4.5025,4.5278,4.537,4.537,4.537,4.537,4.537,4.537,4.537,4.537,4.537,4.537,4.537,4.537,4.537,4.537,4.537,4.537,4.537,4.537,4.475,4.413,4.3854,4.3211,4.2316,4.1053,3.979,0.0,0.0,0.0,0.0,0.0,0.0,0.0,0.0,0.0,0.0,0.0,0.0,0.0,0.0,0.0,0.0,0.0,0.0,0.0,0.0,0.0,0.0,0.0,0.0,0.0,4.7163,4.8086,4.84,4.84,4.84,4.7918,4.6994,4.457,4.3055,4.2002,3.955,3.864,3.864,3.864,3.864,3.864,3.864,3.9025,3.9575,0.0,3.2533,0.0,0.0,3.4752,0.0,3.6256,3.7649,3.8071,3.6476,3.6531,3.6732,3.6732,3.7576,3.8144,3.8144,3.7869,3.7649,3.7558,3.7558,3.7374,3.6989,3.6567,3.5999,3.5302,3.3688,3.2747,0.0,3.0295,0.0,0.0,0.0,2.8264,2.9311,0.0,0.0,0.0,0.0,4.0984,4.2316,4.351,4.429,4.4819,4.5209,4.537,4.537,4.537,4.537,4.537,4.537,4.537,4.537,4.537,4.537,4.537,4.537,4.537,4.537,4.537,4.537,4.537,4.537,4.537,4.537,4.537,4.4635,4.3946,4.3831,4.3028,4.2017,4.1007,4.0341,0.0,0.0,0.0,0.0,0.0,0.0,0.0,0.0,0.0,0.0,0.0,0.0,0.0,0.0,0.0,0.0,0.0,0.0,0.0,0.0,0.0,4.3841,4.4909,0.0,4.7637,4.7918,4.8232,4.84,4.84,4.84,4.7626,4.6381,4.4699,4.3055,4.1559,3.9864,3.9096,3.9114,3.889,3.8768,3.8786,3.886,3.9153,3.9538,0.0,0.0,0.0,0.0,0.0,0.0,3.6769,3.7833,3.8566,3.8383,3.8401,3.842,3.842,3.8511,3.8585,3.8585,3.8548,3.8365,3.7979,3.7961,3.7778,3.7393,3.6989,3.6567,3.6109,3.4513,3.3233,0.0,0.0,2.9829,0.0,2.9443,3.0698,3.2144,0.0,0.0,0.0,4.0249,4.2132,4.4336,4.4474,4.4841,4.5301,4.5347,4.537,4.537,4.537,4.537,4.537,4.537,4.537,4.537,4.537,4.537,4.537,4.537,4.537,4.537,4.537,4.537,4.537,4.537,4.537,4.537,4.537,4.4933,4.4405,4.39,4.3028,4.2017,4.1007,4.1489,4.1283,0.0,0.0,0.0,0.0,0.0,3.6283,3.4726,0.0,0.0,0.0,0.0,0.0,0.0,0.0,0.0,0.0,0.0,0.0,3.7648,0.0,4.1522,4.0801,4.4894,4.6676,4.6085,4.7626,4.84,4.84,4.84,4.8232,4.8086,4.6381,4.4699,4.3186,4.1539,4.0802,4.0685,3.9664,3.9171,3.9226,3.9593,3.9997,4.0363,0.0,0.0,0.0,0.0,0.0,0.0,0.0,3.8328,3.864,3.864,3.864,3.864,3.864,3.864,3.864,3.864,3.864,3.8566,3.8401,3.8383,3.8199,3.7796,3.7631,3.7246,3.6604,3.5485,3.4557,0.0,0.0,0.0,0.0,3.0789,3.1772,3.3648,0.0,3.8504,4.0295,4.1627,4.3119,4.4612,4.4612,4.491,4.537,4.537,4.537,4.537,4.537,4.537,4.537,4.537,4.537,4.537,4.537,4.537,4.537,4.537,4.537,4.537,4.537,4.537,4.537,4.537,4.537,4.537,4.537,4.4727,4.4061,4.3854,4.3028,4.2224,4.1811,4.1558,4.1191,0.0,0.0,0.0,0.0,0.0,0.0,3.5405,0.0,3.4165,0.0,0.0,0.0,0.0,0.0,2.9064,3.2825,0.0,0.0,3.7582,0.0,4.2169,4.2345,4.539,4.7082,4.7457,4.8086,4.84,4.84,4.84,4.7772,4.6847,4.6233,4.502,4.3339,4.1693,4.1113,4.0997,3.9701,3.9226,3.9281,3.9685,4.0107,4.0473,3.7154,0.0,3.6714,0.0,3.7484,3.7319,3.8475,3.864,3.864,3.864,3.864,3.864,3.864,3.864,3.864,3.864,3.864,3.864,3.864,3.864,3.8511,3.8218,3.8089,0.0,3.7191,3.6384,3.5717,3.5116,3.4083,0.0,0.0,3.2873,3.4031,0.0,3.8925,4.0755,4.1788,4.3005,4.4038,4.4819,4.4819,4.5048,4.537,4.537,4.5461,4.5576,4.5576,4.5668,4.5806,4.5806,4.5806,4.5783,4.5622,4.5691,4.5806,4.5806,4.5691,4.5576,4.5576,4.5484,4.537,4.537,4.537,4.537,4.537,4.4543,4.3716,4.3441,4.2821,4.2339,4.2339,4.1742,4.1237,4.1145,0.0,0.0,0.0,3.793,0.0,0.0,3.5129,3.4762,3.4463,0.0,0.0,0.0,0.0,3.1524,3.4073,0.0,0.0,0.0,0.0,0.0,0.0,4.592,4.7528,4.84,4.84,4.84,4.84,4.84,4.7772,4.6699,4.6699,4.5937,4.487,4.3207,4.2236,4.1796,4.0648,3.995,3.9648,4.0052,4.0382,4.0639,3.7924,3.7998,3.8126,3.8566,3.8621,3.8621,3.864,3.864,3.864,3.864,3.864,3.864,3.864,3.864,3.864,3.864,3.864,3.864,3.864,3.864,3.864,0.0,0.0,3.8016,3.7998,3.7228,3.6421,3.5595,0.0,0.0,3.356,3.5851,3.8254,4.08,4.1834,4.2844,4.3808,4.4359,4.4887,4.5347,4.5347,4.5347,4.537,4.537,4.5668,4.6104,4.6104,4.6426,4.6862,4.6862,4.6862,4.677,4.6265,4.6449,4.6862,4.6862,4.6518,4.6104,4.6104,4.5737,4.537,4.537,4.537,4.537,4.537,4.4543,4.3533,4.2545,4.2339,4.2339,4.2339,4.2339,4.1834,4.0318,0.0,0.0,0.0,0.0,0.0,3.5703,3.4211,3.3889,3.5359,0.0,0.0,0.0,0.0,3.5175,3.6185,0.0,0.0,3.8165,4.1361,0.0,4.2742,4.6002,4.7849,4.84,4.84,4.84,4.84,4.84,4.84,4.84,4.84,4.84,4.8232,4.6529,4.5147,4.3926,4.2804,4.1523,4.051,4.0895,4.1042,4.106,3.842,3.8438,3.8493,3.8621,3.864,3.864,3.864,3.864,3.864,3.864,3.864,3.864,3.864,3.864,3.864,0.0,3.864,3.864,0.0,3.864,3.864,3.864,3.8511,3.831,3.8016,3.7759,3.7246,3.6457,0.0,0.0,0.0,3.6881,3.835,3.9944,4.1527,4.3085,4.4382,4.491,4.5415,4.5875,4.5875,4.6081,4.638,4.638,4.6495,4.6632,4.6632,4.6747,4.6885,4.6885,4.7115,4.7367,4.7206,4.7023,4.6885,4.6885,4.677,4.6632,4.6632,4.6265,4.5875,4.5875,4.5622,4.537,4.537,4.4543,4.3625,4.2982,4.2568,4.2339,4.2339,4.2339,4.1948,4.0778,4.0709,0.0,3.7862,0.0,3.7356,3.6162,3.5611,3.5497,0.0,3.4992,0.0,0.0,0.0,0.0,0.0,0.0,0.0,0.0,4.2267,0.0,4.4029,4.6469,4.7895,4.84,4.84,4.84,4.84,4.84,4.84,4.84,4.84,4.84,4.8232,4.6551,4.5921,4.5638,4.3278,4.2314,4.2105,4.1398,4.106,4.106,3.864,3.864,3.864,3.864,3.864,3.864,3.864,3.864,3.864,3.864,3.864,3.864,3.864,3.864,0.0,3.864,3.864,3.864,3.864,3.864,3.864,3.864,3.864,3.8511,3.8255,3.8255,0.0,3.7283,3.7353,3.7467,3.7507,3.8206,3.921,4.0468,4.1608,4.2743,4.3625,4.4631,4.5225,4.5518,4.6124,4.6586,4.6885,4.6885,4.7,4.716,4.716,4.7275,4.7436,4.7436,4.7666,4.7918,4.7918,4.7712,4.7436,4.7436,4.7321,4.716,4.716,4.6793,4.6403,4.6403,4.6012,4.5553,4.5163,4.4566,4.39,4.3234,4.2844,4.2568,4.2385,4.2339,4.1994,4.0984,4.0823,4.0112,3.8068,0.0,3.7402,0.0,0.0,0.0,0.0,3.6438,3.6461,0.0,0.0,0.0,0.0,0.0,0.0,4.0686,4.3625,0.0,4.5461,4.7092,4.8079,4.84,4.84,4.84,4.84,4.84,4.84,4.84,4.84,4.84,4.84,4.749,4.7105,4.6681,4.4468,4.3336,4.3117,4.1621,4.106,4.106,3.864,3.864,3.864,0.0,3.864,0.0,3.864,3.864,3.864,3.864,3.864,3.864,3.864,3.864,3.864,3.864,0.0,0.0,0.0,3.864,3.864,3.864,3.864,3.864,3.864,3.864,3.8456,3.8053,3.7668,3.8214,3.9542,3.9523,4.0405,4.1871,4.1871,4.1871,4.2166,4.3773,4.4351,4.4539,4.632,4.6954,4.6977,4.6977,4.7275,4.7689,4.7689,4.7987,4.84,4.84,4.84,4.84,4.84,4.84,4.84,4.84,4.8056,4.7689,4.7689,4.7321,4.6931,4.6931,4.6518,4.5875,4.4887,4.4635,4.4336,4.3395,4.3142,4.2936,4.2477,4.2362,4.1994,4.0984,4.08,4.0066,3.8068,3.7816,3.7471,0.0,0.0,0.0,0.0,3.7609,3.8091,0.0,0.0,0.0,0.0,0.0,4.0663,4.3074,4.5117,4.6426,4.6931,4.7895,4.84,4.84,4.84,4.84,4.84,4.84,4.84,4.84,4.84,4.8423,4.8469,4.8928,4.8494,4.7312,4.6006,4.4866,4.3633,4.1695,4.106,4.106,0.0,0.0,3.864,3.864,3.864,3.864,3.864,3.864,3.864,3.864,3.864,3.864,3.864,3.864,3.864,3.864,3.864,3.864,3.864,3.864,3.864,3.864,3.864,3.864,3.864,3.864,3.8603,3.8493,3.8089,3.8025,3.8471,3.8173,3.8766,4.0255,4.0255,4.0833,4.2166,4.3773,4.4713,4.5209,4.6721,4.7689,4.8033,4.8033,4.8102,4.8217,4.8217,4.8286,4.84,4.84,4.84,4.84,4.84,4.84,4.84,4.84,4.8308,4.8217,4.8217,4.7849,4.7459,4.7459,4.6793,4.5967,4.5324,4.4887,4.4543,4.429,4.3625,4.3051,4.2936,4.2591,4.1994,4.0984,4.0502,3.9652,3.8022,3.8137,3.816,0.0,3.8114,3.8619,3.8757,3.8872,3.901,0.0,0.0,0.0,0.0,4.1834,4.2637,4.3602,4.5622,4.6931,4.7459,4.8079,4.84,4.84,4.84,4.84,4.84,4.84,4.84,4.84,4.84,4.8607,4.8951,4.9066,4.9342,4.9508,4.6605,4.5509,4.5251,4.2197,4.106,4.106,3.864,3.864,3.864,3.864,3.864,3.864,3.864,3.864,3.864,3.864,3.864,3.864,3.864,3.864,3.864,3.864,3.864,3.864,3.864,3.864,3.864,3.864,3.864,3.864,3.864,3.864,3.864,3.864,3.842,3.831,3.8291,3.8089,3.8428,3.9182,3.9182,3.9644,4.0543,4.2188,4.3081,4.346,4.5101,4.6308,4.731,4.731,4.7772,4.84,4.84,4.84,4.84,4.84,4.84,4.84,4.84,4.84,4.84,4.84,4.84,4.84,4.84,4.8194,4.7872,4.7413,4.6885,4.6265,4.553,4.514,4.4887,4.4658,4.4176,4.3648,4.3165,4.2683,4.1926,4.0686,4.0249,3.9515,3.7999,3.8436,3.8803,3.8527,3.9377,4.0089,4.0318,4.0755,4.0938,4.0709,4.1581,0.0,4.227,4.3671,4.4497,4.452,4.6058,4.7115,4.7643,4.8148,4.84,4.84,4.84,4.84,4.84,4.84,4.84,4.84,4.84,4.8676,4.9135,4.9365,4.9916,5.0323,4.7039,4.6016,4.5738,4.2364,4.106,4.106,3.864,3.864,3.864,3.864,3.864,3.864,3.864,3.864,3.864,3.864,3.864,3.864,3.864,3.864,3.864,3.864,3.864,3.864,3.864,3.864,3.864,3.864,3.864,3.864,3.864,3.864,3.864,3.864,3.864,3.864,3.864,3.864,3.864,3.864,3.864,3.864,3.864,4.0334,4.1113,4.1249,4.2902,4.4398,4.5915,4.5915,4.6994,4.84,4.84,4.84,4.84,4.84,4.84,4.84,4.84,4.84,4.84,4.84,4.84,4.84,4.84,4.84,4.8171,4.7229,4.6931,4.6632,4.5691,4.5415,4.5232,4.4819,4.4658,4.4336,4.3487,4.2844,4.1948,4.041,4.0112,3.9515,3.7999,0.0,3.9446,3.9515,4.0502,4.1352,4.1857,4.2637,4.2982,4.2706,4.3808,4.4199,4.3579,4.5186,4.5989,4.5714,4.6541,4.7229,4.7757,4.8171,4.84,4.84,4.84,4.84,4.84,4.84,4.84,4.84,4.8469,4.8791,4.9273,4.9801,5.0306,5.046,4.7358,4.6223,4.5738,4.2364,4.106,4.106,3.864,3.864,3.864,3.864,3.864,3.864,3.864,3.864,3.864,3.864,3.864,3.864,3.864,3.864,3.864,3.864,3.864,3.864,3.864,3.864,3.864,3.864,3.864,3.864,3.864,3.864,3.864,3.864,3.864,3.864,3.864,3.864,3.864,3.864,3.864,3.864,3.864,4.0334,4.1113,4.1249,4.2902,4.4398,4.5915,4.5915,4.6994,4.84,4.84,4.84,4.84,4.84,4.84,4.84,4.84,4.84,4.84,4.84,4.84,4.84,4.84,4.84,4.824,4.7666,4.7183,4.6724,4.6127,4.5668,4.5347,4.5255,4.491,4.4566,4.4405,4.3602,4.2477,4.0961,4.0341,3.9515,3.7999,0.0,4.0112,4.0525,4.1857,4.2936,4.3418,4.3234,4.3418,4.4199,4.4061,4.4428,4.5599,4.5944,4.6472,4.7252,4.7436,4.7757,4.8263,4.8354,4.84,4.84,4.84,4.84,4.84,4.84,4.84,4.8423,4.8814,4.9296,4.9824,5.0306,5.0834,5.0985,4.7507,4.6223,4.5738,4.2364,4.106,4.106,3.864,3.864,3.864,3.864,3.864,3.864,3.864,3.864,3.864,3.864,3.864,3.864,3.864,3.864,3.864,3.864,3.864,3.864,3.864,3.864,3.864,3.864,3.864,3.864,3.864,3.864,3.864,3.864,3.864,3.864,3.864,3.864,3.864,3.864,3.864,3.864,3.864,3.9411,3.9726,3.9864,4.0627,4.2443,4.4548,4.4548,4.6233,4.84,4.84,4.84,4.84,4.84,4.84,4.84,4.84,4.84,4.84,4.84,4.84,4.84,4.84,4.84,4.8263,4.7757,4.7459,4.716,4.6632,4.6357,4.6104,4.5829,4.5576,4.5255,4.4704,4.3785,4.2775,4.1788,4.0755,0.0,3.9469,4.0249,4.1053,4.1581,4.2982,4.3992,4.4222,4.429,4.4497,4.4979,4.5048,4.537,4.6081,4.6632,4.716,4.762,4.7895,4.8148,4.84,4.84,4.84,4.84,4.84,4.84,4.84,4.84,4.84,4.8423,4.8905,4.9411,4.9939,5.0421,5.0949,5.1099,4.7528,4.6223,4.5738,4.2364,4.106,4.106,3.864,3.864,3.864,3.864,3.864,3.864,3.864,3.864,3.864,3.864,3.864,3.864,3.864,3.864,3.864,3.864,3.864,3.864,3.864,3.864,3.864,3.864,3.864,3.864,3.864,3.864,3.864,3.864,3.864,3.864,3.864,3.864,3.864,3.864,3.864,3.864,3.864,3.864,3.864,3.864,3.864,4.0315,4.3055,4.3339,4.5319,4.7918,4.8232,4.84,4.84,4.84,4.84,4.84,4.84,4.84,4.84,4.84,4.84,4.84,4.84,4.84,4.8308,4.7918,4.7734,4.7528,4.7138,4.6954,4.677,4.638,4.6288,4.6012,4.5117,4.4222,4.3372,4.2637,0.0,4.0823,0.0,4.1535,4.2109,4.2614,4.3808,4.4658,4.4773,4.5232,4.553,4.553,4.6012,4.6357,4.6472,4.7206,4.7689,4.7803,4.8194,4.84,4.84,4.84,4.84,4.84,4.84,4.84,4.84,4.84,4.8446,4.8584,4.9089,4.9594,5.0122,5.0605,5.1064,5.1099,4.8006,4.6545,4.59,4.2844,4.1378,4.106,3.864,3.864,3.864,3.864,3.864,3.864,3.864,3.864,3.864,3.864,3.864,3.864,3.864,3.864,3.864,3.864,3.864,3.864,3.864,3.864,3.864,3.864,3.864,3.864,3.864,3.864,3.864,3.864,3.864,3.864,3.864,3.864,3.864,3.864,3.864,3.864,3.864,3.864,3.864,3.864,3.864,3.9726,4.1404,4.2902,4.4548,4.6233,4.7772,4.84,4.84,4.84,4.84,4.84,4.84,4.84,4.84,4.84,4.84,4.84,4.84,4.84,4.8377,4.8354,4.7987,4.7643,4.7597,4.7206,4.6862,4.6839,4.6816,4.6655,4.6104,4.5553,4.4727,4.328,0.0,0.0,4.165,4.2362,4.3165,4.3648,4.4245,4.4796,4.5255,4.576,4.6058,4.6058,4.6541,4.7023,4.7505,4.7597,4.7849,4.8331,4.8377,4.84,4.84,4.84,4.84,4.84,4.84,4.84,4.84,4.84,4.863,4.9089,4.9617,5.0122,5.0605,5.1156,5.1385,5.1254,4.9315,4.7688,4.59,4.4126,4.2345,4.106,3.864,3.864,3.864,3.864,3.864,3.864,3.864,3.864,3.864,3.864,3.864,3.864,3.864,3.864,3.864,3.864,3.864,3.864,3.864,3.864,3.864,3.864,3.864,3.864,3.864,3.864,3.864,3.864,3.864,3.864,3.864,3.864,3.864,3.864,3.864,3.864,3.864,3.864,3.864,3.864,3.864,3.9569,4.1249,4.2902,4.3945,4.457,4.6233,4.6233,4.549,4.6551,4.6847,4.6994,4.8086,4.84,4.84,4.84,4.84,4.84,4.84,4.84,4.84,4.84,4.824,4.8102,4.8102,4.7964,4.7734,4.7413,4.7344,4.7183,4.6678,4.6173,4.5737,4.5484,0.0,4.4107,4.4359,4.4451,4.4681,4.5186,4.5691,4.6081,4.6288,4.6472,4.6586,4.6586,4.7069,4.7436,4.7643,4.7941,4.8194,4.8377,4.84,4.84,4.84,4.84,4.84,4.84,4.84,4.84,4.84,4.8699,4.8928,4.9158,4.9985,5.0467,5.0673,5.1201,5.1431,5.1254,4.9472,4.7688,4.6061,4.4291,4.2512,4.106,3.864,3.864,3.864,3.864,3.864,3.864,3.864,3.864,3.864,3.864,3.864,3.864,3.864,3.864,3.864,3.864,3.864,3.864,3.864,3.864,3.864,3.864,3.864,3.864,3.864,3.864,3.864,3.864,3.864,3.864,3.864,3.864,3.864,3.864,3.864,3.864,3.864,3.864,3.864,3.864,3.864,3.9254,4.049,4.2156,4.2749,4.2902,4.457,4.4398,4.3642,4.4699,4.517,4.5319,4.6551,4.7163,4.7772,4.8232,4.84,4.84,4.84,4.84,4.84,4.84,4.84,4.84,4.84,4.84,4.8286,4.7941,4.7872,4.7712,4.7206,4.6839,4.6655,4.6839,4.5989,4.5553,4.6265,4.6058,4.5967,4.6311,4.6655,4.6885,4.6885,4.7023,4.7115,4.7115,4.7597,4.7872,4.7872,4.8194,4.84,4.84,4.84,4.84,4.84,4.84,4.84,4.84,4.8538,4.8607,4.863,4.9135,4.9434,4.9617,5.0329,5.0719,5.0903,5.127,5.1431,5.1254,4.9472,4.7688,4.6061,4.4291,4.2512,4.106,3.864,3.864,3.864,3.864,3.864,3.864,3.864,3.864,3.864,3.864,3.864,3.864,3.864,3.864,3.864,3.864,3.864,3.864,3.864,3.864,3.864,3.864,3.864,3.864,3.864,3.864,3.864,3.864,3.864,3.864,3.864,3.864,3.864,3.864,3.864,3.864,3.864,3.864,3.864,3.864,3.864,3.864,3.8798,4.049,4.1094,4.1249,4.2902,4.3491,4.3491,4.3491,4.3491,4.3491,4.3491,4.457,4.6233,4.7918,4.84,4.84,4.84,4.84,4.84,4.84,4.84,4.84,4.84,4.84,4.84,4.84,4.84,4.824,4.7734,4.7643,4.7482,4.6977,4.6885,4.6885,4.6885,4.6885,4.6885,4.6885,4.6885,4.6885,4.6885,4.7344,4.7643,4.7643,4.8102,4.84,4.84,4.84,4.84,4.84,4.84,4.84,4.84,4.84,4.84,4.84,4.8882,4.9112,4.9135,4.9663,5.0168,5.0627,5.0627,5.0926,5.1431,5.1431,5.1431,5.1254,4.9472,4.7688,4.59,4.4291,4.2512,4.106,3.864,3.864,3.864,3.864,3.864,3.864,3.864,3.864,3.864,3.864,3.864,3.864,3.864,3.864,3.864,3.864,3.864,3.864,3.864,3.864,3.864,3.864,3.864,3.864,3.864,3.864,3.864,3.864,3.864,3.864,3.864,3.864,3.864,3.864,3.864,3.864,3.864,3.864,3.864,3.864,3.864,3.864,3.8798,4.049,4.0334,3.9569,4.1249,4.1094,4.0315,4.1384,4.1848,4.2002,4.3186,4.3794,4.4548,4.6233,4.6699,4.6847,4.8086,4.84,4.84,4.84,4.84,4.84,4.84,4.84,4.84,4.84,4.84,4.8354,4.8194,4.8171,4.8125,4.7964,4.7941,4.7941,4.7941,4.7941,4.7941,4.7941,4.7941,4.7941,4.7941,4.8079,4.8171,4.8171,4.8308,4.84,4.84,4.84,4.84,4.84,4.84,4.84,4.84,4.84,4.84,4.84,4.8882,4.9112,4.9135,5.0008,5.049,5.065,5.1018,5.063,4.9629,4.9629,4.882,4.7688,4.7208,4.59,4.4291,4.3797,4.2512,4.106,3.864,3.864,3.864,3.864,3.864,3.864,3.864,3.864,3.864,3.864,3.864,3.864,3.864,3.864,3.864,3.864,3.864,3.864,3.864,3.864,3.864,3.864,3.864,3.864,3.864,3.864,3.864,3.864,3.864,3.864,3.864,3.864,3.864,3.864,3.864,3.864,3.864,3.864,3.864,3.864,3.864,3.864,3.864,3.9726,3.9411,3.8798,3.9726,3.9411,3.8798,3.9726,4.0178,4.0334,4.2002,4.2596,4.2902,4.4419,4.5468,4.6085,4.7163,4.7918,4.84,4.84,4.84,4.84,4.84,4.84,4.84,4.84,4.84,4.84,4.84,4.84,4.84,4.84,4.84,4.84,4.84,4.84,4.84,4.84,4.84,4.84,4.84,4.84,4.84,4.84,4.84,4.84,4.84,4.84,4.84,4.84,4.84,4.84,4.84,4.84,4.84,4.84,4.9089,4.9434,4.9457,5.0467,5.0949,5.0949,5.0475,4.9786,4.882,4.8006,4.7208,4.6061,4.5413,4.4618,4.3468,4.2825,4.203,4.106,3.864,3.864,3.864,3.864,3.864,3.864,3.864,3.864,3.864,3.864,3.864,3.864,3.864,3.864,3.864,3.864,3.864,3.864,3.864,3.864,3.864,3.864,3.864,3.864,3.864,3.864,3.864,3.864,3.864,3.864,3.864,3.864,3.864,3.864,3.864,3.864,3.864,3.864,3.864,3.864,3.864,3.864,3.864,3.864,3.864,3.864,3.864,3.864,3.864,3.864,3.864,3.8798,4.0334,4.0958,4.1249,4.2749,4.4247,4.5468,4.5617,4.6847,4.8232,4.8232,4.8232,4.84,4.84,4.84,4.84,4.84,4.84,4.84,4.84,4.84,4.84,4.84,4.84,4.84,4.84,4.84,4.84,4.84,4.84,4.84,4.84,4.84,4.84,4.84,4.84,4.84,4.84,4.84,4.84,4.84,4.84,4.84,4.84,4.8423,4.8446,4.8469,4.9457,4.9939,5.0008,5.0995,5.1431,5.1254,4.9629,4.8662,4.8504,4.6706,4.59,4.5576,4.3962,4.3303,4.3156,4.1714,4.106,4.106,3.864,3.864,3.864,3.864,3.864,3.864,3.864,3.864,3.864,3.864,3.864,3.864,3.864,3.864,3.864,3.864,3.864,3.864,3.864,3.864,3.864,3.864,3.864,3.864,3.864,3.864,3.864,3.864,3.864,3.864,3.864,3.864,3.864,3.864,3.864,3.864,3.864,3.864,3.864,3.864,3.864,3.864,3.864,3.864,3.864,3.864,3.864,3.864,3.864,3.864,3.864,3.864,3.9114,3.9096,3.9411,4.1094,4.1868,4.2463,4.3642,4.517,4.6381,4.6381,4.7457,4.84,4.84,4.84,4.84,4.84,4.84,4.84,4.84,4.84,4.84,4.84,4.84,4.84,4.84,4.84,4.84,4.84,4.84,4.84,4.84,4.84,4.84,4.84,4.84,4.84,4.84,4.84,4.84,4.84,4.84,4.84,4.84,4.8768,4.8951,4.8951,4.9594,5.0099,5.049,5.1133,5.1431,5.1254,4.9629,4.8006,4.6566,4.4925,4.3322,4.2197,4.1863,4.1714,4.1546,4.121,4.106,4.106,3.864,3.864,3.864,3.864,3.864,3.864,3.864,3.864,3.864,3.864,3.864,3.864,3.864,3.864,3.864,3.864,3.864,3.864,3.864,3.864,3.864,3.864,3.864,3.864,3.864,3.864,3.864,3.864,3.864,3.864,3.864,3.864,3.864,3.864,3.864,3.864,3.864,3.864,3.864,3.864,3.864,3.864,3.864,3.864,3.864,3.864,3.864,3.864,3.864,3.864,3.864,3.864,3.864,3.864,3.8798,3.9726,4.049,4.1249,4.2156,4.3511,4.472,4.472,4.5468,4.6404,4.8086,4.84,4.84,4.84,4.84,4.84,4.84,4.84,4.84,4.84,4.84,4.84,4.84,4.84,4.84,4.84,4.84,4.84,4.84,4.84,4.84,4.84,4.84,4.84,4.84,4.84,4.84,4.84,4.7626,4.7163,4.7163,4.6867,4.6767,4.7159,4.8427,4.9112,4.9381,4.9072,4.8978,4.882,4.7048,4.5738,4.4782,4.3156,4.1863,4.106,4.106,4.106,4.106,4.106,4.106,4.106,3.864,3.864,3.864,3.864,3.864,3.864,3.864,3.864,3.864,3.864,3.864,3.864,3.864,3.864,3.864,3.864,3.864,3.864,3.864,3.864,3.864,3.864,3.864,3.864,3.864,3.864,3.864,3.864,3.864,3.864,3.864,3.864,3.864,3.864,3.864,3.864,3.864,3.864,3.864,3.864,3.864,3.864,3.864,3.864,3.864,3.864,3.864,3.864,3.864,3.864,3.864,3.864,3.864,3.864,3.864,3.864,3.9569,4.0646,4.0646,4.1848,4.3034,4.3034,4.3339,4.4247,4.7016,4.7626,4.7626,4.7918,4.7941,4.8086,4.84,4.84,4.84,4.84,4.84,4.84,4.84,4.84,4.84,4.84,4.84,4.84,4.84,4.84,4.84,4.84,4.84,4.8232,4.7941,4.7941,4.7772,4.7626,4.6233,4.5512,4.5598,4.4705,4.4546,4.5002,4.6563,4.7426,4.7761,4.6699,4.6223,4.6061,4.4291,4.3633,4.3468,4.1863,4.106,4.106,4.106,4.106,4.106,4.106,4.106,4.106,3.864,3.864,3.864,3.864,3.864,3.864,3.864,3.864,3.864,3.864,3.864,3.864,3.864,3.864,3.864,3.864,3.864,3.864,3.864,3.864,3.864,3.864,3.864,3.864,3.864,3.864,3.864,3.864,3.864,3.864,3.864,3.864,3.864,3.864,3.864,3.864,3.864,3.864,3.864,3.864,3.864,3.864,3.864,3.864,3.864,3.864,3.864,3.864,3.864,3.864,3.864,3.864,3.864,3.864,3.864,3.864,3.8798,3.8956,3.8956,4.0178,4.1404,4.1404,4.2443,4.3642,4.4096,4.4096,4.457,4.5937,4.6233,4.6699,4.8086,4.84,4.84,4.84,4.84,4.84,4.84,4.84,4.84,4.84,4.84,4.84,4.84,4.84,4.84,4.84,4.84,4.7772,4.6381,4.6233,4.5617,4.4268,4.3945,4.4002,4.4419,4.4702,4.5002,4.5457,4.4623,4.5007,4.6462,4.6202,4.6223,4.6061,4.4291,4.3633,4.3468,4.1863,4.106,4.106,4.106,4.106,4.106,4.106,4.106,4.106,3.864,3.864,3.864,3.864,3.864,3.864,3.864,3.864,3.864,3.864,3.864,3.864,3.864,3.864,3.864,3.864,3.864,3.864,3.864,3.864,3.864,3.864,3.864,3.864,3.864,3.864,3.864,3.864,3.864,3.864,3.864,3.864,3.864,3.864,3.864,3.864,3.864,3.864,3.864,3.864,3.864,3.864,3.864,3.864,3.864,3.864,3.864,3.864,3.8676,3.8896,3.897,3.9006,3.9245,3.9318,3.9318,3.9318,3.9153,3.897,3.897,3.9281,3.9726,3.9726,4.0158,4.0763,4.0763,4.0763,4.1539,4.4096,4.5319,4.6085,4.6847,4.7772,4.84,4.84,4.84,4.84,4.84,4.84,4.84,4.84,4.84,4.84,4.84,4.84,4.84,4.84,4.84,4.7626,4.5937,4.5915,4.517,4.3491,4.2596,4.2236,4.2456,4.219,4.214,4.2333,4.2188,4.3156,4.4762,4.3797,4.3322,4.3322,4.2512,4.2178,4.2197,4.1378,4.106,4.106,4.106,4.106,4.106,4.106,4.106,4.106]},{"header":{"parameterUnit":"m.s-1","parameterCategory":1,"la1":30.6,"la2":28.766,"lo1":-90.7593,"lo2":-88.6598,"dy":0.0162,"dx":0.0183,"nx":116,"ny":114,"refTime":"2024-08-03T12:00:00:Z","depth":0,"parameterNumber":3,"parameterNumberName":"V-component_of_WINDS"},"data":[0.0,0.0,0.0,0.0,0.0,0.0,0.0,0.0,0.0,0.0,0.0,0.0,0.0,0.0,0.0,0.0,0.0,0.0,0.0,0.0,0.0,0.0,0.0,0.0,0.0,0.0,0.0,0.0,0.0,0.0,0.0,0.0,0.0,0.0,0.0,0.0,0.0,0.0,0.0,0.0,0.0,0.0,0.0,0.0,0.0,0.0,0.0,0.0,0.0,0.0,0.0,0.0,0.0,0.0,0.0,0.0,0.0,0.0,0.0,0.0,0.0,0.0,0.0,0.0,0.0,0.0,0.0,0.0,0.0,0.0,0.0,0.0,0.0,0.0,0.0,0.0,0.0,0.0,0.0,0.0,0.0,0.0,0.0,0.0,0.0,0.0,0.0,0.0,0.0,0.0,0.0,0.0,0.0,0.0,0.0,0.0,0.0,0.0,0.0,0.0,0.0,0.0,0.0,0.0,0.0,0.0,0.0,0.0,0.0,0.0,0.0,0.0,0.0,0.0,0.0,0.0,0.0,0.0,0.0,0.0,0.0,0.0,0.0,0.0,0.0,0.0,0.0,0.0,0.0,0.0,0.0,0.0,0.0,0.0,0.0,0.0,0.0,0.0,0.0,0.0,0.0,0.0,0.0,0.0,0.0,0.0,0.0,0.0,0.0,0.0,0.0,0.0,0.0,0.0,0.0,0.0,0.0,0.0,0.0,0.0,0.0,0.0,0.0,0.0,0.0,0.0,0.0,0.0,0.0,0.0,0.0,0.0,0.0,0.0,0.0,0.0,0.0,0.0,0.0,0.0,0.0,0.0,0.0,0.0,0.0,0.0,0.0,0.0,0.0,0.0,0.0,0.0,0.0,0.0,0.0,0.0,0.0,0.0,0.0,0.0,0.0,0.0,0.0,0.0,0.0,0.0,0.0,0.0,0.0,0.0,0.0,0.0,0.0,0.0,0.0,0.0,0.0,0.0,0.0,0.0,0.0,0.0,0.0,0.0,0.0,0.0,0.0,0.0,0.0,0.0,0.0,0.0,0.0,0.0,0.0,0.0,0.0,0.0,0.0,0.0,0.0,0.0,0.0,0.0,0.0,0.0,0.0,0.0,0.0,0.0,0.0,0.0,0.0,0.0,0.0,0.0,0.0,0.0,0.0,0.0,0.0,0.0,0.0,0.0,0.0,0.0,0.0,0.0,0.0,0.0,0.0,0.0,0.0,0.0,0.0,0.0,0.0,0.0,0.0,0.0,0.0,0.0,0.0,0.0,0.0,0.0,0.0,0.0,0.0,0.0,0.0,0.0,0.0,0.0,0.0,0.0,0.0,0.0,0.0,0.0,0.0,0.0,0.0,0.0,0.0,0.0,0.0,0.0,0.0,0.0,0.0,0.0,0.0,0.0,0.0,0.0,0.0,0.0,0.0,0.0,0.0,0.0,0.0,0.0,0.0,0.0,0.0,0.0,0.0,0.0,0.0,0.0,0.0,0.0,0.0,0.0,0.0,0.0,0.0,0.0,0.0,0.0,0.0,0.0,0.0,0.0,0.0,0.0,0.0,0.0,0.0,0.0,0.0,0.0,0.0,0.0,0.0,0.0,0.0,0.0,0.0,0.0,0.0,0.0,0.0,0.0,0.0,0.0,0.0,0.0,0.0,0.0,0.0,0.0,0.0,0.0,0.0,0.0,0.0,0.0,0.0,0.0,0.0,0.0,0.0,0.0,0.0,0.0,0.0,0.0,0.0,0.0,0.0,0.0,0.0,0.0,0.0,0.0,0.0,0.0,0.0,0.0,0.0,0.0,0.0,0.0,0.0,0.0,0.0,0.0,0.0,0.0,0.0,0.0,0.0,0.0,0.0,0.0,0.0,0.0,0.0,0.0,0.0,0.0,0.0,0.0,0.0,0.0,0.0,0.0,0.0,0.0,0.0,0.0,0.0,0.0,0.0,0.0,0.0,0.0,0.0,0.0,0.0,0.0,0.0,0.0,0.0,0.0,0.0,0.0,0.0,0.0,0.0,0.0,0.0,0.0,0.0,0.0,0.0,0.0,0.0,0.0,0.0,0.0,0.0,0.0,0.0,0.0,0.0,0.0,0.0,0.0,0.0,0.0,0.0,0.0,0.0,0.0,0.0,0.0,0.0,0.0,0.0,0.0,0.0,0.0,0.0,0.0,0.0,0.0,0.0,0.0,0.0,0.0,0.0,0.0,0.0,0.0,0.0,0.0,0.0,0.0,0.0,0.0,0.0,0.0,0.0,0.0,0.0,0.0,0.0,0.0,0.0,0.0,0.0,0.0,0.0,0.0,0.0,0.0,0.0,0.0,0.0,0.0,0.0,0.0,0.0,0.0,0.0,0.0,0.0,0.0,0.0,0.0,0.0,0.0,0.0,0.0,0.0,0.0,0.0,0.0,0.0,0.0,0.0,0.0,0.0,0.0,0.0,0.0,0.0,0.0,0.0,0.0,0.0,0.0,0.0,0.0,0.0,0.0,0.0,0.0,0.0,0.0,0.0,0.0,0.0,0.0,0.0,0.0,0.0,0.0,0.0,0.0,0.0,0.0,0.0,0.0,0.0,0.0,0.0,0.0,0.0,0.0,0.0,0.0,0.0,0.0,0.0,0.0,0.0,0.0,0.0,0.0,0.0,0.0,0.0,0.0,0.0,0.0,0.0,0.0,0.0,0.0,0.0,0.0,0.0,0.0,0.0,0.0,0.0,0.0,0.0,0.0,0.0,0.0,0.0,0.0,0.0,0.0,0.0,0.0,0.0,0.0,0.0,0.0,0.0,0.0,0.0,0.0,0.0,0.0,0.0,0.0,0.0,0.0,0.0,0.0,0.0,0.0,0.0,0.0,0.0,0.0,0.0,0.0,0.0,0.0,0.0,0.0,0.0,0.0,0.0,0.0,0.0,0.0,0.0,0.0,0.0,0.0,0.0,0.0,0.0,0.0,0.0,0.0,0.0,0.0,0.0,0.0,0.0,0.0,0.0,0.0,0.0,0.0,0.0,0.0,0.0,0.0,0.0,0.0,0.0,0.0,0.0,0.0,0.0,0.0,0.0,0.0,0.0,0.0,0.0,0.0,0.0,0.0,0.0,0.0,0.0,0.0,0.0,0.0,0.0,0.0,0.0,0.0,0.0,0.0,0.0,0.0,0.0,0.0,0.0,0.0,0.0,0.0,0.0,0.0,0.0,0.0,0.0,0.0,0.0,0.0,0.0,0.0,0.0,0.0,0.0,0.0,0.0,0.0,0.0,0.0,0.0,0.0,0.0,0.0,0.0,0.0,0.0,0.0,0.0,0.0,0.0,0.0,0.0,0.0,0.0,0.0,0.0,0.0,0.0,0.0,0.0,0.0,0.0,0.0,0.0,0.0,0.0,0.0,0.0,0.0,0.0,0.0,0.0,0.0,0.0,0.0,0.0,0.0,0.0,0.0,0.0,0.0,0.0,0.0,0.0,0.0,0.0,0.0,0.0,0.0,0.0,0.0,0.0,0.0,0.0,0.0,0.0,0.0,0.0,0.0,0.0,0.0,0.0,0.0,0.0,0.0,0.0,0.0,0.0,0.0,0.0,0.0,0.0,0.0,0.0,0.0,0.0,0.0,0.0,0.0,0.0,0.0,0.0,0.0,0.0,0.0,0.0,0.0,0.0,0.0,0.0,0.0,0.0,0.0,0.0,0.0,0.0,0.0,0.0,0.0,0.0,0.0,0.0,0.0,0.0,0.0,0.0,0.0,0.0,0.0,0.0,0.0,0.0,0.0,0.0,0.0,0.0,0.0,0.0,0.0,0.0,0.0,0.0,0.0,0.0,0.0,0.0,0.0,0.0,0.0,0.0,0.0,0.0,0.0,0.0,0.0,0.0,0.0,0.0,0.0,0.0,0.0,0.0,0.0,0.0,0.0,0.0,0.0,0.0,0.0,0.0,0.0,0.0,0.0,0.0,0.0,0.0,0.0,0.0,0.0,0.0,0.0,0.0,0.0,0.0,0.0,0.0,0.0,0.0,0.0,0.0,0.0,0.0,0.0,0.0,0.0,0.0,0.0,0.0,0.0,0.0,0.0,0.0,0.0,0.0,0.0,0.0,0.0,0.0,0.0,0.0,0.0,0.0,0.0,0.0,0.0,0.0,0.0,0.0,0.0,0.0,0.0,0.0,0.0,0.0,0.0,0.0,0.0,0.0,0.0,0.0,0.0,0.0,0.0,0.0,0.0,0.0,0.0,0.0,0.0,0.0,0.0,0.0,0.0,0.0,0.0,0.0,0.0,0.0,0.0,0.0,0.0,0.0,0.0,0.0,0.0,0.0,0.0,0.0,0.0,0.0,0.0,0.0,0.0,0.0,0.0,0.0,0.0,0.0,0.0,0.0,0.0,0.0,0.0,0.0,0.0,0.0,0.0,0.0,0.0,0.0,0.0,0.0,0.0,0.0,0.0,0.0,0.0,0.0,0.0,0.0,0.0,0.0,0.0,0.0,0.0,0.0,0.0,0.0,0.0,0.0,0.0,0.0,0.0,0.0,0.0,0.0,0.0,0.0,0.0,0.0,0.0,0.0,0.0,0.0,0.0,0.0,0.0,0.0,0.0,0.0,0.0,0.0,0.0,0.0,0.0,0.0,0.0,0.0,0.0,0.0,0.0,0.0,0.0,0.0,0.0,0.0,0.0,0.0,0.0,0.0,0.0,0.0,0.0,0.0,0.0,0.0,0.0,0.0,0.0,0.0,0.0,0.0,0.0,0.0,0.0,0.0,0.0,0.0,0.0,0.0,0.0,0.0,0.0,0.0,0.0,0.0,0.0,0.0,0.0,0.0,0.0,0.0,0.0,0.0,0.0,0.0,0.0,0.0,0.0,0.0,0.0,0.0,0.0,0.0,0.0,0.0,0.0,0.0,0.0,0.0,0.0,0.0,0.0,0.0,0.0,0.0,0.0,0.0,0.0,0.0,0.0,0.0,0.0,0.0,0.0,0.0,0.0,0.0,0.0,0.0,0.0,0.0,0.0,0.0,0.0,0.0,0.0,0.0,0.0,0.0,0.0,0.0,0.0,0.0,0.0,0.0,0.0,0.0,0.0,0.0,0.0,0.0,0.0,0.0,0.0,0.0,0.0,0.0,0.0,0.0,0.0,0.0,0.0,0.0,0.0,0.0,0.0,0.0,0.0,0.0,0.0,0.0,0.0,0.0,0.0,0.0,0.0,0.0,0.0,0.0,0.0,0.0,0.0,0.0,0.0,0.0,0.0,0.0,0.0,0.0,0.0,0.0,0.0,0.0,0.0,0.0,0.0,0.0,0.0,0.0,0.0,0.0,0.0,0.0,0.0,0.0,0.0,0.0,0.0,0.0,0.0,0.0,0.0,0.0,0.0,0.0,0.0,0.0,0.0,0.0,0.0,0.0,0.0,0.0,0.0,0.0,0.0,0.0,0.0,0.0,0.0,0.0,0.0,0.0,0.0,0.0,0.0,0.0,0.0,0.0,0.0,0.0,0.0,0.0,0.0,0.0,0.0,0.0,0.0,0.0,0.0,0.0,0.0,0.0,0.0,0.0,0.0,0.0,0.0,0.0,0.0,0.0,0.0,0.0,0.0,0.0,0.0,0.0,0.0,0.0,0.0,0.0,0.0,0.0,0.0,0.0,0.0,0.0,0.0,0.0,0.0,0.0,0.0,0.0,0.0,0.0,0.0,0.0,0.0,0.0,0.0,0.0,0.0,0.0,0.0,0.0,0.0,0.0,0.0,0.0,0.0,0.0,0.0,0.0,0.0,0.0,0.0,0.0,0.0,0.0,0.0,0.0,0.0,0.0,0.0,0.0,0.0,0.0,0.0,0.0,0.0,0.0,0.0,0.0,0.0,0.0,0.0,0.0,0.0,0.0,0.0,0.0,0.0,0.0,0.0,0.0,0.0,0.0,0.0,0.0,0.0,0.0,0.0,0.0,0.0,0.0,0.0,0.0,0.0,0.0,0.0,0.0,0.0,0.0,0.0,0.0,0.0,0.0,0.0,0.0,0.0,0.0,0.0,0.0,0.0,0.0,0.0,0.0,0.0,0.0,0.0,0.0,0.0,0.0,0.0,0.0,0.0,0.0,0.0,0.0,0.0,0.0,0.0,0.0,0.0,-2.9118,0.0,0.0,0.0,0.0,0.0,0.0,0.0,0.0,0.0,0.0,0.0,0.0,0.0,0.0,0.0,0.0,0.0,0.0,0.0,0.0,0.0,0.0,0.0,0.0,-2.2986,-2.3165,-2.3138,-2.3397,-2.3545,-2.3516,0.0,0.0,0.0,0.0,0.0,-2.3103,-2.295,-2.3096,-2.3546,-2.3364,-2.3975,-2.5241,-2.4533,-2.3486,-2.2224,0.0,0.0,0.0,0.0,0.0,0.0,0.0,0.0,0.0,0.0,0.0,0.0,0.0,0.0,0.0,0.0,0.0,0.0,0.0,0.0,0.0,0.0,0.0,0.0,0.0,0.0,0.0,0.0,0.0,0.0,0.0,0.0,0.0,0.0,0.0,0.0,0.0,0.0,0.0,0.0,0.0,0.0,0.0,0.0,0.0,0.0,0.0,0.0,0.0,0.0,0.0,0.0,0.0,0.0,0.0,0.0,0.0,0.0,0.0,0.0,0.0,0.0,0.0,0.0,0.0,0.0,0.0,0.0,0.0,0.0,0.0,-3.1444,0.0,0.0,0.0,0.0,0.0,0.0,0.0,0.0,0.0,0.0,0.0,0.0,0.0,0.0,0.0,0.0,0.0,0.0,0.0,0.0,0.0,-2.1187,-2.2703,-2.3399,-2.3796,-2.3984,-2.4428,-2.4739,-2.4785,0.0,0.0,0.0,0.0,-2.4365,-2.408,-2.4083,-2.443,-2.5171,-2.5611,-2.6642,-2.8104,-2.8781,0.0,0.0,-2.5241,0.0,0.0,0.0,0.0,0.0,0.0,0.0,0.0,0.0,0.0,0.0,0.0,0.0,0.0,0.0,0.0,0.0,0.0,0.0,0.0,0.0,0.0,0.0,0.0,0.0,0.0,0.0,0.0,0.0,0.0,0.0,0.0,0.0,0.0,0.0,0.0,0.0,0.0,0.0,0.0,0.0,0.0,0.0,0.0,0.0,0.0,0.0,0.0,0.0,0.0,0.0,0.0,0.0,0.0,0.0,0.0,0.0,0.0,0.0,0.0,0.0,0.0,0.0,-3.7168,-3.7821,-3.8789,-3.8789,-3.905,-3.9337,-3.6933,-3.5835,-3.56,0.0,0.0,0.0,0.0,0.0,0.0,0.0,0.0,0.0,0.0,0.0,0.0,0.0,0.0,0.0,0.0,0.0,0.0,0.0,0.0,-2.2005,-2.3495,-2.3736,-2.4328,-2.5579,-2.5073,-2.4944,-2.5533,0.0,0.0,0.0,-2.455,-2.452,-2.4461,-2.4378,-2.4959,-2.6222,-2.8561,-3.0094,-3.0874,0.0,0.0,0.0,-2.8904,-2.7827,0.0,0.0,0.0,0.0,0.0,0.0,0.0,0.0,0.0,0.0,0.0,0.0,0.0,0.0,0.0,0.0,0.0,0.0,0.0,0.0,0.0,0.0,0.0,0.0,0.0,0.0,0.0,0.0,0.0,0.0,0.0,0.0,0.0,0.0,0.0,0.0,0.0,0.0,0.0,0.0,0.0,0.0,-3.1797,-3.2752,0.0,0.0,0.0,0.0,0.0,0.0,0.0,0.0,0.0,0.0,0.0,0.0,0.0,0.0,-3.7998,-3.9323,-4.0034,-4.0271,-4.1503,-4.2186,-4.2343,-4.2343,-4.2396,-4.2422,-4.2056,0.0,-3.7508,-3.6671,0.0,0.0,0.0,0.0,0.0,0.0,0.0,0.0,0.0,0.0,0.0,0.0,0.0,0.0,0.0,0.0,0.0,0.0,0.0,0.0,0.0,-2.4913,-2.609,-2.7091,-2.7913,-2.8151,0.0,0.0,0.0,-2.5875,-2.5809,-2.5946,-2.6353,-2.6465,-2.7518,-2.9546,-3.2035,-3.3429,0.0,0.0,0.0,0.0,0.0,0.0,0.0,0.0,0.0,0.0,0.0,0.0,0.0,0.0,0.0,0.0,0.0,0.0,0.0,0.0,0.0,0.0,0.0,0.0,0.0,0.0,0.0,0.0,0.0,0.0,0.0,0.0,0.0,0.0,0.0,0.0,0.0,0.0,0.0,0.0,0.0,0.0,0.0,0.0,0.0,0.0,0.0,-3.1767,-3.4814,-3.5091,-3.546,-3.5153,0.0,0.0,0.0,0.0,0.0,0.0,0.0,0.0,0.0,-3.9789,-4.0011,-4.0709,-4.2039,-4.3131,-4.3645,-4.3885,-4.4626,-4.5182,-4.5499,-4.5283,-4.5175,-4.5175,-4.5066,-4.3938,-4.2056,-3.952,-3.7534,-3.5887,0.0,0.0,0.0,0.0,-3.3796,-3.4424,0.0,0.0,0.0,0.0,0.0,0.0,0.0,0.0,0.0,0.0,0.0,0.0,-2.419,-2.6158,-2.7775,-2.8834,0.0,0.0,0.0,0.0,0.0,-2.7165,-2.6894,-2.7097,-2.7772,-2.8655,-3.0319,0.0,0.0,0.0,0.0,0.0,0.0,0.0,0.0,0.0,0.0,0.0,0.0,0.0,0.0,0.0,0.0,0.0,0.0,0.0,0.0,0.0,0.0,0.0,0.0,0.0,0.0,0.0,0.0,0.0,0.0,0.0,0.0,0.0,0.0,0.0,0.0,0.0,0.0,0.0,0.0,0.0,0.0,0.0,0.0,0.0,0.0,0.0,0.0,0.0,0.0,-3.4845,-3.7461,-3.7277,-3.8323,-3.82,0.0,0.0,0.0,0.0,0.0,0.0,-4.1719,-4.1926,-4.2587,-4.3739,-4.3796,-4.434,-4.5607,-4.6062,-4.6383,-4.6482,-4.6701,-4.6941,-4.7256,-4.7033,-4.6922,-4.681,-4.6586,-4.6238,-4.5584,-4.2134,-4.0252,-3.939,-3.7403,-3.6776,-3.7011,-3.7168,-3.7299,-3.7717,0.0,0.0,0.0,0.0,0.0,0.0,0.0,0.0,0.0,0.0,0.0,-2.4202,0.0,0.0,0.0,0.0,0.0,0.0,0.0,0.0,0.0,-2.7774,-2.7199,-2.7199,-2.7772,-3.0228,0.0,0.0,0.0,0.0,0.0,0.0,0.0,0.0,0.0,0.0,0.0,0.0,0.0,0.0,0.0,0.0,0.0,0.0,0.0,0.0,0.0,0.0,0.0,0.0,0.0,0.0,0.0,0.0,0.0,0.0,0.0,0.0,0.0,0.0,0.0,0.0,0.0,0.0,0.0,0.0,0.0,0.0,0.0,0.0,0.0,0.0,0.0,0.0,0.0,0.0,0.0,0.0,0.0,-3.9431,-4.1678,0.0,0.0,0.0,0.0,-4.2294,-4.3425,-4.4907,-4.6715,-4.5705,-4.618,-4.8583,-4.7713,-4.7459,-4.8002,-4.781,-4.7728,-4.7645,-4.7451,-4.7229,-4.6895,-4.6895,-4.681,-4.6473,-4.6473,-4.6447,-4.629,-4.4434,-4.2997,-4.1873,-4.0644,-3.986,-3.9494,-4.0017,-4.0566,-4.1141,0.0,0.0,0.0,-1.8438,-1.8884,-1.9533,-2.0291,-2.1083,-2.1867,-2.2599,-2.3715,0.0,0.0,0.0,0.0,0.0,0.0,0.0,0.0,0.0,0.0,-3.0764,-2.9641,-3.0027,-3.2283,-3.417,0.0,0.0,0.0,0.0,0.0,0.0,0.0,0.0,0.0,0.0,0.0,0.0,0.0,0.0,0.0,0.0,0.0,0.0,0.0,0.0,0.0,0.0,0.0,0.0,0.0,0.0,0.0,0.0,0.0,0.0,0.0,0.0,0.0,0.0,0.0,0.0,0.0,0.0,0.0,0.0,0.0,0.0,0.0,0.0,0.0,0.0,0.0,0.0,0.0,0.0,0.0,0.0,0.0,-4.2786,-4.4787,0.0,0.0,-4.4633,-4.6018,-4.6449,-4.811,-4.9131,-4.9339,-4.8866,-4.8793,-4.9061,-4.8709,-4.8678,-4.905,-4.9162,-4.9162,-4.8938,-4.905,-4.905,-4.8938,-4.8712,-4.8486,-4.8144,-4.7942,-4.7801,-4.7492,-4.6499,-4.5428,-4.4278,-4.3101,-4.2526,-4.2317,-4.216,-4.2239,-4.2448,0.0,-1.8678,0.0,-1.8522,-1.9156,-1.9843,-2.0325,-2.129,-2.2324,-2.3295,-2.4653,0.0,0.0,0.0,0.0,0.0,0.0,0.0,0.0,0.0,-3.137,-3.236,-3.1636,-3.2563,-3.5463,0.0,0.0,0.0,0.0,0.0,0.0,0.0,0.0,0.0,0.0,0.0,0.0,0.0,0.0,0.0,0.0,0.0,-2.955,0.0,0.0,0.0,0.0,0.0,0.0,0.0,0.0,0.0,0.0,0.0,0.0,0.0,0.0,0.0,0.0,0.0,0.0,0.0,0.0,0.0,0.0,0.0,0.0,0.0,0.0,0.0,0.0,0.0,0.0,0.0,0.0,0.0,0.0,0.0,-4.5249,-4.5249,-4.7465,-4.8173,-4.6142,-4.8204,-4.9866,-5.0297,-5.1805,-5.2612,-5.224,-5.2111,-5.1683,-5.0849,-5.0464,-5.0238,-5.0081,-5.0005,-4.9897,-4.9783,-4.9897,-4.9897,-4.9897,-4.967,-4.9469,-4.9125,-4.8895,-4.8663,-4.8405,-4.7896,-4.7293,-4.6369,-4.5192,-4.4748,-4.4696,-4.4121,-4.3912,-4.3833,-1.8843,-1.8807,-1.8734,-1.8526,-1.9573,-2.0418,-2.0418,-2.1729,-2.3219,-2.4619,0.0,0.0,0.0,0.0,0.0,0.0,0.0,0.0,0.0,-3.3243,-3.2462,-3.2415,-3.3186,-3.4712,-3.7001,0.0,0.0,0.0,0.0,0.0,0.0,0.0,0.0,0.0,0.0,0.0,0.0,0.0,0.0,0.0,0.0,0.0,-3.4137,0.0,0.0,0.0,0.0,0.0,0.0,0.0,0.0,0.0,0.0,0.0,0.0,0.0,0.0,0.0,0.0,0.0,0.0,0.0,0.0,0.0,0.0,0.0,0.0,0.0,0.0,0.0,0.0,0.0,0.0,0.0,0.0,0.0,-4.2725,-4.5064,-4.6757,-4.6788,-4.9743,-5.1005,-4.9004,-5.1836,-5.3775,-5.3806,-5.4453,-5.5099,-5.5745,-5.5387,-5.4908,-5.4264,-5.329,-5.21,-5.0932,-5.0363,-5.0064,-5.0064,-5.0064,-4.9951,-4.9637,-4.9637,-4.9522,-4.9178,-4.9178,-4.9063,-4.8716,-4.8716,-4.8574,-4.8068,-4.6944,-4.6499,-4.6447,-4.5846,-4.5611,-4.5454,-1.913,-1.9031,-1.8895,-1.8734,-1.9916,-2.0859,-2.0705,-2.1989,-2.351,0.0,0.0,0.0,0.0,0.0,0.0,0.0,0.0,0.0,-3.5416,0.0,-3.3059,-3.4641,-3.7577,0.0,0.0,0.0,0.0,0.0,0.0,0.0,0.0,0.0,0.0,0.0,0.0,0.0,0.0,0.0,0.0,0.0,0.0,0.0,-3.4999,0.0,0.0,0.0,0.0,0.0,0.0,0.0,0.0,0.0,0.0,0.0,0.0,0.0,0.0,0.0,0.0,0.0,0.0,0.0,0.0,0.0,0.0,0.0,0.0,0.0,0.0,0.0,0.0,0.0,0.0,0.0,0.0,-4.5495,-4.5495,-4.8266,-5.0482,-5.0974,-5.2729,-5.3683,-5.3098,-5.433,-5.5376,-5.5899,-5.6546,-5.6899,-5.6707,-5.6612,-5.5719,-5.3862,-5.3528,-5.2767,-5.1557,-5.1421,-5.1339,-5.1339,-5.1339,-5.1223,-5.1223,-5.1223,-5.099,-5.0757,-5.0757,-5.0398,-4.9648,-4.9648,-4.9266,-4.8469,-4.7503,-4.71,-4.697,-4.6003,-4.5349,-4.4983,-1.9292,-1.913,-1.9055,-1.9217,-2.0269,-2.1135,-2.1238,-2.2294,-2.3692,0.0,0.0,0.0,0.0,0.0,0.0,0.0,0.0,0.0,-3.4882,-3.4194,-3.4897,0.0,0.0,0.0,0.0,0.0,0.0,0.0,0.0,0.0,0.0,0.0,0.0,0.0,0.0,0.0,0.0,0.0,0.0,0.0,0.0,0.0,-3.703,-3.5645,-3.4291,-3.3029,-3.2351,-3.1305,-3.0228,-3.0228,0.0,0.0,0.0,0.0,0.0,0.0,0.0,0.0,0.0,0.0,0.0,0.0,0.0,0.0,0.0,0.0,0.0,0.0,0.0,0.0,0.0,0.0,0.0,0.0,-4.6726,-4.8943,-4.9497,-5.1036,-5.2483,-5.3437,-5.4483,-5.5253,-5.5561,-5.6176,-5.6854,-5.7562,-5.7962,-5.8132,-5.7789,-5.8061,-5.7348,-5.5487,-5.5487,-5.4599,-5.2972,-5.2724,-5.2267,-5.1828,-5.1828,-5.1828,-5.1828,-5.1828,-5.1711,0.0,-5.1593,-5.1169,-5.0586,-5.0345,-4.9791,0.0,0.0,0.0,0.0,0.0,-4.5976,-4.548,-1.9418,-1.9364,-1.9487,-1.9987,-2.0773,-2.1483,-2.1917,-2.2647,-2.3909,0.0,0.0,0.0,0.0,0.0,0.0,0.0,0.0,0.0,0.0,0.0,0.0,0.0,0.0,0.0,0.0,0.0,0.0,0.0,0.0,0.0,0.0,0.0,0.0,0.0,0.0,0.0,0.0,0.0,0.0,0.0,0.0,0.0,-3.9493,-3.8231,-3.6938,-3.5737,-3.506,-3.3644,-3.2074,-3.1982,0.0,0.0,0.0,0.0,0.0,0.0,0.0,0.0,0.0,0.0,0.0,0.0,0.0,0.0,0.0,0.0,0.0,0.0,0.0,0.0,0.0,0.0,0.0,0.0,-5.0205,-5.239,-5.3745,-5.3437,-5.3498,-5.4699,-5.5468,-5.6176,-5.6823,-5.75,-5.8177,-5.8854,-5.8885,-5.8947,-5.9008,0.0,0.0,0.0,0.0,-5.7034,-5.4597,-5.4035,-5.324,-5.2018,-5.2018,-5.2018,-5.2018,-5.2018,-5.2018,-5.2018,-5.2018,-5.1873,-5.1556,-5.1017,-5.0345,-4.9573,-4.8901,-4.8521,-4.8158,-4.7712,-4.7136,-4.6533,-2.0246,-2.0779,-2.1223,-2.1224,-2.2007,-2.2628,-2.256,-2.3184,-2.4359,-2.6329,0.0,0.0,0.0,0.0,0.0,0.0,0.0,0.0,0.0,0.0,0.0,0.0,0.0,0.0,0.0,0.0,0.0,0.0,0.0,0.0,0.0,0.0,0.0,0.0,0.0,0.0,0.0,0.0,0.0,0.0,0.0,0.0,-4.0262,-3.9431,-3.8631,-3.7831,-3.7153,-3.6661,-3.623,-3.5676,-3.4691,-3.3583,-3.2844,0.0,0.0,0.0,0.0,0.0,0.0,0.0,0.0,0.0,0.0,0.0,0.0,0.0,0.0,0.0,0.0,0.0,0.0,0.0,0.0,-4.9805,-5.1929,-5.3806,-5.513,-5.5191,-5.5222,-5.5468,-5.6607,-5.7438,-5.7562,-5.8177,-5.8854,-5.9532,-5.9593,-5.9839,-6.0363,-6.0547,0.0,-5.88,-5.88,-5.768,-5.5215,-5.5102,-5.4491,-5.3266,0.0,0.0,-5.3266,-5.3266,-5.3266,-5.3266,-5.3266,-5.2995,-5.2415,-5.2306,-5.1449,-5.0184,-4.9133,-4.8488,-4.8346,-4.8603,-4.8046,-4.7336,-2.1676,-2.1767,-2.1861,-2.2023,-2.2592,-2.3051,-2.3204,-2.3562,-2.4396,-2.6136,-2.7049,0.0,0.0,0.0,0.0,0.0,0.0,0.0,0.0,0.0,0.0,0.0,0.0,0.0,0.0,0.0,0.0,0.0,0.0,0.0,0.0,0.0,0.0,0.0,0.0,0.0,0.0,0.0,0.0,0.0,0.0,0.0,-4.2417,-4.1063,-4.0139,-3.9431,-3.8754,-3.8292,-3.7954,-3.7615,-3.6815,-3.5922,-3.5584,-3.4075,-3.2167,0.0,0.0,0.0,0.0,0.0,0.0,0.0,0.0,0.0,0.0,0.0,0.0,0.0,0.0,-4.5033,0.0,0.0,-5.1097,-5.2483,-5.3837,-5.5068,-5.6084,-5.6238,-5.6238,-5.6238,-5.7131,-5.79,-5.8239,-5.8885,-5.9562,-6.024,-6.0301,-6.0455,-6.0794,-6.0794,-6.0555,-5.9895,-5.9895,-5.9009,-5.7187,-5.7187,-5.6651,-5.5412,-5.4852,-5.4497,-5.4497,-5.3833,-5.3592,-5.3592,-5.3592,-5.3429,-5.313,-5.2712,-5.1971,-5.1134,-5.0372,-4.9471,-4.8725,-4.9019,-4.8752,-4.8246,-2.2832,-2.2611,-2.241,-2.2824,-2.3086,-2.3399,-2.3826,-2.3858,-2.4324,-2.56,-2.6152,-2.6929,-2.8216,-2.8347,0.0,0.0,0.0,0.0,0.0,0.0,0.0,0.0,0.0,0.0,0.0,0.0,0.0,0.0,0.0,0.0,0.0,0.0,0.0,0.0,0.0,0.0,0.0,0.0,0.0,0.0,0.0,0.0,-4.4572,-4.2848,-4.1586,-4.0632,-3.9955,-3.9185,-3.8477,-3.8354,-3.7861,-3.7307,-3.7307,-3.6076,-3.4414,-3.3183,-3.2321,0.0,0.0,0.0,0.0,0.0,0.0,0.0,0.0,0.0,-4.2725,-4.491,-4.7188,-4.9189,-5.0451,-5.2206,-5.3899,-5.513,-5.5869,-5.6453,-5.6884,-5.6946,-5.6915,-5.6792,-5.7469,-5.8177,-5.8731,-5.9501,-6.0209,-6.0763,-6.0794,-6.0855,-6.0978,-6.1009,-6.104,-6.1194,-6.1194,-6.0547,-5.9189,-5.9189,-5.8445,-5.6849,-5.5848,-5.5295,-5.506,-5.4047,-5.3592,-5.3592,-5.3592,-5.3592,-5.3565,-5.2836,-5.2296,-5.1991,-5.1782,-5.0874,-4.956,-4.9454,-4.94,-4.932,-2.2832,-2.3492,-2.3969,-2.4024,-2.406,-2.408,-2.417,-2.4151,-2.4365,-2.4968,-2.5672,-2.6128,-2.6071,-2.7252,0.0,0.0,0.0,0.0,0.0,0.0,0.0,0.0,0.0,0.0,0.0,0.0,0.0,0.0,0.0,0.0,0.0,0.0,0.0,0.0,0.0,0.0,0.0,0.0,0.0,0.0,0.0,0.0,-4.5372,-4.4572,-4.3094,-4.137,-4.0662,-3.9585,-3.8415,-3.78,-3.7153,-3.6599,-3.6599,-3.6045,-3.5214,-3.4475,0.0,-3.3429,-3.4599,-3.6846,0.0,-3.977,-4.1001,-4.331,0.0,0.0,-4.845,-5.1128,-5.239,-5.3283,-5.4022,-5.5345,-5.6546,-5.7315,-5.7993,-5.8239,-5.7746,-5.7654,-5.7438,-5.6823,-5.79,-5.8701,-5.8762,-5.9932,-6.0732,-6.0794,-6.0794,-6.1071,-6.1656,-6.1686,-6.1963,-6.2579,-6.2579,-6.1737,-5.9877,-5.9877,-5.8444,-5.5616,-5.55,-5.4825,-5.3833,-5.3713,-5.3592,-5.3592,-5.3592,-5.3592,-5.3592,-5.3537,-5.3158,-5.2615,-5.2615,-5.209,-5.144,-5.0898,-5.0682,-5.0601,-2.3456,-2.3969,-2.419,-2.419,-2.419,-2.419,-2.419,-2.419,-2.4444,-2.5074,-2.5325,-2.5597,-2.6172,-2.7078,-2.8342,0.0,0.0,0.0,0.0,0.0,0.0,0.0,0.0,0.0,0.0,0.0,0.0,0.0,0.0,0.0,0.0,0.0,0.0,0.0,0.0,0.0,0.0,0.0,0.0,0.0,0.0,0.0,-4.6018,-4.4768,-4.3262,-4.1604,-4.0924,-4.0059,0.0,0.0,-3.7774,-3.7187,-3.7092,-3.6353,-3.549,-3.5241,-3.5858,0.0,-4.0158,0.0,0.0,0.0,-4.5988,-4.7896,-5.0174,-5.0851,-5.1559,-5.3498,-5.4422,-5.5068,-5.5776,-5.67,-5.7438,0.0,-5.8331,-5.867,-5.8393,-5.8023,-5.7531,-5.6854,-5.7623,-5.8362,-5.8731,-5.9655,-6.0363,-6.0763,-6.1163,-6.1502,-6.1809,-6.2179,-6.2517,-6.2794,-6.2825,-6.2457,-6.1582,-6.1582,-6.0995,-5.9674,-5.9002,-5.7974,-5.6807,-5.6121,-5.5139,-5.4107,-5.4107,-5.3917,-5.3592,-5.3592,-5.3456,-5.3212,-5.3212,-5.3076,-5.275,-5.1801,-5.1204,-5.0851,-2.3859,-2.419,-2.419,-2.419,-2.419,-2.419,-2.419,-2.419,-2.441,-2.5017,-2.4835,-2.512,-2.6151,-2.6941,-2.7857,-2.8953,-3.2194,-3.4774,0.0,0.0,0.0,0.0,0.0,0.0,0.0,0.0,0.0,0.0,0.0,0.0,0.0,0.0,0.0,0.0,0.0,0.0,0.0,0.0,0.0,0.0,0.0,0.0,-4.602,-4.462,-4.2909,-4.1255,-4.0758,-3.992,0.0,0.0,-3.753,-3.7126,-3.6909,-3.6353,-3.6074,-3.6723,-3.8492,-4.0789,-4.3324,0.0,0.0,-4.7527,-4.9712,-5.159,-5.1775,-5.2698,-5.3868,-5.5037,-5.5653,-5.6207,-5.6915,-5.7438,0.0,-5.827,-5.8731,-5.9008,-5.8824,-5.8208,-5.7531,-5.6854,-5.7008,-5.7531,-5.8423,-5.9285,-6.0086,-6.0763,-6.144,-6.1902,-6.2086,-6.2733,-6.3195,-6.3379,-6.3379,-6.3287,-6.3102,-6.3102,-6.2764,-6.2225,-6.1428,-6.0363,-5.9103,-5.7809,-5.6409,-5.4731,-5.4731,-5.4406,-5.3836,-5.3836,-5.3754,-5.3592,-5.3592,-5.3592,-5.3483,-5.2642,-5.1909,-5.1367,-2.3859,-2.419,-2.419,-2.419,-2.419,-2.419,-2.419,-2.419,-2.419,-2.4226,-2.4226,-2.452,-2.5348,-2.6613,-2.8008,-2.9538,-3.1966,-3.4366,-3.6641,-3.944,0.0,0.0,0.0,0.0,0.0,0.0,0.0,0.0,0.0,0.0,0.0,0.0,0.0,0.0,0.0,0.0,0.0,0.0,0.0,0.0,0.0,0.0,-4.5129,-4.4424,-4.2459,-4.0022,-3.9991,0.0,0.0,0.0,-3.5412,-3.5817,-3.5221,-3.5907,0.0,-3.9404,-4.1797,0.0,0.0,0.0,-4.8512,-4.8573,-5.1128,-5.3806,-5.4453,-5.513,-5.5807,-5.6546,-5.673,-5.6946,-5.7623,-5.7746,-5.8208,-5.9501,-5.9747,-5.9532,-5.8885,-5.8208,-5.7531,-5.6854,-5.6176,-5.63,0.0,-5.9008,-6.0086,-6.0763,-6.144,-6.2086,-6.2764,-6.3441,-6.4118,-6.4826,-6.4826,-6.4487,-6.381,-6.381,-6.2896,-6.1066,-6.1066,-6.0363,-5.9103,-5.7928,-5.6537,-5.5383,-5.5383,-5.503,-5.446,-5.446,-5.4107,-5.3592,-5.3592,-5.3592,-5.3592,-5.3565,-5.3158,-5.2588,-2.4006,-2.419,-2.419,-2.419,-2.419,-2.419,-2.419,-2.419,-2.4373,-2.4944,-2.5474,0.0,0.0,0.0,0.0,0.0,-3.1906,-3.3841,-3.5174,-3.8545,0.0,0.0,0.0,0.0,0.0,0.0,0.0,0.0,0.0,0.0,0.0,0.0,0.0,0.0,0.0,0.0,0.0,0.0,0.0,0.0,0.0,0.0,-4.6494,-4.5527,-4.2815,-3.9533,0.0,0.0,0.0,0.0,0.0,0.0,-3.5502,0.0,0.0,-3.9908,0.0,0.0,0.0,0.0,-5.0561,-5.2206,-5.3868,-5.5222,-5.593,-5.6238,-5.633,-5.6115,-5.5715,-5.5345,-5.513,-5.5438,-5.6207,-5.7562,-5.8547,-5.9347,-6.0024,-5.9532,-5.8701,-5.7562,-5.7623,0.0,0.0,0.0,0.0,-6.0055,-6.1163,-6.2086,-6.2764,-6.3903,-6.4641,-6.4888,-6.4888,-6.4764,-6.4549,-6.4549,-6.4175,-6.3598,-6.2755,-6.2012,-6.1668,-6.0351,-5.9285,-5.8554,-5.8554,-5.8213,-5.7468,-5.6269,-5.5631,-5.5289,-5.409,-5.3592,-5.3592,-5.3592,-5.3483,-5.3212,-2.4043,-2.419,-2.419,-2.419,-2.419,0.0,0.0,0.0,0.0,0.0,0.0,0.0,0.0,0.0,0.0,0.0,0.0,-3.3234,-3.4375,0.0,0.0,0.0,0.0,0.0,0.0,0.0,0.0,0.0,0.0,0.0,0.0,0.0,0.0,0.0,0.0,0.0,0.0,0.0,0.0,0.0,0.0,0.0,-4.5761,-4.4545,-4.188,0.0,0.0,0.0,0.0,0.0,0.0,0.0,0.0,0.0,0.0,0.0,0.0,-4.5594,0.0,-5.1639,-5.2772,-5.5008,-5.6151,-5.658,-5.6796,-5.6577,-5.6176,-5.5499,-5.4637,-5.3868,-5.3437,-5.3529,-5.433,-5.6423,-5.75,-5.8701,-6.0547,-6.0024,-5.9285,-5.8885,-5.8824,-5.8793,0.0,0.0,0.0,-6.0086,-6.1625,-6.261,-6.2794,-6.4149,-6.4888,-6.4888,-6.4888,-6.4888,-6.4888,-6.4888,-6.4888,-6.4888,-6.4045,-6.3388,-6.2899,-6.2056,-6.1233,-6.038,-6.038,-6.0032,-5.9393,-5.8169,-5.7321,-5.6592,-5.5169,-5.4375,-5.389,-5.3673,-5.3592,-5.3537,-2.4043,-2.419,-2.419,0.0,0.0,0.0,0.0,0.0,0.0,0.0,0.0,0.0,0.0,0.0,0.0,0.0,0.0,0.0,0.0,0.0,0.0,0.0,0.0,0.0,0.0,-4.1216,0.0,0.0,0.0,0.0,0.0,0.0,0.0,0.0,0.0,0.0,0.0,0.0,0.0,0.0,0.0,0.0,-4.3264,-4.1905,0.0,0.0,0.0,0.0,0.0,0.0,0.0,0.0,0.0,0.0,0.0,0.0,0.0,-4.933,-5.2094,-5.3828,-5.5124,-5.6807,-5.7704,-5.7983,-5.6981,-5.6146,-5.5438,-5.4668,-5.3437,-5.2452,0.0,0.0,-5.2637,-5.5961,-5.6638,-5.7715,-6.0455,-5.9747,-5.9408,0.0,0.0,0.0,0.0,0.0,0.0,-6.0886,0.0,-6.3502,-6.2887,-6.4149,-6.4888,-6.4888,-6.4888,-6.4888,-6.4888,-6.4888,-6.4888,-6.4888,-6.4888,-6.427,-6.3044,-6.3044,-6.232,-6.1229,-6.1229,-6.0879,-6.0326,-6.0296,-5.9094,-5.745,-5.6711,-5.565,-5.4529,-5.3957,-5.3619,-5.3592,0.0,0.0,0.0,0.0,0.0,0.0,0.0,0.0,0.0,0.0,0.0,0.0,0.0,0.0,0.0,0.0,0.0,0.0,0.0,0.0,0.0,0.0,0.0,0.0,0.0,0.0,0.0,0.0,0.0,0.0,0.0,0.0,0.0,0.0,0.0,0.0,0.0,0.0,0.0,0.0,0.0,0.0,-4.3351,0.0,0.0,0.0,0.0,0.0,0.0,0.0,0.0,0.0,0.0,0.0,-4.4875,0.0,0.0,-5.1745,-5.426,-5.6395,-5.7903,-5.8182,-5.8239,-5.7859,-5.6524,-5.5563,-5.436,-5.2175,-5.0605,-4.9035,-4.7034,0.0,0.0,-5.2606,-5.513,0.0,-6.1101,-6.1255,0.0,0.0,0.0,-6.1717,-6.1563,-6.2456,0.0,0.0,-6.2794,-6.3225,-6.3564,-6.4426,-6.4888,-6.4888,-6.4888,-6.4888,-6.4888,-6.4888,-6.4888,-6.4888,-6.4888,-6.4777,-6.4412,-6.4412,-6.4158,-6.3932,-6.3932,-6.3811,-6.3516,-6.2151,-6.1253,-6.0556,-5.8047,-5.6613,-5.5834,-5.5695,-5.4764,-5.3713,0.0,0.0,0.0,0.0,0.0,0.0,0.0,0.0,0.0,0.0,0.0,0.0,0.0,0.0,0.0,0.0,0.0,0.0,0.0,0.0,0.0,0.0,0.0,0.0,0.0,0.0,0.0,0.0,0.0,0.0,0.0,0.0,0.0,0.0,0.0,0.0,0.0,0.0,0.0,0.0,0.0,0.0,0.0,0.0,0.0,0.0,0.0,0.0,0.0,0.0,0.0,-4.2726,-4.4085,-4.5634,-4.7561,-5.0342,0.0,-5.4451,-5.705,-5.8877,-5.9852,-5.9377,-5.8774,-5.7679,-5.5007,-5.3678,-5.2079,-4.8862,-4.7318,0.0,0.0,0.0,0.0,0.0,0.0,0.0,-6.1255,-6.1809,-6.2148,0.0,-6.3225,0.0,-6.3164,-6.3841,-6.4149,0.0,-6.3718,-6.3749,-6.3841,-6.4518,-6.4888,-6.4888,-6.4888,-6.4888,-6.4888,-6.4888,-6.4888,-6.4888,-6.4888,-6.4888,-6.4888,-6.4888,-6.4888,-6.4888,0.0,-6.4888,-6.4857,-6.3731,-6.2988,-6.2187,-6.0122,-5.8838,-5.8022,-5.7619,-5.6783,-5.5687,0.0,0.0,0.0,0.0,0.0,0.0,0.0,0.0,0.0,0.0,0.0,0.0,0.0,0.0,0.0,0.0,0.0,0.0,0.0,0.0,0.0,0.0,0.0,0.0,0.0,0.0,0.0,0.0,0.0,0.0,0.0,0.0,0.0,0.0,0.0,0.0,0.0,0.0,0.0,0.0,0.0,0.0,0.0,0.0,0.0,0.0,0.0,0.0,0.0,0.0,-4.4429,-4.4875,-4.6961,-4.8952,-5.1037,-5.3818,-5.5588,-5.7168,-5.976,-6.0992,-6.134,-6.0229,-5.9283,-5.7465,-5.3315,-5.146,-4.943,-4.5615,0.0,0.0,-4.2302,0.0,-4.5618,-4.962,0.0,-5.6176,-6.1132,-6.1809,-6.2579,-6.4641,-6.4364,-6.421,-6.4826,-6.4888,-6.4888,-6.4888,-6.4888,-6.4641,-6.3995,-6.4549,-6.4888,-6.4888,-6.4888,-6.4888,-6.4888,-6.4888,-6.4888,-6.4888,-6.4888,-6.4888,-6.4888,-6.4888,-6.4888,-6.4888,0.0,0.0,-6.4888,-6.4888,-6.4158,-6.3099,-6.2415,-6.143,-6.0326,-5.9771,-5.9043,-5.8376,0.0,0.0,0.0,0.0,0.0,0.0,0.0,0.0,0.0,0.0,0.0,0.0,0.0,0.0,0.0,0.0,0.0,0.0,0.0,0.0,0.0,0.0,0.0,0.0,0.0,0.0,0.0,0.0,0.0,0.0,0.0,0.0,0.0,0.0,0.0,0.0,0.0,0.0,0.0,0.0,0.0,0.0,0.0,0.0,0.0,0.0,0.0,0.0,0.0,0.0,-4.6429,-4.9205,-5.1353,-5.2649,-5.3913,-5.6726,-5.8116,-5.9128,-6.0771,-6.1719,-6.194,-6.0548,-5.916,-5.7025,-5.342,-5.0622,0.0,0.0,0.0,-4.0783,-3.8955,0.0,0.0,-4.7558,0.0,0.0,0.0,0.0,-6.2579,0.0,0.0,0.0,0.0,0.0,0.0,0.0,0.0,0.0,-6.4734,-6.4826,-6.4888,-6.4888,-6.4888,-6.4888,-6.4888,-6.4888,-6.4888,-6.4888,-6.4888,-6.4888,-6.4888,-6.4888,-6.4888,-6.4888,-6.4888,0.0,-6.4888,-6.4888,-6.4777,-6.4382,-6.3267,-6.2276,-6.1685,-6.1451,-6.0406,-5.9102,0.0,0.0,0.0,0.0,0.0,0.0,0.0,0.0,0.0,0.0,0.0,0.0,0.0,0.0,0.0,0.0,0.0,0.0,0.0,0.0,0.0,0.0,0.0,0.0,0.0,0.0,0.0,0.0,0.0,0.0,0.0,0.0,0.0,0.0,0.0,0.0,0.0,0.0,0.0,0.0,0.0,0.0,0.0,0.0,0.0,0.0,0.0,0.0,0.0,0.0,-4.5869,-4.8794,-5.1638,-5.325,-5.4577,-5.701,-5.8464,-5.9602,-6.1024,-6.1624,-6.1561,-6.0139,-5.8278,-5.5516,-5.0749,0.0,0.0,0.0,0.0,-3.9089,-3.7592,0.0,0.0,0.0,0.0,0.0,0.0,0.0,0.0,0.0,0.0,0.0,0.0,0.0,0.0,0.0,0.0,0.0,-6.4888,-6.4888,-6.4888,-6.4888,-6.4888,-6.4888,-6.4888,-6.4888,-6.4888,-6.4888,-6.4888,-6.4888,-6.4888,-6.4888,-6.4888,-6.4888,-6.4888,0.0,-6.4888,-6.4888,-6.4888,-6.4888,-6.4158,-6.372,-6.3558,-6.3416,-6.2626,-6.1657,0.0,0.0,0.0,0.0,0.0,0.0,0.0,0.0,0.0,0.0,0.0,0.0,0.0,0.0,0.0,0.0,0.0,0.0,0.0,0.0,0.0,0.0,0.0,0.0,0.0,0.0,0.0,0.0,0.0,0.0,0.0,0.0,0.0,0.0,0.0,0.0,0.0,0.0,0.0,0.0,0.0,0.0,0.0,0.0,0.0,0.0,0.0,0.0,0.0,0.0,-4.4302,-4.6343,-4.9437,-5.1878,-5.4071,-5.6157,-5.7769,-5.9191,-6.0739,-6.115,-6.0866,-5.9602,-5.7428,-5.4128,-4.8306,-4.5992,0.0,0.0,0.0,0.0,-3.7154,0.0,0.0,0.0,0.0,0.0,0.0,0.0,0.0,0.0,0.0,0.0,0.0,0.0,0.0,0.0,0.0,0.0,-6.4888,-6.4888,-6.4888,-6.4888,-6.4888,-6.4888,-6.4888,-6.4888,-6.4888,-6.4888,-6.4888,-6.4888,-6.4888,-6.4888,-6.4888,-6.4888,-6.4888,0.0,0.0,-6.4888,-6.4888,-6.4888,-6.4888,-6.4888,-6.4888,-6.4888,-6.4549,-6.4026,0.0,0.0,0.0,0.0,0.0,0.0,0.0,0.0,0.0,0.0,0.0,0.0,0.0,0.0,0.0,0.0,0.0,0.0,0.0,0.0,0.0,0.0,0.0,0.0,0.0,0.0,0.0,0.0,0.0,0.0,0.0,0.0,0.0,0.0,0.0,0.0,0.0,0.0,0.0,0.0,0.0,0.0,0.0,0.0,0.0,0.0,0.0,0.0,0.0,0.0,0.0,-4.301,-4.4721,-4.8456,-5.2618,-5.4703,0.0,0.0,-5.9854,-6.0392,-6.0234,-5.9475,-5.7263,-5.3828,-4.892,0.0,0.0,0.0,-3.7834,-3.7272,-3.721,0.0,0.0,0.0,0.0,0.0,0.0,0.0,0.0,0.0,0.0,0.0,0.0,0.0,0.0,0.0,0.0,0.0,0.0,-6.4888,-6.4888,-6.4888,-6.4888,-6.4888,-6.4888,-6.4888,-6.4888,-6.4888,-6.4888,-6.4888,-6.4888,-6.4888,-6.4888,-6.4888,-6.4888,0.0,0.0,-6.4888,-6.4888,-6.4888,-6.4888,-6.4888,-6.4888,-6.4888,-6.4857,-6.4703,0.0,0.0,0.0,0.0,0.0,0.0,0.0,0.0,0.0,0.0,0.0,0.0,0.0,0.0,0.0,0.0,0.0,0.0,0.0,0.0,0.0,0.0,0.0,0.0,0.0,0.0,0.0,0.0,0.0,0.0,0.0,0.0,0.0,0.0,0.0,0.0,0.0,0.0,0.0,0.0,0.0,0.0,0.0,0.0,0.0,0.0,0.0,0.0,0.0,0.0,0.0,0.0,-4.1996,-4.4294,0.0,0.0,-5.3566,-5.6315,-5.799,-5.9064,-5.9444,-5.8338,-5.5967,-5.2649,-4.7751,0.0,0.0,-3.8618,-3.761,-3.7329,-3.7178,-3.7308,-3.8371,0.0,-4.2488,0.0,0.0,0.0,0.0,0.0,0.0,0.0,0.0,0.0,0.0,0.0,0.0,0.0,0.0,-6.5134,-6.4888,-6.4888,-6.4888,-6.4888,-6.4888,-6.4888,-6.4888,-6.4888,-6.4888,-6.4888,-6.4888,-6.4888,-6.4888,-6.4888,-6.4888,0.0,0.0,-6.4888,-6.4888,-6.4888,-6.4888,-6.4888,-6.4888,-6.4888,-6.4888,-6.4857,0.0,0.0,0.0,0.0,0.0,0.0,0.0,0.0,0.0,0.0,0.0,0.0,0.0,0.0,0.0,0.0,0.0,0.0,0.0,0.0,0.0,0.0,0.0,0.0,0.0,0.0,0.0,0.0,0.0,0.0,0.0,0.0,0.0,0.0,0.0,0.0,0.0,0.0,0.0,0.0,0.0,0.0,0.0,0.0,0.0,0.0,0.0,0.0,0.0,0.0,0.0,0.0,0.0,0.0,0.0,0.0,-5.05,-5.3724,-5.5746,-5.7168,-5.7832,-5.6852,-5.4672,-5.1512,0.0,0.0,-4.1683,-3.8207,-3.748,-3.748,-3.7329,-3.7238,-3.7965,0.0,-4.1049,-4.3345,0.0,0.0,0.0,0.0,0.0,0.0,0.0,0.0,0.0,0.0,0.0,0.0,0.0,-6.5565,-6.5103,-6.4918,-6.4888,-6.4888,-6.4888,-6.4888,-6.4888,-6.4888,-6.4888,-6.4888,-6.4888,-6.4888,-6.4888,-6.4888,0.0,0.0,0.0,-6.4888,-6.4888,-6.4888,-6.4888,-6.4888,-6.4888,-6.4888,-6.4888,-6.4888,0.0,0.0,0.0,0.0,0.0,0.0,0.0,0.0,0.0,0.0,0.0,0.0,0.0,0.0,0.0,0.0,0.0,0.0,0.0,0.0,0.0,0.0,0.0,0.0,0.0,0.0,0.0,0.0,0.0,0.0,0.0,0.0,0.0,0.0,0.0,0.0,0.0,0.0,0.0,0.0,0.0,0.0,0.0,0.0,0.0,0.0,0.0,0.0,0.0,0.0,0.0,0.0,0.0,0.0,0.0,0.0,-4.7308,-4.971,-5.3186,-5.464,-5.5177,-5.5146,-5.3566,-5.0753,0.0,-4.3674,-4.1683,-3.8207,-3.748,-3.748,-3.748,-3.7329,-3.7808,-3.9713,-4.118,-4.3873,0.0,0.0,0.0,0.0,0.0,0.0,0.0,0.0,0.0,0.0,0.0,0.0,0.0,-6.6273,-6.5596,-6.4918,-6.4888,-6.4888,-6.4888,-6.4888,-6.4888,-6.4888,-6.4888,-6.4888,-6.4888,-6.4888,-6.4888,0.0,0.0,0.0,0.0,-6.4888,-6.4888,-6.4888,-6.4888,-6.4888,-6.4888,-6.4888,-6.4888,-6.4888,0.0,0.0,0.0,0.0,0.0,0.0,0.0,0.0,0.0,0.0,0.0,0.0,0.0,0.0,0.0,0.0,0.0,0.0,0.0,0.0,0.0,0.0,0.0,0.0,0.0,0.0,0.0,0.0,0.0,0.0,0.0,0.0,0.0,0.0,0.0,0.0,0.0,0.0,0.0,0.0,0.0,0.0,0.0,0.0,0.0,0.0,0.0,0.0,0.0,0.0,0.0,0.0,0.0,0.0,0.0,-4.2168,0.0,0.0,-4.8256,-4.9963,-5.1227,-4.9805,-4.8604,-4.6866,-4.3358,-4.1904,-4.0546,-3.7986,-3.748,-3.748,-3.748,-3.748,-3.8591,-4.2209,-4.342,0.0,0.0,0.0,0.0,0.0,0.0,0.0,0.0,0.0,0.0,0.0,0.0,0.0,0.0,-6.7412,-6.6765,-6.5626,-6.5134,-6.4888,-6.4888,-6.4888,-6.4888,-6.4888,-6.4888,-6.4888,-6.4888,-6.4888,0.0,0.0,0.0,0.0,0.0,-6.4888,-6.4888,-6.4888,-6.4888,-6.4888,-6.4888,-6.4888,-6.4888,-6.4888,0.0,0.0,0.0,0.0,0.0,0.0,0.0,0.0,0.0,0.0,0.0,0.0,0.0,0.0,0.0,0.0,0.0,0.0,0.0,0.0,0.0,0.0,0.0,0.0,0.0,0.0,0.0,0.0,0.0,0.0,0.0,0.0,0.0,0.0,0.0,0.0,0.0,0.0,0.0,0.0,0.0,0.0,-4.0043,0.0,0.0,0.0,0.0,0.0,0.0,0.0,0.0,0.0,0.0,0.0,0.0,0.0,-4.2053,-4.4209,0.0,-4.6602,-4.7656,-4.6329,-4.5507,-4.4338,-4.181,-4.0672,-3.9661,-3.7859,-3.748,-3.748,-3.748,-3.7701,-3.8905,-4.2122,0.0,0.0,0.0,0.0,0.0,0.0,0.0,0.0,0.0,0.0,0.0,0.0,0.0,0.0,0.0,0.0,-6.7535,-6.6704,-6.578,-6.5165,-6.4888,-6.4888,-6.4888,-6.4888,-6.4888,-6.4888,-6.4888,-6.4888,0.0,0.0,0.0,0.0,0.0,-6.4888,-6.4888,-6.4888,-6.4888,-6.4888,-6.4888,-6.4888,-6.4888,-6.4888,0.0,0.0,0.0,0.0,0.0,0.0,0.0,0.0,0.0,0.0,0.0,0.0,0.0,0.0,0.0,0.0,0.0,0.0,0.0,0.0,0.0,0.0,0.0,0.0,0.0,0.0,0.0,0.0,-3.9388,-4.0146,-4.0871,0.0,0.0,0.0,0.0,0.0,0.0,0.0,0.0,0.0,0.0,-4.0008,0.0,0.0,0.0,0.0,0.0,0.0,0.0,0.0,0.0,0.0,0.0,0.0,0.0,0.0,0.0,0.0,0.0,-4.4218,-4.4306,-4.4211,-4.3769,-4.2821,-4.083,-3.9882,0.0,-3.7765,-3.748,-3.7543,-3.7733,-3.8207,-3.9093,-4.0664,0.0,0.0,0.0,0.0,0.0,0.0,0.0,0.0,0.0,0.0,0.0,0.0,0.0,0.0,0.0,-6.8304,-6.7966,-6.7935,-6.6673,-6.5657,-6.498,-6.4918,-6.4888,-6.4888,-6.4888,-6.4888,-6.4888,-6.4888,0.0,0.0,0.0,0.0,0.0,-6.4888,-6.4888,-6.4888,-6.4888,-6.4888,-6.4888,-6.4888,-6.4888,-6.4888,0.0,0.0,0.0,0.0,0.0,0.0,0.0,0.0,0.0,0.0,0.0,0.0,0.0,0.0,0.0,0.0,0.0,0.0,0.0,0.0,0.0,0.0,0.0,0.0,0.0,0.0,0.0,-3.8594,-3.9939,-4.0698,-4.0905,-4.1457,0.0,0.0,0.0,0.0,0.0,0.0,0.0,0.0,-4.0802,-4.0284,0.0,0.0,0.0,0.0,-3.8594,-3.8698,0.0,0.0,0.0,0.0,0.0,0.0,0.0,0.0,-3.8149,-3.7801,-3.9161,0.0,-4.0482,-3.9439,-3.9471,-3.9471,0.0,-3.8491,0.0,0.0,0.0,0.0,0.0,0.0,0.0,0.0,0.0,0.0,0.0,0.0,0.0,0.0,0.0,0.0,0.0,0.0,0.0,0.0,0.0,0.0,0.0,-6.8735,-6.8427,-6.7935,-6.7104,-6.6334,-6.5688,-6.5165,-6.4888,-6.4888,-6.4888,-6.4888,-6.4888,-6.4888,0.0,0.0,0.0,0.0,-6.4888,-6.4888,-6.4888,-6.4888,-6.4888,-6.4888,-6.4888,-6.4888,-6.4888,-6.4888,0.0,0.0,0.0,0.0,0.0,0.0,0.0,0.0,0.0,0.0,0.0,0.0,0.0,0.0,0.0,0.0,0.0,0.0,0.0,0.0,0.0,0.0,0.0,0.0,0.0,0.0,0.0,0.0,0.0,-4.0526,0.0,0.0,0.0,0.0,0.0,0.0,0.0,0.0,0.0,0.0,-4.0733,0.0,0.0,0.0,0.0,0.0,-3.7525,-3.7767,0.0,-3.8491,-3.9077,-3.9629,0.0,0.0,0.0,0.0,-3.75,-3.6886,-3.7367,-3.848,-3.9408,-3.8997,-3.9187,-3.9376,0.0,0.0,0.0,0.0,0.0,0.0,0.0,0.0,0.0,0.0,0.0,0.0,0.0,0.0,0.0,0.0,0.0,0.0,0.0,0.0,0.0,0.0,0.0,0.0,0.0,-6.8889,-6.8735,-6.8366,-6.772,-6.6919,-6.5903,-6.5226,-6.4888,-6.4888,-6.4888,-6.4888,-6.4888,-6.4888,-6.4888,0.0,0.0,0.0,-6.4888,-6.4888,-6.4888,-6.4888,-6.4888,-6.4888,-6.4888,-6.4888,-6.4888,-6.4888,0.0,0.0,0.0,0.0,0.0,0.0,0.0,0.0,0.0,0.0,0.0,0.0,0.0,0.0,0.0,0.0,0.0,0.0,0.0,0.0,0.0,0.0,0.0,0.0,0.0,0.0,0.0,0.0,0.0,0.0,0.0,0.0,0.0,0.0,0.0,0.0,0.0,0.0,0.0,0.0,0.0,0.0,0.0,0.0,0.0,0.0,0.0,0.0,0.0,-3.8043,-3.8801,-3.9491,-3.925,0.0,0.0,0.0,0.0,0.0,-3.7168,-3.861,-4.0008,-4.0198,-4.0514,-4.0704,0.0,0.0,0.0,0.0,0.0,0.0,0.0,0.0,0.0,0.0,0.0,0.0,0.0,0.0,0.0,0.0,0.0,0.0,0.0,0.0,0.0,0.0,0.0,0.0,0.0,-6.8889,-6.8889,-6.8889,-6.8274,-6.7381,-6.6211,-6.5534,-6.5165,-6.5042,-6.5042,-6.5011,-6.4888,-6.4888,-6.4888,0.0,0.0,0.0,-6.4888,-6.4888,-6.4888,-6.4888,-6.4888,-6.4888,-6.4888,-6.4888,-6.4888,-6.4888,0.0,0.0,0.0,0.0,0.0,0.0,0.0,0.0,0.0,0.0,0.0,0.0,0.0,0.0,0.0,0.0,0.0,0.0,0.0,0.0,0.0,0.0,0.0,0.0,0.0,0.0,0.0,0.0,0.0,0.0,-4.0905,-4.2265,-4.1767,0.0,0.0,0.0,0.0,0.0,0.0,0.0,0.0,0.0,0.0,0.0,0.0,0.0,0.0,0.0,0.0,-3.6594,-3.7594,-3.8525,-3.7215,0.0,0.0,0.0,0.0,0.0,-3.8805,-4.0691,-4.1437,-3.9374,-4.0135,-4.1114,0.0,0.0,0.0,0.0,0.0,0.0,0.0,0.0,0.0,0.0,0.0,0.0,0.0,0.0,0.0,0.0,0.0,0.0,0.0,0.0,0.0,0.0,0.0,0.0,0.0,0.0,-6.8889,-6.8889,-6.8274,-6.7812,-6.7627,-6.695,-6.6334,-6.575,-6.575,-6.5442,-6.4888,-6.4888,-6.4888,0.0,0.0,-6.4888,-6.4888,-6.4888,-6.4888,-6.4888,-6.4888,-6.4888,-6.4888,-6.4888,-6.4888,-6.4888,0.0,0.0,0.0,0.0,0.0,0.0,0.0,0.0,0.0,0.0,0.0,0.0,0.0,0.0,0.0,0.0,0.0,0.0,0.0,0.0,0.0,0.0,0.0,0.0,0.0,0.0,0.0,0.0,0.0,-4.0871,-4.0905,-4.1595,-4.0905,-3.9077,0.0,0.0,0.0,0.0,0.0,-4.0802,0.0,0.0,0.0,0.0,0.0,0.0,0.0,0.0,0.0,0.0,-3.7663,-3.8387,-3.7284,0.0,0.0,0.0,0.0,0.0,-3.7934,-3.9992,-4.1448,-4.0388,-4.2315,0.0,0.0,0.0,0.0,0.0,0.0,0.0,0.0,0.0,0.0,0.0,0.0,0.0,0.0,0.0,0.0,0.0,0.0,0.0,0.0,0.0,0.0,0.0,0.0,0.0,0.0,0.0,-6.8889,-6.8889,-6.8612,-6.8458,-6.8458,-6.7781,-6.695,-6.5903,-6.5534,-6.5195,-6.4888,-6.4888,-6.4888,-6.4888,0.0,-6.4888,-6.4888,-6.4888,-6.4888,-6.4888,-6.4888,-6.4888,-6.4888,-6.4888,-6.4888,-6.4888,0.0,0.0,0.0,0.0,0.0,0.0,0.0,0.0,0.0,0.0,0.0,0.0,0.0,0.0,0.0,0.0,0.0,0.0,0.0,0.0,0.0,0.0,0.0,0.0,0.0,0.0,0.0,-3.9698,-4.0491,-4.0974,-4.1147,-4.0974,-4.0077,0.0,0.0,0.0,0.0,0.0,0.0,-4.0526,0.0,0.0,0.0,0.0,0.0,0.0,0.0,0.0,0.0,0.0,0.0,0.0,0.0,0.0,0.0,-3.718,-3.6697,-3.6791,-3.7703,-3.9435,-4.1318,0.0,0.0,0.0,0.0,0.0,0.0,0.0,0.0,0.0,0.0,0.0,0.0,0.0,0.0,0.0,0.0,0.0,0.0,0.0,0.0,0.0,0.0,0.0,0.0,0.0,0.0,0.0,0.0,0.0,-6.8889,-6.8889,-6.8889,-6.8889,-6.8889,-6.8089,-6.7165,-6.615,-6.5442,-6.5042,-6.4888,-6.4888,-6.4888,-6.4888,-6.4888,-6.4888,-6.4888,-6.4888,-6.4888,-6.4888,-6.4888,-6.4888,-6.4888,-6.4888,-6.4888,-6.4888,0.0,0.0,0.0,0.0,0.0,0.0,0.0,0.0,0.0,0.0,0.0,0.0,0.0,0.0,0.0,0.0,0.0,0.0,0.0,0.0,0.0,0.0,0.0,0.0,0.0,-3.7801,-3.8215,-3.9698,-4.0491,-4.1216,-4.1905,-4.1216,-4.0077,-3.856,0.0,0.0,0.0,0.0,0.0,-3.9733,-3.8974,0.0,0.0,0.0,0.0,0.0,0.0,0.0,0.0,0.0,0.0,0.0,0.0,0.0,-3.856,-3.8456,-3.7939,-3.7922,-4.028,-4.0983,-4.1618,0.0,0.0,0.0,0.0,0.0,0.0,0.0,0.0,0.0,0.0,0.0,0.0,0.0,0.0,0.0,0.0,0.0,0.0,0.0,0.0,0.0,0.0,0.0,0.0,0.0,0.0,0.0,0.0,0.0,0.0,-6.8889,-6.8889,-6.8889,-6.8889,-6.7627,-6.695,-6.6827,-6.615,-6.5503,-6.4888,-6.4888,-6.4888,-6.4888,-6.4888,-6.4888,-6.4888,-6.4888,-6.4888,-6.4888,-6.4888,-6.4888,-6.4888,-6.4888,-6.4888,-6.4888,0.0,0.0,0.0,0.0,0.0,0.0,0.0,0.0,0.0,0.0,0.0,0.0,0.0,0.0,0.0,0.0,0.0,0.0,0.0,0.0,0.0,0.0,0.0,-3.6284,-3.7146,-3.8284,-3.9388,-4.0422,-4.0733,-4.1009,-4.1285,-4.0526,0.0,0.0,0.0,0.0,0.0,0.0,0.0,0.0,-3.8387,-3.7905,0.0,0.0,0.0,0.0,0.0,0.0,0.0,0.0,-3.587,-3.6732,0.0,0.0,0.0,0.0,-3.7178,-3.6741,-3.8664,-4.0197,-4.1682,0.0,0.0,0.0,0.0,0.0,0.0,0.0,0.0,0.0,0.0,0.0,0.0,0.0,0.0,0.0,0.0,0.0,0.0,0.0,0.0,0.0,0.0,0.0,0.0,0.0,0.0,0.0,0.0,0.0,0.0,-6.7689,-6.8058,-6.8089,-6.7658,-6.6735,-6.6273,-6.6273,-6.5596,-6.5165,-6.4888,-6.4888,-6.4888,-6.4888,-6.4888,-6.4888,-6.4888,-6.4888,-6.4888,-6.4888,-6.4888,-6.4888,-6.4888,-6.4888,-6.4888,-6.4888,0.0,0.0,0.0,0.0,0.0,0.0,0.0,0.0,0.0,0.0,0.0,0.0,0.0,0.0,0.0,0.0,0.0,0.0,0.0,0.0,0.0,0.0,0.0,-3.5697,-3.5939,-3.818,-3.9629,-4.0146,-4.0629,-4.0767,-4.0491,0.0,0.0,0.0,0.0,0.0,0.0,0.0,0.0,0.0,-3.7905,-3.7491,0.0,0.0,0.0,0.0,0.0,0.0,0.0,0.0,-3.5111,0.0,0.0,0.0,0.0,0.0,-3.7285,-3.7158,-3.819,-4.0008,-4.2044,0.0,0.0,0.0,0.0,0.0,0.0,0.0,0.0,0.0,0.0,0.0,0.0,0.0,0.0,0.0,0.0,0.0,0.0,0.0,0.0,0.0,0.0,0.0,0.0,0.0,0.0,0.0,0.0,0.0,0.0,0.0,-6.7381,-6.7381,-6.6919,-6.6242,-6.5903,-6.5903,-6.5226,-6.4888,-6.4888,-6.4888,-6.4888,-6.4888,-6.4888,-6.4888,-6.4888,-6.4888,-6.4888,-6.4888,-6.4888,-6.4888,-6.4888,-6.4888,-6.4888,-6.4888,0.0,0.0,0.0,0.0,0.0,0.0,0.0,0.0,0.0,0.0,0.0,0.0,0.0,0.0,0.0,0.0,0.0,0.0,0.0,0.0,0.0,0.0,0.0,-3.4421,-3.5145,-3.7387,-3.856,-3.8594,-4.0112,-4.0457,-3.9698,0.0,0.0,0.0,0.0,0.0,0.0,0.0,0.0,0.0,0.0,-3.7491,-3.7387,0.0,0.0,0.0,0.0,0.0,0.0,0.0,-3.3938,-3.5318,0.0,0.0,0.0,0.0,-3.8753,-3.9744,-3.9471,-4.0845,0.0,0.0,0.0,0.0,0.0,0.0,0.0,0.0,0.0,0.0,0.0,0.0,0.0,0.0,0.0,0.0,0.0,0.0,0.0,0.0,0.0,0.0,0.0,0.0,0.0,0.0,0.0,0.0,0.0,0.0,0.0,0.0,-6.6919,-6.6919,-6.6888,-6.6242,-6.5903,-6.5903,-6.5226,-6.4888,-6.4888,-6.4888,-6.4888,-6.4888,-6.4888,-6.4888,-6.4888,-6.4888,-6.4888,-6.4888,-6.4888,-6.4888,-6.4888,-6.4888,-6.4888,-6.4888,0.0,0.0,0.0,0.0,0.0,0.0,0.0,0.0,0.0,0.0,0.0,0.0,0.0,0.0,0.0,0.0,0.0,0.0,0.0,0.0,0.0,0.0,0.0,0.0,0.0,0.0,-3.7249,-3.9353,-3.9836,-3.9664,0.0,0.0,0.0,-3.7801,0.0,0.0,0.0,0.0,0.0,0.0,0.0,-3.7146,-3.6697,0.0,0.0,0.0,0.0,0.0,0.0,0.0,0.0,0.0,0.0,0.0,0.0,-3.8031,-3.8589,-3.9428,-3.9447,0.0,0.0,0.0,0.0,0.0,0.0,0.0,0.0,0.0,0.0,0.0,0.0,0.0,0.0,0.0,0.0,0.0,0.0,0.0,0.0,0.0,0.0,0.0,0.0,0.0,0.0,0.0,0.0,0.0,0.0,0.0,0.0,0.0,-6.5965,-6.5965,-6.5503,-6.5288,-6.5195,-6.5195,-6.5011,-6.4888,-6.4888,-6.4888,-6.4888,-6.4888,-6.4888,-6.4888,-6.4888,-6.4888,-6.4888,-6.4888,-6.4888,-6.4888,-6.4888,-6.4888,-6.4888,-6.4888,0.0,0.0,0.0,0.0,0.0,0.0,0.0,0.0,0.0,0.0,0.0,0.0,0.0,0.0,0.0,0.0,0.0,0.0,0.0,0.0,0.0,0.0,0.0,0.0,0.0,-3.4697,-3.6215,0.0,0.0,0.0,0.0,0.0,0.0,-3.7939,0.0,0.0,0.0,0.0,0.0,0.0,0.0,-3.7008,-3.6387,0.0,0.0,0.0,0.0,0.0,0.0,0.0,0.0,0.0,0.0,0.0,0.0,-3.7898,-3.8712,-3.9878,0.0,0.0,0.0,0.0,0.0,0.0,0.0,0.0,0.0,0.0,0.0,0.0,0.0,0.0,0.0,0.0,0.0,0.0,0.0,0.0,0.0,0.0,0.0,0.0,0.0,0.0,0.0,0.0,0.0,0.0,0.0,0.0,0.0,0.0,-6.5288,-6.5319,-6.4888,-6.4888,-6.4888,-6.4888,-6.4888,-6.4888,-6.4888,-6.4888,-6.4888,-6.4888,-6.4888,-6.4888,-6.4888,-6.4888,-6.4888,-6.4888,-6.4888,-6.4888,-6.4888,-6.4888,-6.4888,-6.4888,0.0,0.0,-2.635,-2.7144,0.0,0.0,0.0,0.0,0.0,0.0,0.0,-2.7282,0.0,0.0,0.0,-2.7282,0.0,0.0,0.0,0.0,0.0,0.0,0.0,0.0,0.0,0.0,0.0,0.0,0.0,0.0,0.0,0.0,-3.8491,-3.8525,0.0,-3.8698,0.0,0.0,0.0,0.0,-3.6697,-3.6801,-3.618,-3.6973,0.0,0.0,0.0,0.0,0.0,0.0,0.0,0.0,0.0,0.0,0.0,-3.74,-3.9014,0.0,0.0,0.0,0.0,0.0,0.0,0.0,0.0,0.0,0.0,0.0,0.0,0.0,0.0,0.0,0.0,0.0,0.0,0.0,0.0,0.0,0.0,0.0,0.0,0.0,0.0,0.0,0.0,0.0,0.0,0.0,0.0,0.0,0.0,-6.4888,-6.4888,-6.4888,-6.4888,-6.4888,-6.4888,0.0,-6.4888,-6.4888,-6.4888,-6.4888,-6.4888,-6.4888,-6.4888,-6.4888,-6.4888,-6.4888,-6.4888,-6.4888,-6.4888,-6.4888,-6.4888,-6.4888,-6.4888,-6.4888,0.0,0.0,-2.635,-2.7144,0.0,0.0,0.0,0.0,0.0,-2.7282,-2.7282,-2.7282,-2.7282,-2.7282,0.0,-2.7282,-2.7282,0.0,0.0,0.0,0.0,0.0,0.0,0.0,0.0,0.0,0.0,0.0,0.0,0.0,0.0,0.0,0.0,-3.7732,0.0,-3.7456,0.0,0.0,0.0,0.0,-3.5318,-3.5249,-3.4663,-3.5387,-3.5111,0.0,0.0,0.0,0.0,0.0,0.0,0.0,-3.5615,-3.6763,-3.8048,-3.6823,-3.8756,0.0,0.0,0.0,0.0,0.0,0.0,0.0,0.0,0.0,0.0,0.0,0.0,0.0,0.0,0.0,0.0,0.0,0.0,0.0,0.0,0.0,0.0,0.0,0.0,0.0,0.0,0.0,0.0,0.0,0.0,0.0,0.0,0.0,0.0,-6.4888,-6.4888,-6.4888,-6.4888,-6.4888,-6.4888,0.0,-6.4888,-6.4888,-6.4888,-6.4888,-6.4888,-6.4888,-6.4888,-6.4888,-6.4888,-6.4888,-6.4888,-6.4888,-6.4888,-6.4888,-6.4888,-6.4888,-6.4888,-6.4888,0.0,0.0,0.0,0.0,0.0,0.0,0.0,0.0,-2.7696,-2.7351,-2.7282,-2.7282,-2.7282,-2.7282,0.0,0.0,-2.7282,-2.7282,0.0,0.0,0.0,0.0,0.0,0.0,0.0,0.0,0.0,0.0,0.0,0.0,0.0,0.0,0.0,-3.8525,0.0,-3.7387,0.0,0.0,0.0,-3.3628,-3.4731,-3.4766,-3.418,-3.4904,-3.4731,-3.4145,-3.4525,0.0,0.0,0.0,0.0,0.0,0.0,0.0,-3.6621,-3.6657,-3.8051,0.0,0.0,0.0,0.0,0.0,0.0,0.0,0.0,0.0,0.0,0.0,0.0,0.0,0.0,0.0,0.0,0.0,0.0,0.0,0.0,0.0,0.0,0.0,0.0,0.0,0.0,0.0,0.0,0.0,0.0,0.0,0.0,-6.5297,-6.5297,-6.5297,-6.5187,-6.5187,-6.5297,-6.4998,-6.4998,-6.5108,-6.4998,-6.4888,-6.4888,-6.4888,-6.4888,-6.4888,-6.4888,-6.4888,-6.4888,-6.4888,-6.4888,-6.4888,-6.4888,-6.4888,-6.4888,-6.4888,-6.4888,-6.4888,0.0,0.0,0.0,0.0,0.0,0.0,0.0,0.0,0.0,-2.7385,-2.7282,-2.7282,-2.7282,-2.7282,-2.7282,0.0,0.0,0.0,-2.7282,0.0,0.0,0.0,0.0,0.0,0.0,0.0,0.0,0.0,0.0,0.0,0.0,0.0,0.0,-3.9664,0.0,0.0,0.0,0.0,0.0,-3.2628,-3.3766,-3.3835,-3.3352,-3.3973,-3.3795,-3.324,-3.3515,-3.3957,-3.4459,-3.4837,0.0,0.0,0.0,0.0,-3.4457,-3.6174,-3.7093,-3.8397,0.0,0.0,0.0,0.0,0.0,0.0,0.0,0.0,0.0,0.0,0.0,0.0,0.0,0.0,0.0,0.0,0.0,0.0,0.0,0.0,0.0,0.0,0.0,0.0,0.0,0.0,0.0,0.0,0.0,0.0,-6.57,-6.57,-6.57,-6.57,-6.5483,-6.5483,-6.5592,-6.5187,-6.5108,-6.5297,-6.5108,-6.4998,-6.4998,-6.4998,-6.4888,-6.4888,-6.4888,-6.4888,-6.4888,-6.4888,-6.4888,-6.4888,-6.4888,-6.4888,-6.4888,-6.4888,-6.4888,-6.4888,0.0,0.0,0.0,0.0,0.0,0.0,0.0,0.0,0.0,0.0,0.0,-2.7282,-2.7282,-2.7282,-2.7282,-2.7282,-2.7282,-2.7282,0.0,0.0,0.0,0.0,0.0,0.0,0.0,0.0,0.0,0.0,0.0,0.0,0.0,0.0,0.0,0.0,0.0,0.0,0.0,0.0,0.0,-3.0938,-3.0455,-3.0213,-3.0144,-3.0213,-3.0036,-2.985,-3.1031,-3.1375,-3.1533,-3.3362,-3.4006,0.0,0.0,0.0,0.0,0.0,0.0,0.0,0.0,0.0,0.0,0.0,0.0,0.0,0.0,0.0,0.0,0.0,0.0,0.0,0.0,0.0,0.0,0.0,0.0,0.0,0.0,0.0,0.0,0.0,0.0,0.0,0.0,0.0,0.0,0.0,0.0,0.0,-6.57,-6.57,-6.57,-6.57,-6.57,-6.5592,-6.5406,-6.5483,-6.5483,-6.5297,-6.5297,-6.5297,-6.5297,-6.5297,-6.5108,-6.4888,-6.4888,-6.4888,-6.4888,-6.4888,-6.4888,-6.4888,-6.4888,-6.4888,-6.4888,-6.4888,-6.4888,-6.4888,0.0,0.0,0.0,0.0,0.0,0.0,0.0,0.0,0.0,0.0,0.0,-2.7282,-2.7282,-2.7282,-2.7282,-2.7282,-2.7282,0.0,0.0,0.0,0.0,0.0,0.0,0.0,0.0,0.0,0.0,0.0,0.0,0.0,0.0,-3.887,-4.0215,0.0,0.0,0.0,0.0,0.0,0.0,-3.1248,-3.024,-3.0976,-3.2381,0.0,-3.0213,-3.1941,0.0,0.0,0.0,-3.2575,-3.3255,-3.3368,-3.3454,0.0,0.0,0.0,0.0,0.0,0.0,0.0,0.0,0.0,0.0,0.0,0.0,0.0,0.0,0.0,0.0,0.0,0.0,0.0,0.0,0.0,0.0,0.0,0.0,0.0,0.0,0.0,0.0,0.0,0.0,0.0,0.0,0.0,0.0,-6.6054,-6.6161,-6.6161,-6.6161,-6.6161,-6.6054,-6.5947,-6.6054,-6.5808,-6.5592,-6.5483,-6.5483,-6.5483,-6.5483,-6.5483,-6.5406,-6.5077,-6.5077,-6.4998,-6.4888,-6.4888,-6.4888,-6.4888,-6.4888,-6.4888,-6.4888,-6.4888,-6.4888,-6.4888,0.0,0.0,0.0,0.0,0.0,0.0,0.0,0.0,0.0,0.0,0.0,-2.7282,-2.7282,0.0,0.0,0.0,-2.7006,0.0,0.0,0.0,0.0,0.0,0.0,0.0,0.0,0.0,0.0,0.0,0.0,0.0,-3.9415,-4.0032,-4.2423,0.0,-4.3871,0.0,0.0,0.0,0.0,0.0,-3.155,-3.2648,-3.4655,-3.1978,-3.2866,-3.5037,0.0,0.0,0.0,0.0,0.0,0.0,0.0,0.0,0.0,0.0,0.0,0.0,0.0,0.0,0.0,0.0,0.0,0.0,0.0,0.0,0.0,0.0,0.0,0.0,0.0,0.0,0.0,0.0,0.0,0.0,0.0,0.0,0.0,0.0,0.0,0.0,0.0,0.0,0.0,0.0,0.0,-6.6406,-6.6617,-6.6617,-6.6617,-6.6617,-6.6406,-6.6406,-6.6512,-6.6054,-6.5839,-6.5839,-6.5839,-6.5839,-6.5839,-6.5839,-6.5731,-6.5515,-6.5406,-6.5297,-6.5108,-6.5108,-6.5108,-6.5108,-6.5108,-6.5108,-6.5108,-6.5108,-6.5108,-6.5108,0.0,0.0,0.0,0.0,0.0,0.0,0.0,0.0,0.0,0.0,0.0,-2.7282,-2.7282,-2.7282,-2.7006,-2.6247,-2.6178,0.0,0.0,0.0,0.0,0.0,0.0,0.0,0.0,0.0,0.0,0.0,0.0,0.0,-3.8702,-4.0851,-4.4303,-4.8528,-4.6251,-4.3182,-3.956,0.0,0.0,0.0,-3.4192,-3.3985,-3.443,-3.7058,-3.7945,-3.7512,0.0,0.0,0.0,0.0,0.0,0.0,0.0,0.0,0.0,0.0,0.0,0.0,0.0,0.0,0.0,0.0,0.0,0.0,0.0,0.0,0.0,0.0,0.0,0.0,0.0,0.0,0.0,0.0,0.0,0.0,0.0,0.0,0.0,0.0,0.0,0.0,0.0,0.0,0.0,0.0,0.0,-6.6617,-6.6617,-6.6617,-6.6617,-6.6617,-6.6617,-6.6512,-6.6192,-6.6192,-6.6192,-6.6192,-6.6192,-6.6192,-6.6192,-6.6192,-6.6192,-6.6085,-6.5839,-6.57,-6.57,-6.57,-6.57,-6.57,-6.57,-6.57,-6.57,-6.57,-6.57,-6.5592,0.0,0.0,0.0,0.0,0.0,0.0,0.0,0.0,0.0,0.0,0.0,0.0,0.0,-2.7282,-2.7178,-2.6902,-2.6868,0.0,0.0,0.0,0.0,0.0,0.0,0.0,0.0,0.0,0.0,0.0,0.0,-3.1497,-3.7165,-3.8501,-4.0754,-4.3768,-4.4906,-4.4665,-4.3113,-3.9353,0.0,0.0,0.0,0.0,0.0,0.0,-3.946,-4.1246,0.0,0.0,0.0,0.0,0.0,0.0,0.0,-3.1792,-3.1128,0.0,0.0,0.0,0.0,0.0,0.0,0.0,0.0,0.0,0.0,0.0,0.0,0.0,0.0,0.0,0.0,0.0,0.0,0.0,0.0,0.0,0.0,0.0,0.0,0.0,0.0,0.0,0.0,0.0,0.0,0.0,0.0,0.0,-6.6617,-6.6617,-6.6617,-6.6617,-6.6617,-6.6512,-6.6512,-6.6512,-6.6512,-6.6512,-6.6512,-6.6512,-6.6512,-6.6512,-6.6512,-6.6406,-6.6374,-6.6023,-6.57,-6.57,-6.57,-6.57,-6.57,-6.57,-6.57,-6.57,-6.57,-6.57,0.0,0.0,0.0,-2.7799,0.0,-2.7592,-2.7316,0.0,0.0,0.0,0.0,0.0,0.0,0.0,-2.7454,-2.6937,0.0,0.0,0.0,0.0,0.0,0.0,0.0,0.0,0.0,0.0,0.0,0.0,0.0,0.0,0.0,0.0,-3.8071,-4.0563,-4.1699,0.0,0.0,0.0,0.0,-3.8183,0.0,0.0,-4.1821,0.0,0.0,0.0,0.0,0.0,0.0,0.0,0.0,0.0,0.0,-3.2392,-3.0717,-3.0022,0.0,0.0,0.0,0.0,0.0,0.0,0.0,0.0,0.0,0.0,0.0,0.0,0.0,0.0,0.0,0.0,0.0,0.0,0.0,0.0,0.0,0.0,0.0,0.0,0.0,0.0,0.0,0.0,0.0,0.0,0.0,0.0,-6.6617,-6.6617,-6.6617,-6.6617,-6.6617,-6.6617,-6.6617,-6.6617,-6.6617,-6.6617,-6.6617,-6.6617,-6.6617,-6.6617,-6.6617,-6.6617,-6.6617,-6.6374,-6.6023,-6.6023,-6.6023,-6.6023,-6.6023,-6.6023,-6.6023,-6.6023,-6.6023,-6.6023,-2.9283,-2.9558,-2.9317,-2.8558,-2.842,-2.8178,-2.7454,0.0,0.0,0.0,0.0,0.0,0.0,0.0,0.0,0.0,0.0,0.0,0.0,0.0,0.0,0.0,0.0,0.0,0.0,0.0,0.0,0.0,0.0,0.0,0.0,0.0,-3.6648,0.0,-3.6871,-3.8002,-4.1739,0.0,-4.1033,-4.1264,0.0,-4.3266,-4.3971,0.0,0.0,0.0,-4.7688,-4.6518,0.0,0.0,0.0,0.0,0.0,-3.3593,-3.0148,-2.9422,-3.0717,0.0,0.0,0.0,0.0,0.0,0.0,0.0,0.0,0.0,0.0,0.0,0.0,0.0,0.0,0.0,0.0,0.0,0.0,0.0,0.0,0.0,0.0,0.0,0.0,0.0,0.0,0.0,0.0,0.0,0.0,-6.6617,-6.6617,-6.6617,-6.6617,-6.6617,-6.6617,-6.6617,-6.6617,-6.6617,-6.6617,-6.6617,-6.6617,-6.6617,-6.6617,-6.6617,-6.6617,-6.6617,-6.6617,-6.6617,-6.6617,-6.6617,-6.6617,-6.6617,-6.6617,-6.6617,-6.6617,-6.6617,-6.6617,-6.6617,-2.9678,-3.0137,-3.011,-2.9317,-2.9213,-2.9144,-2.8937,0.0,0.0,0.0,0.0,0.0,0.0,0.0,0.0,0.0,0.0,0.0,0.0,0.0,0.0,0.0,0.0,0.0,0.0,0.0,0.0,0.0,0.0,0.0,0.0,0.0,0.0,0.0,-3.4925,-3.5576,-3.6548,-3.6155,0.0,0.0,-4.0965,-4.297,0.0,0.0,0.0,0.0,0.0,-4.9489,0.0,0.0,-4.4369,-4.0672,0.0,0.0,0.0,-3.1602,-3.2898,0.0,-3.3309,0.0,0.0,0.0,0.0,0.0,0.0,0.0,0.0,0.0,0.0,0.0,0.0,0.0,0.0,0.0,0.0,0.0,0.0,0.0,0.0,0.0,0.0,0.0,0.0,0.0,0.0,0.0,-6.6617,-6.6617,-6.6617,-6.6617,-6.6617,-6.6617,-6.6617,-6.6617,-6.6617,-6.6617,-6.6617,-6.6617,-6.6617,-6.6617,-6.6617,-6.6617,-6.6617,-6.6617,-6.6617,-6.6617,-6.6617,-6.6617,-6.6617,-6.6617,-6.6617,-6.6617,-6.6617,-6.6617,-6.6617,-6.6617,-3.0122,-3.0612,-3.0791,-3.0523,-3.0516,-3.0649,-3.0867,0.0,0.0,0.0,0.0,0.0,0.0,0.0,0.0,0.0,0.0,0.0,0.0,0.0,0.0,0.0,0.0,0.0,0.0,0.0,0.0,0.0,0.0,0.0,0.0,0.0,0.0,0.0,0.0,-3.2536,-3.3974,0.0,0.0,0.0,-4.161,0.0,0.0,-4.9299,-5.0861,0.0,0.0,0.0,-5.069,-5.0974,-4.8098,0.0,0.0,-3.688,-3.5458,-3.3309,-3.4794,0.0,0.0,0.0,0.0,0.0,0.0,0.0,0.0,0.0,0.0,0.0,0.0,0.0,0.0,0.0,0.0,0.0,0.0,0.0,0.0,0.0,0.0,0.0,0.0,0.0,0.0,0.0,0.0,-6.6112,-6.6428,-6.6617,-6.6617,-6.6617,-6.6617,-6.6617,-6.6617,-6.6617,-6.6617,-6.6617,-6.6617,-6.6617,-6.6617,-6.6617,-6.6617,-6.6617,-6.6617,-6.6617,-6.6617,-6.6617,-6.6617,-6.6617,-6.6617,-6.6617,-6.6617,-6.6617,-6.6617,-6.6617,-6.6617,-6.6617,0.0,-3.0942,-3.137,-3.1819,-3.2123,-3.251,0.0,0.0,0.0,0.0,0.0,0.0,0.0,0.0,0.0,0.0,0.0,0.0,0.0,0.0,0.0,0.0,0.0,0.0,0.0,0.0,0.0,0.0,0.0,0.0,0.0,0.0,0.0,0.0,-2.7858,-2.9471,-3.2892,-3.0003,0.0,-3.7767,-4.2944,-4.5479,0.0,0.0,-5.2629,0.0,-5.3882,-5.3945,-5.3534,-5.3945,-5.1101,0.0,0.0,-4.0388,-3.9534,-3.5521,-3.7069,0.0,0.0,-3.8523,0.0,0.0,0.0,0.0,-4.4211,-4.4243,0.0,0.0,0.0,0.0,0.0,0.0,0.0,0.0,0.0,0.0,0.0,0.0,0.0,0.0,0.0,0.0,0.0,-6.3994,-6.469,-6.5385,-6.6112,-6.6523,-6.6617,-6.6617,-6.6617,-6.6617,-6.6617,-6.6617,-6.6617,-6.6617,-6.6617,-6.6617,-6.6617,-6.6617,-6.6617,-6.6617,-6.6617,-6.6617,-6.6617,-6.6617,-6.6617,-6.6617,-6.6617,-6.6617,-6.6617,-6.6617,-6.6617,-6.6617,-6.6617,-6.6617,-3.043,-3.1295,-3.2083,-3.2326,-3.3235,-3.4158,0.0,0.0,0.0,0.0,0.0,0.0,0.0,0.0,0.0,0.0,0.0,0.0,0.0,0.0,0.0,0.0,0.0,0.0,0.0,0.0,0.0,0.0,0.0,0.0,0.0,0.0,0.0,0.0,-2.7757,-2.8594,-2.9824,-3.2144,0.0,-3.759,-3.928,0.0,-4.9303,-5.0807,-5.2668,-5.4645,-5.5447,-5.5683,-5.5411,0.0,-5.2712,-5.0437,0.0,0.0,-4.478,-4.1746,0.0,-4.3358,-4.1873,-4.2157,-4.2726,-4.1999,0.0,0.0,0.0,-4.1399,0.0,0.0,0.0,0.0,0.0,0.0,0.0,0.0,0.0,0.0,0.0,0.0,0.0,0.0,0.0,0.0,0.0,-6.3268,-6.3963,-6.4658,-6.5385,-6.6017,-6.6586,-6.6617,-6.6617,-6.6617,-6.6617,-6.6617,-6.6617,-6.6617,-6.6617,-6.6617,-6.6617,-6.6617,-6.6617,-6.6617,-6.6617,-6.6617,-6.6617,-6.6617,-6.6617,-6.6617,-6.6617,-6.6617,-6.6617,-6.6617,-6.6617,-6.6617,-6.6617,-6.6617,-3.0697,-3.1166,-3.1945,-3.3272,-3.4147,0.0,0.0,0.0,0.0,0.0,0.0,0.0,0.0,0.0,0.0,0.0,0.0,0.0,0.0,0.0,0.0,0.0,0.0,0.0,0.0,0.0,0.0,0.0,0.0,0.0,0.0,0.0,0.0,0.0,0.0,0.0,0.0,0.0,-3.5102,-3.8257,-4.1365,0.0,-4.9641,-5.213,-5.3915,-5.5202,-5.6341,-5.6974,-5.692,-5.483,-5.3408,0.0,0.0,-4.8604,-4.8256,0.0,-4.5697,-4.6866,-4.4812,-4.4749,-4.5159,-4.4812,0.0,0.0,0.0,0.0,0.0,0.0,0.0,0.0,0.0,0.0,0.0,0.0,0.0,0.0,0.0,0.0,0.0,0.0,0.0,0.0,0.0,-6.213,-6.3394,-6.4437,-6.5164,-6.5732,-6.608,-6.6428,-6.6617,-6.6617,-6.6617,-6.6617,-6.6617,-6.6617,-6.6617,-6.6617,-6.6617,-6.6617,-6.6617,-6.6617,-6.6617,-6.6617,-6.6617,-6.6617,-6.6617,-6.6617,-6.6617,-6.6617,-6.6617,-6.6869,-6.7356,-6.7356,-6.7631,-6.8104,-3.0885,-3.1001,-3.1629,-3.3717,0.0,0.0,0.0,0.0,0.0,0.0,0.0,0.0,0.0,0.0,0.0,0.0,0.0,0.0,0.0,0.0,0.0,0.0,-2.952,-2.9868,0.0,0.0,0.0,0.0,0.0,0.0,0.0,0.0,0.0,0.0,0.0,0.0,0.0,0.0,0.0,-4.048,0.0,-4.7278,-4.8572,-5.3067,-5.4731,-5.4977,-5.6798,-5.7797,-5.7895,-5.5335,0.0,-5.3218,-5.0374,-5.0532,0.0,0.0,0.0,0.0,0.0,0.0,0.0,0.0,0.0,-4.595,0.0,0.0,0.0,-4.478,0.0,0.0,0.0,0.0,0.0,0.0,0.0,0.0,0.0,0.0,0.0,0.0,0.0,0.0,0.0,-6.0329,-6.1972,-6.3773,-6.4058,-6.45,-6.5322,-6.6017,-6.6459,-6.6617,-6.6617,-6.6617,-6.6617,-6.6617,-6.6617,-6.6617,-6.6617,-6.6617,-6.6617,-6.6617,-6.6617,-6.6617,-6.6617,-6.6617,-6.6617,-6.6617,-6.6617,-6.6617,-6.6617,-6.7078,-6.7802,-6.7802,-6.847,-6.9313,-3.0642,-3.1221,-3.1918,-3.246,0.0,0.0,0.0,0.0,0.0,0.0,0.0,0.0,0.0,0.0,0.0,0.0,0.0,0.0,-4.0927,0.0,0.0,0.0,-3.1798,-3.1117,-3.1524,0.0,0.0,0.0,0.0,0.0,0.0,0.0,-2.7518,-2.8971,-3.0686,0.0,0.0,0.0,-4.0378,0.0,-4.655,-4.615,0.0,-5.1227,-5.3326,-5.3714,-5.7023,-5.8211,-5.8022,0.0,-5.5904,-5.5335,0.0,-5.3028,-5.4103,0.0,0.0,0.0,0.0,0.0,0.0,0.0,-4.9552,0.0,0.0,0.0,-4.4812,-4.2537,0.0,0.0,0.0,0.0,0.0,0.0,0.0,0.0,0.0,0.0,0.0,0.0,0.0,0.0,0.0,0.0,-5.8243,-6.1498,-6.0107,-6.0739,-6.4437,-6.5322,-6.5985,-6.6586,-6.6617,-6.6617,-6.6617,-6.6617,-6.6617,-6.6617,-6.6617,-6.6617,-6.6617,-6.6617,-6.6617,-6.6617,-6.6617,-6.6617,-6.6617,-6.6617,-6.6617,-6.6617,-6.6617,-6.6691,-6.6796,-6.6796,-6.7459,-6.8271,-3.0518,-3.1462,-3.2498,-3.311,0.0,0.0,0.0,0.0,0.0,0.0,0.0,0.0,0.0,0.0,0.0,0.0,0.0,-4.501,0.0,0.0,0.0,-3.6146,-3.4074,-3.2889,-3.2724,0.0,0.0,0.0,-2.9638,0.0,0.0,0.0,-2.9863,-3.1848,-3.3644,0.0,-3.9428,0.0,0.0,0.0,0.0,0.0,0.0,-5.2256,-5.536,-5.634,-5.7743,-5.8274,-5.8053,0.0,-5.5651,0.0,0.0,0.0,0.0,0.0,0.0,0.0,0.0,0.0,0.0,0.0,0.0,0.0,-4.6487,0.0,-4.5065,0.0,0.0,0.0,0.0,0.0,0.0,0.0,0.0,0.0,0.0,0.0,0.0,0.0,0.0,0.0,0.0,0.0,0.0,0.0,0.0,-5.9128,-6.2509,-6.4152,-6.529,-6.5985,-6.6396,-6.6617,-6.6617,-6.6617,-6.6617,-6.6617,-6.6617,-6.6617,-6.6617,-6.6617,-6.6617,-6.6617,-6.6617,-6.6617,-6.6617,-6.6617,-6.6974,-6.7427,-6.7427,-6.7427,-6.7427,-6.7427,-6.8502,-6.9916,-3.1124,0.0,0.0,0.0,0.0,0.0,-3.9159,-4.2976,-4.5343,0.0,0.0,0.0,-5.1308,-5.1131,0.0,0.0,0.0,-4.9424,0.0,0.0,-4.2171,-4.0388,-3.6962,0.0,0.0,0.0,0.0,0.0,0.0,0.0,0.0,0.0,0.0,-3.3924,0.0,-3.8905,-4.2163,0.0,0.0,-4.4867,-4.595,-4.7119,-4.8698,-5.3705,-5.6711,-5.8274,-5.8274,-5.8401,-5.8338,-5.6947,-5.5936,0.0,-5.5999,0.0,0.0,0.0,0.0,0.0,-5.3123,0.0,0.0,0.0,0.0,0.0,0.0,0.0,0.0,0.0,0.0,0.0,0.0,0.0,0.0,0.0,0.0,0.0,0.0,0.0,0.0,0.0,0.0,0.0,0.0,0.0,0.0,0.0,0.0,0.0,-6.0897,-6.292,-6.4437,-6.5543,-6.6238,-6.6617,-6.6617,-6.6617,-6.6617,-6.6617,-6.6617,-6.6617,-6.6617,-6.6617,-6.6617,-6.6617,-6.6617,-6.6617,-6.6586,-6.6869,-6.7427,-6.8072,-6.8371,-6.847,-6.847,-6.847,-6.9442,-7.0781,-3.2573,-3.1851,0.0,0.0,0.0,0.0,-4.0779,-4.1984,-4.3783,0.0,0.0,0.0,0.0,0.0,0.0,0.0,0.0,-5.5046,-5.4184,0.0,-4.6022,-4.73,-4.0779,-3.8327,0.0,0.0,-3.3561,-3.2838,0.0,0.0,0.0,0.0,0.0,0.0,0.0,-4.0364,-4.3765,-4.5087,-4.8381,-5.2632,-5.1309,-5.3228,-5.6557,0.0,-5.5873,-5.8274,-5.8274,0.0,0.0,-5.7642,-5.7611,0.0,0.0,0.0,0.0,0.0,0.0,0.0,0.0,0.0,0.0,-5.0974,0.0,0.0,0.0,0.0,-4.8383,0.0,0.0,0.0,0.0,0.0,0.0,0.0,0.0,0.0,0.0,0.0,0.0,0.0,0.0,0.0,0.0,0.0,0.0,0.0,0.0,0.0,-5.9949,-6.1719,-6.3457,-6.5511,-6.6238,-6.6617,-6.6617,-6.6617,-6.6617,-6.6617,-6.6617,-6.6617,-6.6617,-6.6617,-6.6617,-6.6617,-6.6617,-6.6617,-6.6691,-6.7631,-6.8072,-6.8172,-6.9121,-6.9504,-6.9504,-6.9504,-6.9599,-6.9789,0.0,0.0,0.0,0.0,0.0,0.0,-4.1499,-4.5139,0.0,0.0,0.0,0.0,0.0,0.0,-5.8841,0.0,0.0,-5.7909,-5.615,-5.2722,0.0,0.0,0.0,-4.3822,0.0,0.0,-3.6896,-3.525,-3.3443,0.0,0.0,0.0,0.0,0.0,0.0,-4.131,0.0,0.0,0.0,0.0,0.0,-5.4559,-5.7898,0.0,0.0,-5.8338,-5.8843,-5.9159,0.0,-5.9823,-5.9222,-5.8432,-5.9349,-5.8211,-5.6757,-5.7927,-5.7769,0.0,0.0,0.0,-5.7358,-5.3629,0.0,0.0,0.0,0.0,0.0,0.0,0.0,0.0,0.0,0.0,0.0,0.0,0.0,0.0,0.0,0.0,0.0,0.0,0.0,0.0,0.0,0.0,0.0,0.0,0.0,0.0,0.0,-6.0012,-6.2003,-6.4121,-6.5322,-6.6143,-6.6617,-6.6617,-6.6617,-6.6617,-6.6617,-6.6617,-6.6617,-6.6617,-6.6617,-6.6617,-6.6617,-6.6974,-6.7631,-6.8004,-6.8863,-7.023,-7.0507,-7.069,-7.0599,-6.9916,-7.001,-7.0781,-3.6356,0.0,0.0,0.0,0.0,0.0,0.0,0.0,0.0,0.0,-5.6432,0.0,-6.141,0.0,-6.1112,0.0,-6.2075,-6.0703,-5.8185,-5.6159,0.0,-5.4632,-5.0657,0.0,0.0,0.0,-4.0808,-3.7938,0.0,-3.5371,0.0,0.0,0.0,0.0,0.0,0.0,0.0,0.0,-4.972,0.0,0.0,-5.6092,0.0,0.0,-5.8432,-5.8748,0.0,-5.957,-6.0202,-6.1087,-6.0676,-5.9981,-6.134,-6.0044,-5.8306,-5.9665,-5.9222,-5.8369,-5.859,-5.897,0.0,-5.5588,-5.4514,0.0,-4.9805,0.0,0.0,0.0,0.0,0.0,0.0,0.0,0.0,0.0,0.0,0.0,0.0,0.0,0.0,0.0,0.0,0.0,0.0,0.0,-4.7572,-5.037,0.0,0.0,0.0,0.0,-6.1024,-6.3394,-6.4848,-6.589,-6.6586,-6.6617,-6.6617,-6.6617,-6.6617,-6.6617,-6.6617,-6.6617,-6.6617,-6.6617,-6.6974,-6.7529,-6.8172,-6.8863,-7.001,-7.121,-7.1566,-7.1742,-7.1688,-7.1233,-7.1548,-7.2239,0.0,0.0,0.0,0.0,-3.9014,0.0,0.0,0.0,-5.3311,0.0,-5.846,-6.0899,-6.23,-6.322,-6.3954,-6.4538,-6.4693,0.0,-6.0668,-5.9176,0.0,0.0,-5.3788,-5.2203,-5.2731,0.0,0.0,0.0,0.0,0.0,0.0,0.0,0.0,0.0,-3.9307,0.0,-4.3987,-4.8889,-5.2219,-5.4391,-5.6402,-5.768,-5.8274,-5.8306,-5.8812,-5.9349,-5.9349,-6.0201,-6.1403,-6.1435,-6.1877,-6.2446,-6.2446,-6.1972,-6.1435,-6.1435,-6.0961,-6.0265,-5.9633,-5.9444,-5.897,-5.6915,0.0,0.0,0.0,0.0,-5.3597,0.0,0.0,0.0,0.0,0.0,0.0,0.0,0.0,0.0,0.0,0.0,0.0,0.0,0.0,0.0,0.0,0.0,-4.5435,-4.9507,-4.8647,0.0,0.0,0.0,-6.0423,-6.3236,-6.4753,-6.5859,-6.6554,-6.6586,-6.6617,-6.6617,-6.6617,-6.6617,-6.6617,-6.6617,-6.6617,-6.6723,-6.7631,-6.8072,-6.8371,-7.0322,-7.121,-7.1389,-7.2296,-7.2705,-7.2809,-7.3533,-7.3774,-7.3774,-4.0109,-4.1681,-4.3401,0.0,-4.3529,-4.4192,0.0,0.0,0.0,0.0,-6.1218,-6.3285,-6.4855,-6.5214,-6.5352,-6.5499,-6.5593,0.0,0.0,0.0,0.0,-6.1875,-5.9354,-5.7535,-5.6537,-5.1425,0.0,-4.5384,0.0,0.0,-3.7925,0.0,0.0,0.0,0.0,0.0,-4.3957,-4.7831,-5.1888,-5.5843,-5.7398,-5.8148,0.0,0.0,-5.9412,-6.0076,-6.0076,-6.0645,-6.1466,-6.2003,-6.2288,-6.2446,-6.2446,-6.2319,-6.2161,-6.2161,-6.2035,-6.1845,-6.1687,-6.1624,-6.1245,-5.9633,-5.8496,-5.7231,0.0,0.0,0.0,0.0,0.0,0.0,0.0,0.0,0.0,0.0,0.0,0.0,0.0,0.0,0.0,0.0,0.0,0.0,0.0,-4.5296,-4.6115,-4.8142,-4.8031,0.0,0.0,0.0,0.0,-6.1024,-6.3489,-6.5132,-6.5827,-6.6333,-6.6617,-6.6617,-6.6617,-6.6617,-6.6617,-6.6617,-6.6617,-6.6723,-6.7631,-6.8568,-6.9313,-7.0599,-7.1654,-7.2296,-7.2586,-7.3015,-7.3533,-7.3705,-7.3774,-7.3878,-4.2871,0.0,0.0,-4.9401,0.0,0.0,-5.2267,0.0,0.0,-5.9795,-6.2798,0.0,-6.5807,-6.6773,-6.7359,-6.7359,-6.7049,0.0,-6.5428,0.0,0.0,-6.3634,-6.2358,-6.0944,-5.9426,-5.5246,0.0,-4.7528,0.0,0.0,-3.8493,0.0,0.0,0.0,0.0,-4.1062,0.0,-4.9057,-5.2909,-5.5865,-5.7929,0.0,0.0,-5.9507,-6.0202,-6.0771,-6.0771,-6.1245,-6.1909,-6.2288,-6.2446,-6.2446,-6.2446,-6.2446,-6.2446,-6.2446,-6.2446,-6.2446,-6.2446,-6.2446,-6.2225,-6.1435,-6.0645,-5.9633,-5.7927,-5.7326,-5.6789,0.0,0.0,0.0,0.0,0.0,0.0,0.0,0.0,0.0,0.0,0.0,0.0,0.0,0.0,0.0,0.0,-4.4456,-4.513,-4.6754,-4.7533,0.0,0.0,0.0,0.0,-5.9791,-6.2604,-6.4563,-6.5574,-6.627,-6.6617,-6.6617,-6.6617,-6.6617,-6.6617,-6.6617,-6.6901,-6.7356,-6.8271,-6.9346,-7.0381,-7.1444,-7.221,-7.2671,-7.2671,-7.2946,-7.3326,-7.3671,-7.3981,-7.4361,0.0,0.0,0.0,0.0,0.0,0.0,0.0,-5.7432,0.0,-6.0898,0.0,-6.6462,-6.6462,-6.8256,-6.9428,-6.9428,0.0,-6.7532,-6.5428,-6.6566,-6.6324,-6.4117,-6.4048,-6.3289,-6.1634,-5.9082,-5.4768,0.0,0.0,0.0,0.0,0.0,0.0,0.0,0.0,0.0,0.0,-5.1243,-5.4599,0.0,-5.8306,-5.9349,-5.9507,-6.017,-6.0834,-6.1403,-6.1498,-6.1909,-6.2446,-6.2446,-6.2446,-6.2446,-6.2446,-6.2446,-6.2446,-6.2446,-6.2446,-6.2446,-6.2446,-6.2446,-6.2446,-6.2446,-6.2446,-6.1972,-6.0139,-5.9191,-5.8496,-5.7769,-5.6094,-5.543,0.0,0.0,0.0,0.0,0.0,0.0,0.0,0.0,0.0,0.0,0.0,0.0,0.0,-4.3555,-4.3703,-4.5532,-4.6932,0.0,0.0,0.0,0.0,-5.8938,-6.1751,-6.4032,-6.5592,0.0,-6.6628,-6.6796,-6.6691,-6.6617,-6.6617,-6.6617,-6.7078,-6.8004,-6.9121,-7.0103,-7.1086,-7.221,-7.2671,-7.2671,-7.2671,-7.2671,-7.274,-7.3395,-7.4188,-7.4947,0.0,0.0,0.0,0.0,0.0,-6.0115,-6.1765,-6.2871,-6.4042,-6.5619,-6.8004,-6.9601,-6.9601,-6.9946,-7.0187,-7.0187,-7.0049,0.0,0.0,0.0,0.0,-6.6462,-6.6393,-6.5393,-6.322,-5.9247,-5.4838,0.0,-4.5563,-4.1391,0.0,0.0,0.0,0.0,0.0,0.0,-4.8185,-5.1789,0.0,-5.7832,-5.8875,-5.9633,-6.0202,-6.0929,-6.1277,-6.1466,-6.2035,-6.2319,-6.2446,-6.2446,-6.2446,-6.2446,-6.2446,-6.2446,-6.2446,-6.2446,-6.2446,-6.2446,-6.2446,-6.2446,-6.2446,-6.2446,-6.2446,-6.2319,-6.1972,-6.134,-6.0645,-5.9918,-5.9033,-5.8022,-5.6789,0.0,0.0,0.0,0.0,0.0,0.0,0.0,0.0,0.0,0.0,0.0,0.0,0.0,-4.4691,0.0,0.0,0.0,0.0,0.0,0.0,0.0,-6.0297,0.0,0.0,0.0,-6.6504,-6.7802,-6.6974,-6.6617,-6.6617,-6.6617,-6.6691,-6.6974,-6.8765,-6.9694,-7.001,-7.1917,-7.2671,-7.2671,-7.2671,-7.2671,-7.2705,-7.2843,-7.374,-7.5016,0.0,0.0,0.0,0.0,0.0,0.0,0.0,-6.7566,0.0,-6.7152,-6.829,-6.9187,-6.9187,-7.0256,-7.0946,-7.0946,-7.0601,-7.0222,-6.9877,-6.9842,-6.936,-6.8221,-6.7773,0.0,-6.4807,-6.1105,-5.6913,-5.2094,-4.7371,-4.303,0.0,0.0,0.0,0.0,0.0,-4.506,0.0,0.0,0.0,-5.7864,-5.9254,-6.0234,-6.0929,-6.1656,-6.194,-6.1972,-6.2319,-6.2446,-6.2446,-6.2446,-6.2446,-6.2446,-6.2446,-6.2446,-6.2446,-6.2446,-6.2446,-6.2446,-6.2446,-6.2446,-6.2446,-6.2446,-6.2446,-6.2446,-6.2446,-6.1593,-6.0739,-6.036,-5.9475,-5.8243,-5.6505,-5.4767,0.0,0.0,0.0,0.0,0.0,0.0,0.0,0.0,0.0,0.0,0.0,0.0,0.0,0.0,0.0,0.0,0.0,0.0,0.0,0.0,0.0,0.0,0.0,0.0,0.0,-6.7356,-6.6796,-6.6617,-6.6617,-6.6617,-6.6869,-6.7427,-6.896,-6.9916,-7.0599,-7.209,-7.2671,-7.2671,-7.2671,-7.2671,-7.2671,-7.2671,-7.3395,-7.443,0.0,-6.1185,0.0,0.0,-6.5359,0.0,-6.8187,-7.0808,-7.1601,-6.8601,-6.8704,-6.9084,-6.9084,-7.067,-7.1739,-7.1739,-7.1222,-7.0808,-7.0636,-7.0636,-7.0291,-6.9566,-6.8773,-6.7704,-6.6393,-6.3358,-5.9382,0.0,-4.9925,0.0,0.0,0.0,-3.8902,-3.9976,0.0,0.0,0.0,0.0,-5.641,-5.8243,-5.9886,-6.0961,-6.1687,-6.2225,-6.2446,-6.2446,-6.2446,-6.2446,-6.2446,-6.2446,-6.2446,-6.2446,-6.2446,-6.2446,-6.2446,-6.2446,-6.2446,-6.2446,-6.2446,-6.2446,-6.2446,-6.2446,-6.2446,-6.2446,-6.2446,-6.1435,-6.0487,-6.0329,-5.9222,-5.7832,-5.6441,-5.5525,0.0,0.0,0.0,0.0,0.0,0.0,0.0,0.0,0.0,0.0,0.0,0.0,0.0,0.0,0.0,0.0,0.0,0.0,0.0,0.0,0.0,-6.09,-6.3545,0.0,-6.5868,-6.6869,-6.6691,-6.6617,-6.6617,-6.6617,-6.7078,-6.7802,-6.883,-6.9916,-7.0906,-7.1917,-7.2382,-7.2416,-7.2758,-7.2912,-7.2946,-7.3084,-7.3636,-7.4361,0.0,0.0,0.0,0.0,0.0,0.0,-6.9153,-7.1153,-7.2533,-7.2188,-7.2222,-7.2257,-7.2257,-7.2429,-7.2567,-7.2567,-7.2498,-7.2153,-7.1429,-7.1394,-7.105,-7.0325,-6.9566,-6.8773,-6.7911,-6.491,-6.1208,0.0,0.0,-4.7505,0.0,-4.1661,-4.2252,-4.4243,0.0,0.0,0.0,-5.5399,-5.799,-6.1024,-6.1213,-6.1719,-6.2351,-6.2414,-6.2446,-6.2446,-6.2446,-6.2446,-6.2446,-6.2446,-6.2446,-6.2446,-6.2446,-6.2446,-6.2446,-6.2446,-6.2446,-6.2446,-6.2446,-6.2446,-6.2446,-6.2446,-6.2446,-6.2446,-6.2446,-6.1845,-6.1119,-6.0423,-5.9222,-5.7832,-5.6441,-5.7105,-5.6821,0.0,0.0,0.0,0.0,0.0,-5.0169,-4.8016,0.0,0.0,0.0,0.0,0.0,0.0,0.0,0.0,0.0,0.0,0.0,-5.5035,0.0,-5.9575,-6.4045,-6.4414,-6.574,-6.8004,-6.7078,-6.6617,-6.6617,-6.6617,-6.6691,-6.6796,-6.7802,-6.883,-6.9789,-7.0872,-7.1389,-7.1546,-7.3052,-7.3671,-7.3774,-7.4464,-7.5223,-7.5913,0.0,0.0,0.0,0.0,0.0,0.0,0.0,-7.2084,-7.2671,-7.2671,-7.2671,-7.2671,-7.2671,-7.2671,-7.2671,-7.2671,-7.2671,-7.2533,-7.2222,-7.2188,-7.1843,-7.1084,-7.0774,-7.0049,-6.8842,-6.6738,-6.3645,0.0,0.0,0.0,0.0,-4.5433,-4.6228,-4.873,0.0,-5.2997,-5.5462,-5.7295,-5.9349,-6.1403,-6.1403,-6.1814,-6.2446,-6.2446,-6.2446,-6.2446,-6.2446,-6.2446,-6.2446,-6.2446,-6.2446,-6.2446,-6.2446,-6.2446,-6.2446,-6.2446,-6.2446,-6.2446,-6.2446,-6.2446,-6.2446,-6.2446,-6.2446,-6.2446,-6.2446,-6.1561,-6.0645,-6.036,-5.9222,-5.8116,-5.7548,-5.72,-5.6694,0.0,0.0,0.0,0.0,0.0,0.0,-4.8731,0.0,-4.7458,0.0,0.0,0.0,0.0,0.0,-4.433,-4.6446,0.0,0.0,-5.3177,0.0,-5.9119,-6.1902,-6.3634,-6.5401,-6.7149,-6.6796,-6.6617,-6.6617,-6.6617,-6.6974,-6.7529,-6.7903,-6.8667,-6.9694,-7.0781,-7.121,-7.1367,-7.312,-7.3774,-7.3878,-7.4636,-7.543,-7.612,-6.9877,0.0,-6.9049,0.0,-7.0498,-7.0187,-7.236,-7.2671,-7.2671,-7.2671,-7.2671,-7.2671,-7.2671,-7.2671,-7.2671,-7.2671,-7.2671,-7.2671,-7.2671,-7.2671,-7.2429,-7.1877,-7.1636,0.0,-6.9946,-6.8428,-6.6127,-6.3026,-5.8444,0.0,0.0,-5.038,-5.0691,0.0,-5.4571,-5.6094,-5.7516,-5.9191,-6.0613,-6.1687,-6.1687,-6.2003,-6.2446,-6.2446,-6.2572,-6.273,-6.273,-6.2857,-6.3046,-6.3046,-6.3046,-6.3015,-6.2793,-6.2888,-6.3046,-6.3046,-6.2888,-6.273,-6.273,-6.2604,-6.2446,-6.2446,-6.2446,-6.2446,-6.2446,-6.1308,-6.017,-5.9791,-5.8938,-5.8274,-5.8274,-5.7453,-5.6757,-5.6631,0.0,0.0,0.0,-5.2207,0.0,0.0,-4.8351,-4.7846,-4.7435,0.0,0.0,0.0,0.0,-4.5021,-4.6898,0.0,0.0,0.0,0.0,0.0,0.0,-6.3494,-6.5416,-6.6617,-6.6617,-6.6617,-6.6617,-6.6617,-6.6974,-6.7631,-6.7631,-6.8104,-6.8765,-6.9822,-7.0641,-7.131,-7.2956,-7.3963,-7.4568,-7.5326,-7.5947,-7.643,-7.1325,-7.1463,-7.1705,-7.2533,-7.2636,-7.2636,-7.2671,-7.2671,-7.2671,-7.2671,-7.2671,-7.2671,-7.2671,-7.2671,-7.2671,-7.2671,-7.2671,-7.2671,-7.2671,-7.2671,-7.2671,0.0,0.0,-7.1498,-7.1463,-7.0015,-6.8497,-6.6945,0.0,0.0,-5.9016,-5.6546,-5.5661,-5.6157,-5.7579,-5.897,-6.0297,-6.1055,-6.1782,-6.2414,-6.2414,-6.2414,-6.2446,-6.2446,-6.2857,-6.3457,-6.3457,-6.39,-6.45,-6.45,-6.45,-6.4374,-6.3678,-6.3931,-6.45,-6.45,-6.4026,-6.3457,-6.3457,-6.2951,-6.2446,-6.2446,-6.2446,-6.2446,-6.2446,-6.1308,-5.9918,-5.8559,-5.8274,-5.8274,-5.8274,-5.8274,-5.7579,-5.5493,0.0,0.0,0.0,0.0,0.0,-4.9141,-4.7087,-4.6645,-4.8667,0.0,0.0,0.0,0.0,-4.8415,-4.9805,0.0,0.0,-5.6053,-5.8255,0.0,-6.2482,-6.4493,-6.5859,-6.6617,-6.6617,-6.6617,-6.6617,-6.6617,-6.6617,-6.6617,-6.6617,-6.6617,-6.6691,-6.7701,-6.919,-7.0984,-7.2666,-7.4525,-7.6189,-7.6913,-7.7189,-7.7223,-7.2257,-7.2291,-7.2395,-7.2636,-7.2671,-7.2671,-7.2671,-7.2671,-7.2671,-7.2671,-7.2671,-7.2671,-7.2671,-7.2671,-7.2671,0.0,-7.2671,-7.2671,0.0,-7.2671,-7.2671,-7.2671,-7.2429,-7.205,-7.1498,-7.1015,-7.0049,-6.8566,0.0,0.0,0.0,-6.0184,-5.9909,-6.0925,-6.1278,-6.1246,-6.1087,-6.1814,-6.2509,-6.3141,-6.3141,-6.3426,-6.3836,-6.3836,-6.3994,-6.4184,-6.4184,-6.4342,-6.4532,-6.4532,-6.4848,-6.5195,-6.4974,-6.4721,-6.4532,-6.4532,-6.4374,-6.4184,-6.4184,-6.3678,-6.3141,-6.3141,-6.2793,-6.2446,-6.2446,-6.1308,-6.0044,-5.9159,-5.859,-5.8274,-5.8274,-5.8274,-5.7737,-5.6125,-5.6031,0.0,-5.2112,0.0,-5.1417,-4.9773,-4.9015,-4.8857,0.0,-4.8162,0.0,0.0,0.0,0.0,0.0,0.0,0.0,0.0,-5.8712,0.0,-6.1726,-6.4254,-6.5922,-6.6617,-6.6617,-6.6617,-6.6617,-6.6617,-6.6617,-6.6617,-6.6617,-6.6617,-6.6691,-6.7733,-6.8726,-6.9943,-7.2384,-7.4034,-7.5184,-7.6644,-7.7223,-7.7223,-7.2671,-7.2671,-7.2671,-7.2671,-7.2671,-7.2671,-7.2671,-7.2671,-7.2671,-7.2671,-7.2671,-7.2671,-7.2671,-7.2671,0.0,-7.2671,-7.2671,-7.2671,-7.2671,-7.2671,-7.2671,-7.2671,-7.2671,-7.2429,-7.1946,-7.1946,0.0,-7.0118,-6.8439,-6.6903,-6.5623,-6.4539,-6.43,-6.4763,-6.4688,-6.4272,-6.3772,-6.374,-6.3991,-6.4406,-6.407,-6.4121,-6.4532,-6.4532,-6.469,-6.4911,-6.4911,-6.5069,-6.529,-6.529,-6.5606,-6.5954,-6.5954,-6.5669,-6.529,-6.529,-6.5132,-6.4911,-6.4911,-6.4405,-6.3868,-6.3868,-6.3331,-6.2699,-6.2161,-6.134,-6.0423,-5.9507,-5.897,-5.859,-5.8338,-5.8274,-5.78,-5.641,-5.6189,-5.5209,-5.2396,0.0,-5.148,0.0,0.0,0.0,0.0,-5.0153,-5.0184,0.0,0.0,0.0,0.0,0.0,0.0,-5.5999,-6.0044,0.0,-6.2572,-6.4816,-6.6175,-6.6617,-6.6617,-6.6617,-6.6617,-6.6617,-6.6617,-6.6617,-6.6617,-6.6617,-6.6617,-6.7508,-6.8538,-6.9863,-7.2211,-7.3939,-7.5059,-7.6656,-7.7223,-7.7223,-7.2671,-7.2671,-7.2671,0.0,-7.2671,0.0,-7.2671,-7.2671,-7.2671,-7.2671,-7.2671,-7.2671,-7.2671,-7.2671,-7.2671,-7.2671,0.0,0.0,0.0,-7.2671,-7.2671,-7.2671,-7.2671,-7.2671,-7.2671,-7.2671,-7.2326,-7.1567,-7.0843,-7.0016,-6.9184,-6.9151,-6.8594,-6.7663,-6.7663,-6.7663,-6.7479,-6.6448,-6.6064,-6.6031,-6.4938,-6.4626,-6.4658,-6.4658,-6.5069,-6.5638,-6.5638,-6.6048,-6.6617,-6.6617,-6.6617,-6.6617,-6.6617,-6.6617,-6.6617,-6.6617,-6.6143,-6.5638,-6.5638,-6.5132,-6.4595,-6.4595,-6.4026,-6.3141,-6.1782,-6.1435,-6.1024,-5.9728,-5.938,-5.9096,-5.8464,-5.8306,-5.78,-5.641,-5.6157,-5.5146,-5.2396,-5.2049,-5.1575,0.0,0.0,0.0,0.0,-5.1764,-5.2428,0.0,0.0,0.0,0.0,0.0,-5.5967,-5.9286,-6.2098,-6.39,-6.4595,-6.5922,-6.6617,-6.6617,-6.6617,-6.6617,-6.6617,-6.6617,-6.6617,-6.6617,-6.6617,-6.6649,-6.6712,-6.7344,-6.8617,-7.0474,-7.2215,-7.3936,-7.5574,-7.6793,-7.7223,-7.7223,0.0,0.0,-7.2671,-7.2671,-7.2671,-7.2671,-7.2671,-7.2671,-7.2671,-7.2671,-7.2671,-7.2671,-7.2671,-7.2671,-7.2671,-7.2671,-7.2671,-7.2671,-7.2671,-7.2671,-7.2671,-7.2671,-7.2671,-7.2671,-7.2671,-7.2671,-7.2602,-7.2395,-7.1636,-7.1139,-7.0854,-7.0305,-6.9578,-6.8682,-6.8682,-6.8294,-6.7479,-6.6448,-6.629,-6.671,-6.5804,-6.5638,-6.6112,-6.6112,-6.6207,-6.6365,-6.6365,-6.6459,-6.6617,-6.6617,-6.6617,-6.6617,-6.6617,-6.6617,-6.6617,-6.6617,-6.6491,-6.6365,-6.6365,-6.5859,-6.5322,-6.5322,-6.4405,-6.3268,-6.2383,-6.1782,-6.1308,-6.0961,-6.0044,-5.9254,-5.9096,-5.8622,-5.78,-5.641,-5.5746,-5.4577,-5.2333,-5.2491,-5.2523,0.0,-5.246,-5.3155,-5.3344,-5.3502,-5.3692,0.0,0.0,0.0,0.0,-5.7579,-5.8685,-6.0012,-6.2793,-6.4595,-6.5322,-6.6175,-6.6617,-6.6617,-6.6617,-6.6617,-6.6617,-6.6617,-6.6617,-6.6617,-6.6617,-6.6902,-6.7376,-6.7534,-6.854,-7.0052,-7.2109,-7.3542,-7.4571,-7.6519,-7.7223,-7.7223,-7.2671,-7.2671,-7.2671,-7.2671,-7.2671,-7.2671,-7.2671,-7.2671,-7.2671,-7.2671,-7.2671,-7.2671,-7.2671,-7.2671,-7.2671,-7.2671,-7.2671,-7.2671,-7.2671,-7.2671,-7.2671,-7.2671,-7.2671,-7.2671,-7.2671,-7.2671,-7.2671,-7.2671,-7.2257,-7.205,-7.2015,-7.1636,-7.1144,-7.0687,-7.0687,-7.0429,-6.987,-6.8844,-6.8611,-6.888,-6.7818,-6.7379,-6.7253,-6.7253,-6.6974,-6.6617,-6.6617,-6.6617,-6.6617,-6.6617,-6.6617,-6.6617,-6.6617,-6.6617,-6.6617,-6.6617,-6.6617,-6.6617,-6.6617,-6.6333,-6.589,-6.5258,-6.4532,-6.3678,-6.2667,-6.213,-6.1782,-6.1466,-6.0803,-6.0076,-5.9412,-5.8748,-5.7706,-5.5999,-5.5399,-5.4387,-5.2302,-5.2902,-5.3408,-5.3028,-5.4198,-5.5177,-5.5493,-5.6094,-5.6347,-5.6031,-5.7231,0.0,-5.818,-6.0107,-6.1245,-6.1277,-6.3394,-6.4848,-6.5574,-6.627,-6.6617,-6.6617,-6.6617,-6.6617,-6.6617,-6.6617,-6.6617,-6.6617,-6.6617,-6.6997,-6.7629,-6.7945,-6.8703,-6.9903,-7.2433,-7.3641,-7.4273,-7.6427,-7.7223,-7.7223,-7.2671,-7.2671,-7.2671,-7.2671,-7.2671,-7.2671,-7.2671,-7.2671,-7.2671,-7.2671,-7.2671,-7.2671,-7.2671,-7.2671,-7.2671,-7.2671,-7.2671,-7.2671,-7.2671,-7.2671,-7.2671,-7.2671,-7.2671,-7.2671,-7.2671,-7.2671,-7.2671,-7.2671,-7.2671,-7.2671,-7.2671,-7.2671,-7.2671,-7.2671,-7.2671,-7.2671,-7.2671,-7.1654,-7.121,-7.1086,-7.001,-6.9024,-6.8072,-6.8072,-6.7427,-6.6617,-6.6617,-6.6617,-6.6617,-6.6617,-6.6617,-6.6617,-6.6617,-6.6617,-6.6617,-6.6617,-6.6617,-6.6617,-6.6617,-6.6617,-6.6301,-6.5006,-6.4595,-6.4184,-6.2888,-6.2509,-6.2256,-6.1687,-6.1466,-6.1024,-5.9854,-5.897,-5.7737,-5.562,-5.5209,-5.4387,-5.2302,0.0,-5.4292,-5.4387,-5.5746,-5.6915,-5.7611,-5.8685,-5.9159,-5.878,-6.0297,-6.0834,-5.9981,-6.2193,-6.3299,-6.292,-6.4058,-6.5006,-6.5732,-6.6301,-6.6617,-6.6617,-6.6617,-6.6617,-6.6617,-6.6617,-6.6617,-6.6617,-6.6712,-6.7155,-6.7818,-6.8545,-6.924,-7.0093,-7.2925,-7.3972,-7.4273,-7.6427,-7.7223,-7.7223,-7.2671,-7.2671,-7.2671,-7.2671,-7.2671,-7.2671,-7.2671,-7.2671,-7.2671,-7.2671,-7.2671,-7.2671,-7.2671,-7.2671,-7.2671,-7.2671,-7.2671,-7.2671,-7.2671,-7.2671,-7.2671,-7.2671,-7.2671,-7.2671,-7.2671,-7.2671,-7.2671,-7.2671,-7.2671,-7.2671,-7.2671,-7.2671,-7.2671,-7.2671,-7.2671,-7.2671,-7.2671,-7.1654,-7.121,-7.1086,-7.001,-6.9024,-6.8072,-6.8072,-6.7427,-6.6617,-6.6617,-6.6617,-6.6617,-6.6617,-6.6617,-6.6617,-6.6617,-6.6617,-6.6617,-6.6617,-6.6617,-6.6617,-6.6617,-6.6617,-6.6396,-6.5606,-6.4942,-6.431,-6.3489,-6.2857,-6.2414,-6.2288,-6.1814,-6.134,-6.1119,-6.0012,-5.8464,-5.6378,-5.5525,-5.4387,-5.2302,0.0,-5.5209,-5.5778,-5.7611,-5.9096,-5.976,-5.9507,-5.976,-6.0834,-6.0645,-6.115,-6.2762,-6.3236,-6.3963,-6.5037,-6.529,-6.5732,-6.6428,-6.6554,-6.6617,-6.6617,-6.6617,-6.6617,-6.6617,-6.6617,-6.6617,-6.6649,-6.7186,-6.785,-6.8577,-6.924,-6.9967,-7.0822,-7.3154,-7.3972,-7.4273,-7.6427,-7.7223,-7.7223,-7.2671,-7.2671,-7.2671,-7.2671,-7.2671,-7.2671,-7.2671,-7.2671,-7.2671,-7.2671,-7.2671,-7.2671,-7.2671,-7.2671,-7.2671,-7.2671,-7.2671,-7.2671,-7.2671,-7.2671,-7.2671,-7.2671,-7.2671,-7.2671,-7.2671,-7.2671,-7.2671,-7.2671,-7.2671,-7.2671,-7.2671,-7.2671,-7.2671,-7.2671,-7.2671,-7.2671,-7.2671,-7.221,-7.2038,-7.1917,-7.1444,-7.0289,-6.8927,-6.8927,-6.7903,-6.6617,-6.6617,-6.6617,-6.6617,-6.6617,-6.6617,-6.6617,-6.6617,-6.6617,-6.6617,-6.6617,-6.6617,-6.6617,-6.6617,-6.6617,-6.6428,-6.5732,-6.5322,-6.4911,-6.4184,-6.3805,-6.3457,-6.3078,-6.273,-6.2288,-6.1529,-6.0265,-5.8875,-5.7516,-5.6094,0.0,-5.4324,-5.5399,-5.6505,-5.7231,-5.9159,-6.055,-6.0866,-6.0961,-6.1245,-6.1909,-6.2003,-6.2446,-6.3426,-6.4184,-6.4911,-6.5543,-6.5922,-6.627,-6.6617,-6.6617,-6.6617,-6.6617,-6.6617,-6.6617,-6.6617,-6.6617,-6.6617,-6.6649,-6.7313,-6.8008,-6.8735,-6.9398,-7.0125,-7.0981,-7.3187,-7.3972,-7.4273,-7.6427,-7.7223,-7.7223,-7.2671,-7.2671,-7.2671,-7.2671,-7.2671,-7.2671,-7.2671,-7.2671,-7.2671,-7.2671,-7.2671,-7.2671,-7.2671,-7.2671,-7.2671,-7.2671,-7.2671,-7.2671,-7.2671,-7.2671,-7.2671,-7.2671,-7.2671,-7.2671,-7.2671,-7.2671,-7.2671,-7.2671,-7.2671,-7.2671,-7.2671,-7.2671,-7.2671,-7.2671,-7.2671,-7.2671,-7.2671,-7.2671,-7.2671,-7.2671,-7.2671,-7.162,-6.9916,-6.9694,-6.847,-6.6869,-6.6691,-6.6617,-6.6617,-6.6617,-6.6617,-6.6617,-6.6617,-6.6617,-6.6617,-6.6617,-6.6617,-6.6617,-6.6617,-6.6617,-6.6491,-6.5954,-6.5701,-6.5416,-6.4879,-6.4626,-6.4374,-6.3836,-6.371,-6.3331,-6.2098,-6.0866,-5.9696,-5.8685,0.0,-5.6189,0.0,-5.7168,-5.7958,-5.8654,-6.0297,-6.1466,-6.1624,-6.2256,-6.2667,-6.2667,-6.3331,-6.3805,-6.3963,-6.4974,-6.5638,-6.5796,-6.6333,-6.6617,-6.6617,-6.6617,-6.6617,-6.6617,-6.6617,-6.6617,-6.6617,-6.6617,-6.6681,-6.687,-6.7565,-6.8261,-6.8988,-6.9651,-7.0283,-7.0981,-7.2874,-7.377,-7.4173,-7.6114,-7.7009,-7.7223,-7.2671,-7.2671,-7.2671,-7.2671,-7.2671,-7.2671,-7.2671,-7.2671,-7.2671,-7.2671,-7.2671,-7.2671,-7.2671,-7.2671,-7.2671,-7.2671,-7.2671,-7.2671,-7.2671,-7.2671,-7.2671,-7.2671,-7.2671,-7.2671,-7.2671,-7.2671,-7.2671,-7.2671,-7.2671,-7.2671,-7.2671,-7.2671,-7.2671,-7.2671,-7.2671,-7.2671,-7.2671,-7.2671,-7.2671,-7.2671,-7.2671,-7.2038,-7.0996,-7.001,-6.8927,-6.7903,-6.6974,-6.6617,-6.6617,-6.6617,-6.6617,-6.6617,-6.6617,-6.6617,-6.6617,-6.6617,-6.6617,-6.6617,-6.6617,-6.6617,-6.6586,-6.6554,-6.6048,-6.5574,-6.5511,-6.4974,-6.45,-6.4468,-6.4437,-6.4216,-6.3457,-6.2699,-6.1561,-5.957,0.0,0.0,-5.7326,-5.8306,-5.9412,-6.0076,-6.0897,-6.1656,-6.2288,-6.2983,-6.3394,-6.3394,-6.4058,-6.4721,-6.5385,-6.5511,-6.5859,-6.6523,-6.6586,-6.6617,-6.6617,-6.6617,-6.6617,-6.6617,-6.6617,-6.6617,-6.6617,-6.6617,-6.6933,-6.7565,-6.8292,-6.8988,-6.9651,-7.041,-7.0726,-7.0869,-7.209,-7.3083,-7.4173,-7.5287,-7.6392,-7.7223,-7.2671,-7.2671,-7.2671,-7.2671,-7.2671,-7.2671,-7.2671,-7.2671,-7.2671,-7.2671,-7.2671,-7.2671,-7.2671,-7.2671,-7.2671,-7.2671,-7.2671,-7.2671,-7.2671,-7.2671,-7.2671,-7.2671,-7.2671,-7.2671,-7.2671,-7.2671,-7.2671,-7.2671,-7.2671,-7.2671,-7.2671,-7.2671,-7.2671,-7.2671,-7.2671,-7.2671,-7.2671,-7.2671,-7.2671,-7.2671,-7.2671,-7.2124,-7.1086,-7.001,-6.9313,-6.896,-6.7903,-6.7903,-6.8403,-6.7733,-6.7529,-6.7427,-6.6796,-6.6617,-6.6617,-6.6617,-6.6617,-6.6617,-6.6617,-6.6617,-6.6617,-6.6617,-6.6396,-6.6207,-6.6207,-6.6017,-6.5701,-6.5258,-6.5164,-6.4942,-6.4247,-6.3552,-6.2951,-6.2604,0.0,-6.0708,-6.1055,-6.1182,-6.1498,-6.2193,-6.2888,-6.3426,-6.371,-6.3963,-6.4121,-6.4121,-6.4784,-6.529,-6.5574,-6.5985,-6.6333,-6.6586,-6.6617,-6.6617,-6.6617,-6.6617,-6.6617,-6.6617,-6.6617,-6.6617,-6.6617,-6.7028,-6.7344,-6.766,-6.8798,-6.9462,-6.9746,-7.0473,-7.0789,-7.0869,-7.1982,-7.3083,-7.4073,-7.519,-7.63,-7.7223,-7.2671,-7.2671,-7.2671,-7.2671,-7.2671,-7.2671,-7.2671,-7.2671,-7.2671,-7.2671,-7.2671,-7.2671,-7.2671,-7.2671,-7.2671,-7.2671,-7.2671,-7.2671,-7.2671,-7.2671,-7.2671,-7.2671,-7.2671,-7.2671,-7.2671,-7.2671,-7.2671,-7.2671,-7.2671,-7.2671,-7.2671,-7.2671,-7.2671,-7.2671,-7.2671,-7.2671,-7.2671,-7.2671,-7.2671,-7.2671,-7.2671,-7.2296,-7.1566,-7.0507,-7.0103,-7.001,-6.896,-6.9024,-6.9504,-6.883,-6.8568,-6.847,-6.7733,-6.7356,-6.6974,-6.6691,-6.6617,-6.6617,-6.6617,-6.6617,-6.6617,-6.6617,-6.6617,-6.6617,-6.6617,-6.6617,-6.6459,-6.5985,-6.589,-6.5669,-6.4974,-6.4468,-6.4216,-6.4468,-6.3299,-6.2699,-6.3678,-6.3394,-6.3268,-6.3742,-6.4216,-6.4532,-6.4532,-6.4721,-6.4848,-6.4848,-6.5511,-6.589,-6.589,-6.6333,-6.6617,-6.6617,-6.6617,-6.6617,-6.6617,-6.6617,-6.6617,-6.6617,-6.6807,-6.6902,-6.6933,-6.7629,-6.8039,-6.8292,-6.9272,-6.9809,-7.0062,-7.0568,-7.0789,-7.0869,-7.1982,-7.3083,-7.4073,-7.519,-7.63,-7.7223,-7.2671,-7.2671,-7.2671,-7.2671,-7.2671,-7.2671,-7.2671,-7.2671,-7.2671,-7.2671,-7.2671,-7.2671,-7.2671,-7.2671,-7.2671,-7.2671,-7.2671,-7.2671,-7.2671,-7.2671,-7.2671,-7.2671,-7.2671,-7.2671,-7.2671,-7.2671,-7.2671,-7.2671,-7.2671,-7.2671,-7.2671,-7.2671,-7.2671,-7.2671,-7.2671,-7.2671,-7.2671,-7.2671,-7.2671,-7.2671,-7.2671,-7.2671,-7.2586,-7.1566,-7.1176,-7.1086,-7.001,-6.9599,-6.9599,-6.9599,-6.9599,-6.9599,-6.9599,-6.896,-6.7903,-6.6869,-6.6617,-6.6617,-6.6617,-6.6617,-6.6617,-6.6617,-6.6617,-6.6617,-6.6617,-6.6617,-6.6617,-6.6617,-6.6617,-6.6396,-6.5701,-6.5574,-6.5353,-6.4658,-6.4532,-6.4532,-6.4532,-6.4532,-6.4532,-6.4532,-6.4532,-6.4532,-6.4532,-6.5164,-6.5574,-6.5574,-6.6207,-6.6617,-6.6617,-6.6617,-6.6617,-6.6617,-6.6617,-6.6617,-6.6617,-6.6617,-6.6617,-6.6617,-6.7281,-6.7597,-6.7629,-6.8355,-6.9051,-6.9683,-6.9683,-7.0094,-7.0789,-7.0789,-7.0789,-7.0869,-7.1982,-7.3083,-7.4173,-7.519,-7.63,-7.7223,-7.2671,-7.2671,-7.2671,-7.2671,-7.2671,-7.2671,-7.2671,-7.2671,-7.2671,-7.2671,-7.2671,-7.2671,-7.2671,-7.2671,-7.2671,-7.2671,-7.2671,-7.2671,-7.2671,-7.2671,-7.2671,-7.2671,-7.2671,-7.2671,-7.2671,-7.2671,-7.2671,-7.2671,-7.2671,-7.2671,-7.2671,-7.2671,-7.2671,-7.2671,-7.2671,-7.2671,-7.2671,-7.2671,-7.2671,-7.2671,-7.2671,-7.2671,-7.2586,-7.1566,-7.1654,-7.2124,-7.1086,-7.1176,-7.162,-7.0963,-7.069,-7.0599,-6.9789,-6.9409,-6.8927,-6.7903,-6.7631,-6.7529,-6.6796,-6.6617,-6.6617,-6.6617,-6.6617,-6.6617,-6.6617,-6.6617,-6.6617,-6.6617,-6.6617,-6.6554,-6.6333,-6.6301,-6.6238,-6.6017,-6.5985,-6.5985,-6.5985,-6.5985,-6.5985,-6.5985,-6.5985,-6.5985,-6.5985,-6.6175,-6.6301,-6.6301,-6.6491,-6.6617,-6.6617,-6.6617,-6.6617,-6.6617,-6.6617,-6.6617,-6.6617,-6.6617,-6.6617,-6.6617,-6.7281,-6.7597,-6.7629,-6.8829,-6.9493,-6.9714,-7.022,-7.0981,-7.1874,-7.1874,-7.2379,-7.3083,-7.3394,-7.4173,-7.519,-7.5479,-7.63,-7.7223,-7.2671,-7.2671,-7.2671,-7.2671,-7.2671,-7.2671,-7.2671,-7.2671,-7.2671,-7.2671,-7.2671,-7.2671,-7.2671,-7.2671,-7.2671,-7.2671,-7.2671,-7.2671,-7.2671,-7.2671,-7.2671,-7.2671,-7.2671,-7.2671,-7.2671,-7.2671,-7.2671,-7.2671,-7.2671,-7.2671,-7.2671,-7.2671,-7.2671,-7.2671,-7.2671,-7.2671,-7.2671,-7.2671,-7.2671,-7.2671,-7.2671,-7.2671,-7.2671,-7.2038,-7.221,-7.2586,-7.2038,-7.221,-7.2586,-7.2038,-7.1742,-7.1654,-7.0599,-7.0196,-7.001,-6.9057,-6.8371,-6.8004,-6.7356,-6.6869,-6.6617,-6.6617,-6.6617,-6.6617,-6.6617,-6.6617,-6.6617,-6.6617,-6.6617,-6.6617,-6.6617,-6.6617,-6.6617,-6.6617,-6.6617,-6.6617,-6.6617,-6.6617,-6.6617,-6.6617,-6.6617,-6.6617,-6.6617,-6.6617,-6.6617,-6.6617,-6.6617,-6.6617,-6.6617,-6.6617,-6.6617,-6.6617,-6.6617,-6.6617,-6.6617,-6.6617,-6.6617,-6.6617,-6.7565,-6.8039,-6.8071,-6.9462,-7.0125,-7.0125,-7.1091,-7.1766,-7.2379,-7.2874,-7.3394,-7.4073,-7.4472,-7.4996,-7.5669,-7.608,-7.6611,-7.7223,-7.2671,-7.2671,-7.2671,-7.2671,-7.2671,-7.2671,-7.2671,-7.2671,-7.2671,-7.2671,-7.2671,-7.2671,-7.2671,-7.2671,-7.2671,-7.2671,-7.2671,-7.2671,-7.2671,-7.2671,-7.2671,-7.2671,-7.2671,-7.2671,-7.2671,-7.2671,-7.2671,-7.2671,-7.2671,-7.2671,-7.2671,-7.2671,-7.2671,-7.2671,-7.2671,-7.2671,-7.2671,-7.2671,-7.2671,-7.2671,-7.2671,-7.2671,-7.2671,-7.2671,-7.2671,-7.2671,-7.2671,-7.2671,-7.2671,-7.2671,-7.2671,-7.2586,-7.1654,-7.13,-7.1086,-7.0103,-6.9121,-6.8371,-6.8271,-6.7529,-6.6691,-6.6691,-6.6691,-6.6617,-6.6617,-6.6617,-6.6617,-6.6617,-6.6617,-6.6617,-6.6617,-6.6617,-6.6617,-6.6617,-6.6617,-6.6617,-6.6617,-6.6617,-6.6617,-6.6617,-6.6617,-6.6617,-6.6617,-6.6617,-6.6617,-6.6617,-6.6617,-6.6617,-6.6617,-6.6617,-6.6617,-6.6617,-6.6617,-6.6617,-6.6617,-6.6649,-6.6681,-6.6712,-6.8071,-6.8735,-6.8829,-7.0188,-7.0789,-7.0869,-7.1874,-7.2485,-7.2591,-7.3668,-7.4173,-7.4373,-7.5383,-7.5764,-7.5892,-7.6828,-7.7223,-7.7223,-7.2671,-7.2671,-7.2671,-7.2671,-7.2671,-7.2671,-7.2671,-7.2671,-7.2671,-7.2671,-7.2671,-7.2671,-7.2671,-7.2671,-7.2671,-7.2671,-7.2671,-7.2671,-7.2671,-7.2671,-7.2671,-7.2671,-7.2671,-7.2671,-7.2671,-7.2671,-7.2671,-7.2671,-7.2671,-7.2671,-7.2671,-7.2671,-7.2671,-7.2671,-7.2671,-7.2671,-7.2671,-7.2671,-7.2671,-7.2671,-7.2671,-7.2671,-7.2671,-7.2671,-7.2671,-7.2671,-7.2671,-7.2671,-7.2671,-7.2671,-7.2671,-7.2671,-7.2416,-7.2382,-7.221,-7.1176,-7.0724,-7.0322,-6.9504,-6.8568,-6.7802,-6.7802,-6.7149,-6.6617,-6.6617,-6.6617,-6.6617,-6.6617,-6.6617,-6.6617,-6.6617,-6.6617,-6.6617,-6.6617,-6.6617,-6.6617,-6.6617,-6.6617,-6.6617,-6.6617,-6.6617,-6.6617,-6.6617,-6.6617,-6.6617,-6.6617,-6.6617,-6.6617,-6.6617,-6.6617,-6.6617,-6.6617,-6.6617,-6.6617,-6.6617,-6.7123,-6.7376,-6.7376,-6.8261,-6.8956,-6.9493,-7.0378,-7.0789,-7.0869,-7.1874,-7.2874,-7.3803,-7.4768,-7.5798,-7.6519,-7.6702,-7.6828,-7.6918,-7.7099,-7.7223,-7.7223,-7.2671,-7.2671,-7.2671,-7.2671,-7.2671,-7.2671,-7.2671,-7.2671,-7.2671,-7.2671,-7.2671,-7.2671,-7.2671,-7.2671,-7.2671,-7.2671,-7.2671,-7.2671,-7.2671,-7.2671,-7.2671,-7.2671,-7.2671,-7.2671,-7.2671,-7.2671,-7.2671,-7.2671,-7.2671,-7.2671,-7.2671,-7.2671,-7.2671,-7.2671,-7.2671,-7.2671,-7.2671,-7.2671,-7.2671,-7.2671,-7.2671,-7.2671,-7.2671,-7.2671,-7.2671,-7.2671,-7.2671,-7.2671,-7.2671,-7.2671,-7.2671,-7.2671,-7.2671,-7.2671,-7.2586,-7.2038,-7.1566,-7.1086,-7.0507,-6.9633,-6.8863,-6.8863,-6.8371,-6.7834,-6.6796,-6.6617,-6.6617,-6.6617,-6.6617,-6.6617,-6.6617,-6.6617,-6.6617,-6.6617,-6.6617,-6.6617,-6.6617,-6.6617,-6.6617,-6.6617,-6.6617,-6.6617,-6.6617,-6.6617,-6.6617,-6.6617,-6.6617,-6.6617,-6.6617,-6.6617,-6.6617,-6.6617,-6.7078,-6.7356,-6.7356,-6.8511,-6.9335,-6.9588,-6.9808,-7.014,-7.0524,-7.1735,-7.2272,-7.2379,-7.3496,-7.4273,-7.4899,-7.5892,-7.6702,-7.7223,-7.7223,-7.7223,-7.7223,-7.7223,-7.7223,-7.7223,-7.2671,-7.2671,-7.2671,-7.2671,-7.2671,-7.2671,-7.2671,-7.2671,-7.2671,-7.2671,-7.2671,-7.2671,-7.2671,-7.2671,-7.2671,-7.2671,-7.2671,-7.2671,-7.2671,-7.2671,-7.2671,-7.2671,-7.2671,-7.2671,-7.2671,-7.2671,-7.2671,-7.2671,-7.2671,-7.2671,-7.2671,-7.2671,-7.2671,-7.2671,-7.2671,-7.2671,-7.2671,-7.2671,-7.2671,-7.2671,-7.2671,-7.2671,-7.2671,-7.2671,-7.2671,-7.2671,-7.2671,-7.2671,-7.2671,-7.2671,-7.2671,-7.2671,-7.2671,-7.2671,-7.2671,-7.2671,-7.2124,-7.1478,-7.1478,-7.069,-6.9883,-6.9883,-6.9694,-6.9121,-6.7459,-6.7078,-6.7078,-6.6869,-6.6901,-6.6796,-6.6617,-6.6617,-6.6617,-6.6617,-6.6617,-6.6617,-6.6617,-6.6617,-6.6617,-6.6617,-6.6617,-6.6617,-6.6617,-6.6617,-6.6617,-6.6617,-6.6617,-6.6691,-6.6901,-6.6901,-6.6974,-6.7078,-6.7903,-6.8436,-6.8566,-7.0173,-7.1289,-7.2018,-7.2044,-7.1994,-7.1818,-7.3302,-7.3972,-7.4073,-7.519,-7.5574,-7.5669,-7.6702,-7.7223,-7.7223,-7.7223,-7.7223,-7.7223,-7.7223,-7.7223,-7.7223,-7.2671,-7.2671,-7.2671,-7.2671,-7.2671,-7.2671,-7.2671,-7.2671,-7.2671,-7.2671,-7.2671,-7.2671,-7.2671,-7.2671,-7.2671,-7.2671,-7.2671,-7.2671,-7.2671,-7.2671,-7.2671,-7.2671,-7.2671,-7.2671,-7.2671,-7.2671,-7.2671,-7.2671,-7.2671,-7.2671,-7.2671,-7.2671,-7.2671,-7.2671,-7.2671,-7.2671,-7.2671,-7.2671,-7.2671,-7.2671,-7.2671,-7.2671,-7.2671,-7.2671,-7.2671,-7.2671,-7.2671,-7.2671,-7.2671,-7.2671,-7.2671,-7.2671,-7.2671,-7.2671,-7.2671,-7.2671,-7.2586,-7.2501,-7.2501,-7.1742,-7.0996,-7.0996,-7.0289,-6.9504,-6.9217,-6.9217,-6.896,-6.8104,-6.7903,-6.7631,-6.6796,-6.6617,-6.6617,-6.6617,-6.6617,-6.6617,-6.6617,-6.6617,-6.6617,-6.6617,-6.6617,-6.6617,-6.6617,-6.6617,-6.6617,-6.6617,-6.6617,-6.6974,-6.7802,-6.7903,-6.8271,-6.9154,-6.9313,-6.9739,-7.04,-7.1192,-7.2018,-7.2746,-7.4265,-7.4536,-7.3638,-7.3939,-7.3972,-7.4073,-7.519,-7.5574,-7.5669,-7.6702,-7.7223,-7.7223,-7.7223,-7.7223,-7.7223,-7.7223,-7.7223,-7.7223,-7.2671,-7.2671,-7.2671,-7.2671,-7.2671,-7.2671,-7.2671,-7.2671,-7.2671,-7.2671,-7.2671,-7.2671,-7.2671,-7.2671,-7.2671,-7.2671,-7.2671,-7.2671,-7.2671,-7.2671,-7.2671,-7.2671,-7.2671,-7.2671,-7.2671,-7.2671,-7.2671,-7.2671,-7.2671,-7.2671,-7.2671,-7.2671,-7.2671,-7.2671,-7.2671,-7.2671,-7.2671,-7.2671,-7.2671,-7.2671,-7.2671,-7.2671,-7.2671,-7.2671,-7.2671,-7.2671,-7.2671,-7.2671,-7.274,-7.3153,-7.3291,-7.336,-7.3809,-7.3947,-7.3947,-7.3947,-7.3636,-7.3291,-7.3291,-7.2725,-7.2038,-7.2038,-7.1708,-7.1321,-7.1321,-7.1321,-7.0872,-6.9217,-6.847,-6.8004,-6.7529,-6.6974,-6.6617,-6.6617,-6.6617,-6.6617,-6.6617,-6.6617,-6.6617,-6.6617,-6.6617,-6.6617,-6.6617,-6.6617,-6.6617,-6.6617,-6.6617,-6.7078,-6.8104,-6.8072,-6.8568,-6.9599,-7.0196,-7.0641,-7.101,-7.2708,-7.3729,-7.4068,-7.572,-7.5892,-7.4865,-7.5479,-7.5798,-7.5798,-7.63,-7.6485,-7.6519,-7.7009,-7.7223,-7.7223,-7.7223,-7.7223,-7.7223,-7.7223,-7.7223,-7.7223]}]]